Date StartTime U_cm/s V_cm/s W_cm/s Ustd_cm/s Vstd_cm/s Wstd_cm/s Uvar_(cm/s)^2 Vvar_(cm/s)^2 Wvar_(cm/s)^2 KE_(m/s)^2 TurbulentKE_(m/s)^2 HorizWindSpeed_cm/s FrictionSpeec_cm/s DragCoef SpeedOfSound_m/s SonicTemperature_C Pressure_mb 
10/08/2013  00:00:00     -159.637      199.105      -24.442       74.882       94.585       52.571     5607.249     8946.259     2763.680        4.152        0.866      255.200       48.192        0.036      340.537       14.622      858.927
10/08/2013  00:01:00     -180.399      164.282      -29.743       75.243       93.230       53.830     5661.575     8691.752     2897.678        3.883        0.863      243.993       43.442        0.032      340.554       14.649      858.928
10/08/2013  00:02:00     -146.535       75.619      -25.040       58.109      107.598       39.997     3376.685    11577.357     1599.743        2.218        0.828      164.897       47.050        0.081      340.516       14.588      858.929
10/08/2013  00:03:00     -139.680      -13.756      -15.584       67.234       65.739       37.359     4520.349     4321.670     1395.673        1.509        0.512      140.356       17.312        0.015      340.489       14.543      858.910
10/08/2013  00:04:00     -152.272       17.020      -11.050       65.476       82.193       47.943     4287.043     6755.752     2298.494        1.847        0.667      153.220       41.635        0.074      340.434       14.451      858.906
10/08/2013  00:05:00      -65.705      -20.722        0.493       74.844       55.890       32.494     5601.612     3123.734     1055.833        0.726        0.489       68.895       39.533        0.329      340.331       14.277      858.898
10/08/2013  00:06:00      -61.597       56.920        2.232       73.521       57.944       36.858     5405.394     3357.453     1358.477        0.858        0.506       83.869       27.331        0.106      340.363       14.331      858.873
10/08/2013  00:07:00      -43.455       26.206       -3.928       23.922       34.329       20.757      572.241     1178.515      430.872        0.239        0.109       50.745       12.042        0.056      340.362       14.331      858.849
10/08/2013  00:08:00      -89.104        9.716      -16.585       43.374       55.947       32.548     1881.310     3130.112     1059.397        0.719        0.304       89.632       25.549        0.081      340.345       14.303      858.850
10/08/2013  00:09:00     -131.079       50.334       -9.013      102.308       96.087       48.538    10466.878     9232.795     2355.908        2.092        1.103      140.410       49.703        0.125      340.356       14.318      858.869
10/08/2013  00:10:00     -109.131       92.066       -0.654       81.095      125.455       62.573     6576.447    15738.921     3915.369        2.330        1.312      142.779       54.746        0.147      340.365       14.333      858.866
10/08/2013  00:11:00     -147.019      181.667      -13.580      102.338      119.258       65.062    10473.134    14222.499     4233.114        4.186        1.446      233.704       53.115        0.052      340.382       14.360      858.835
10/08/2013  00:12:00     -150.425      229.386      -32.088      106.755      184.240       64.133    11396.654    33944.273     4113.038        6.285        2.473      274.310       60.694        0.049      340.424       14.431      858.811
10/08/2013  00:13:00     -218.301      233.729      -49.634       89.493      112.030       60.163     8008.978    12550.774     3619.600        6.446        1.209      319.820       52.621        0.027      340.521       14.595      858.827
10/08/2013  00:14:00     -148.285      167.196      -11.157       91.909       98.780       53.330     8447.214     9757.472     2844.043        3.555        1.052      223.480       43.350        0.038      340.491       14.545      858.819
10/08/2013  00:15:00     -197.504      105.178      -26.149       88.876      122.044       51.687     7898.944    14894.736     2671.541        3.810        1.273      223.764       47.765        0.046      340.572       14.683      858.805
10/08/2013  00:16:00      -62.791       53.567      -13.129       44.504       62.758       40.652     1980.569     3938.601     1652.574        0.728        0.379       82.536       34.360        0.173      340.503       14.568      858.780
10/08/2013  00:17:00     -125.600       70.747      -22.667       50.414       57.731       40.566     2541.532     3332.913     1645.589        1.441        0.376      144.154       26.270        0.033      340.472       14.516      858.763
10/08/2013  00:18:00     -158.709       -8.783      -12.964       52.235       71.836       39.513     2728.455     5160.345     1561.295        1.744        0.473      158.952       29.556        0.035      340.490       14.543      858.757
10/08/2013  00:19:00     -189.433       27.076      -32.127       92.243       90.665       46.349     8508.766     8220.052     2148.276        2.826        0.944      191.358       40.288        0.044      340.496       14.554      858.744
10/08/2013  00:20:00      -88.684       61.396      -22.292       63.704       98.148       43.039     4058.195     9632.963     1852.382        1.383        0.777      107.863       36.588        0.115      340.507       14.574      858.718
10/08/2013  00:21:00     -131.193       32.775       18.604       80.747      130.618       68.830     6520.133    17060.994     4737.625        2.347        1.416      135.225       49.571        0.134      340.544       14.637      858.709
10/08/2013  00:22:00     -180.347      116.595      -14.925      101.231       97.606       59.986    10247.811     9526.943     3598.354        3.485        1.169      214.754       54.879        0.065      340.658       14.827      858.717
10/08/2013  00:23:00     -168.243       60.631      -35.937       73.747      131.365       39.123     5438.610    17256.685     1530.597        2.874        1.211      178.835       32.394        0.033      340.605       14.741      858.709
10/08/2013  00:24:00     -145.189       52.463      -19.128       89.469       72.970       45.247     8004.731     5324.558     2047.254        1.978        0.769      154.377       42.779        0.077      340.581       14.699      858.724
10/08/2013  00:25:00     -223.597      127.857      -36.996       61.082       78.428       46.428     3730.963     6150.961     2155.574        3.987        0.602      257.571       33.771        0.017      340.656       14.824      858.714
10/08/2013  00:26:00     -219.375      -54.902      -23.862      105.013       90.870       59.261    11027.810     8257.293     3511.867        3.725        1.140      226.141       60.412        0.071      340.607       14.742      858.690
10/08/2013  00:27:00     -159.163      -35.957      -17.627       70.281       87.523       62.110     4939.481     7660.327     3857.672        2.169        0.823      163.174       38.054        0.054      340.573       14.685      858.674
10/08/2013  00:28:00     -197.166       -0.912      -13.970       91.341       67.914       45.795     8343.194     4612.256     2097.219        2.706        0.753      197.168       42.712        0.047      340.558       14.659      858.681
10/08/2013  00:29:00     -163.604      -33.188       -2.753       86.096       70.646       40.462     7412.506     4990.908     1637.178        2.096        0.702      166.936       38.552        0.053      340.511       14.580      858.680
10/08/2013  00:30:00     -165.614      -28.236        0.677       91.928       71.573       34.073     8450.828     5122.703     1160.997        2.148        0.737      168.003       43.607        0.067      340.431       14.444      858.663
10/08/2013  00:31:00     -186.477       46.887      -14.510       99.446      119.018       45.227     9889.424    14165.392     2045.496        3.164        1.305      192.281       40.957        0.045      340.508       14.574      858.639
10/08/2013  00:32:00      -96.270       29.840        3.632       84.240       78.428       55.727     7096.434     6151.010     3105.543        1.326        0.818      100.788       42.189        0.175      340.481       14.530      858.621
10/08/2013  00:33:00     -192.316      -93.453      -10.922      113.559       88.031       42.936    12895.565     7749.430     1843.486        3.416        1.124      213.820       33.109        0.024      340.437       14.452      858.595
10/08/2013  00:34:00     -206.275      -93.529      -15.845       69.176       76.486       44.792     4785.261     5850.116     2006.322        3.209        0.632      226.488       36.081        0.025      340.484       14.533      858.600
10/08/2013  00:35:00     -155.444      -31.244        5.569       83.393       83.898       46.329     6954.417     7038.889     2146.346        2.065        0.807      158.553       44.145        0.078      340.482       14.531      858.594
10/08/2013  00:36:00     -196.703      -20.211        2.422      165.040      107.508       74.140    27238.204    11557.891     5496.765        4.169        2.215      197.738       75.457        0.146      340.514       14.585      858.584
10/08/2013  00:37:00     -340.172      -80.808      -23.209      113.026       98.804       58.651    12774.927     9762.246     3439.961        7.438        1.299      349.639       47.919        0.019      340.614       14.752      858.581
10/08/2013  00:38:00     -261.408     -128.991      -21.143       99.272       73.728       52.021     9854.943     5435.801     2706.236        5.170        0.900      291.501       37.601        0.017      340.557       14.656      858.592
10/08/2013  00:39:00     -278.997      -83.717      -25.367      116.721       88.895       53.270    13623.895     7902.386     2837.661        5.492        1.218      291.286       38.251        0.017      340.612       14.748      858.605
10/08/2013  00:40:00     -228.056      -82.363       -9.363      128.815       67.989       51.347    16593.383     4622.451     2636.511        4.136        1.193      242.473       60.366        0.062      340.571       14.680      858.616
10/08/2013  00:41:00     -248.159      -79.429      -14.666       88.408       84.124       47.846     7816.062     7076.765     2289.252        4.264        0.859      260.560       44.182        0.029      340.532       14.613      858.630
10/08/2013  00:42:00     -231.000       -8.014      -10.872      107.015       93.215       65.694    11452.121     8689.064     4315.638        3.900        1.223      231.139       62.581        0.073      340.574       14.686      858.623
10/08/2013  00:43:00     -277.105      -52.811      -19.348      107.491      100.898       52.808    11554.377    10180.456     2788.679        5.223        1.226      282.093       41.150        0.021      340.589       14.711      858.647
10/08/2013  00:44:00     -262.299      -90.061      -17.400      129.448       93.034       59.856    16756.819     8655.293     3582.748        5.310        1.450      277.330       43.720        0.025      340.574       14.685      858.639
10/08/2013  00:45:00     -139.830       10.928      -18.367      119.333       83.546       67.418    14240.401     6979.991     4545.167        2.288        1.288      140.257       52.168        0.138      340.556       14.656      858.648
10/08/2013  00:46:00     -162.989        3.893      -29.051       85.067       96.824       43.800     7236.336     9374.922     1918.477        2.297        0.926      163.035       26.913        0.027      340.569       14.680      858.664
10/08/2013  00:47:00     -159.392      -14.884      -16.098      126.876       96.483       61.437    16097.461     9308.887     3774.444        2.753        1.459      160.086       54.725        0.117      340.505       14.570      858.657
10/08/2013  00:48:00     -246.067      -74.939      -17.124      153.703      118.703       60.585    23624.646    14090.295     3670.567        5.391        2.069      257.225       62.781        0.060      340.572       14.683      858.649
10/08/2013  00:49:00     -201.785      -85.710       10.052      159.208      107.169       71.979    25347.281    11485.115     5181.033        4.508        2.101      219.234       89.416        0.166      340.612       14.750      858.645
10/08/2013  00:50:00     -137.979       -9.119        4.007      145.686      107.841       64.971    21224.392    11629.743     4221.269        2.810        1.854      138.280       66.097        0.228      340.565       14.671      858.636
10/08/2013  00:51:00     -204.233      -17.096      -10.293      104.812       90.906       51.580    10985.570     8263.939     2660.502        3.201        1.096      204.948       50.702        0.061      340.581       14.698      858.628
10/08/2013  00:52:00     -237.951       50.714      -41.578       81.282       94.843       49.216     6606.813     8995.186     2422.181        3.947        0.901      243.296       29.466        0.015      340.617       14.756      858.641
10/08/2013  00:53:00     -136.119       85.077      -10.801      100.829      115.577       55.037    10166.479    13358.002     3029.040        2.621        1.328      160.519       63.951        0.159      340.566       14.674      858.621
10/08/2013  00:54:00     -161.737      -71.044       -0.771      107.980       80.723       48.636    11659.747     6516.234     2365.462        2.587        1.027      176.653       59.022        0.112      340.540       14.629      858.623
10/08/2013  00:55:00     -221.512       45.575      -22.506      159.636       95.358       58.194    25483.732     9093.226     3386.488        4.480        1.898      226.151       47.063        0.043      340.557       14.656      858.608
10/08/2013  00:56:00     -251.645      -53.886      -15.863      116.418      121.602       73.203    13553.060    14786.995     5358.634        5.008        1.685      257.350       57.369        0.050      340.597       14.725      858.602
10/08/2013  00:57:00     -290.736      -49.763      -20.779      140.665       83.146       51.820    19786.567     6913.313     2685.264        5.840        1.469      294.964       65.715        0.050      340.573       14.683      858.605
10/08/2013  00:58:00     -171.030       26.706      -26.235       98.571      110.667       43.869     9716.329    12247.275     1924.487        2.727        1.194      173.103       42.676        0.061      340.552       14.649      858.628
10/08/2013  00:59:00     -211.016      -14.944      -21.572      120.621      106.669       46.055    14549.313    11378.378     2121.107        3.663        1.402      211.545       34.898        0.027      340.653       14.821      858.630
10/08/2013  01:00:00     -193.062      -35.899       -9.016      102.043       79.286       48.398    10412.748     6286.229     2342.322        2.884        0.952      196.372       30.986        0.025      340.565       14.672      858.634
10/08/2013  01:01:00     -141.293       13.715      -10.823       63.274       57.020       32.077     4003.577     3251.285     1028.919        1.427        0.414      141.957       27.364        0.037      340.595       14.724      858.643
10/08/2013  01:02:00     -118.071       29.877      -12.140       64.235       80.904       39.537     4126.139     6545.504     1563.206        1.361        0.612      121.792       27.171        0.050      340.586       14.709      858.652
10/08/2013  01:03:00     -125.581       90.339      -27.274       71.137       69.239       43.055     5060.507     4794.067     1853.752        1.819        0.585      154.699       34.429        0.050      340.603       14.735      858.664
10/08/2013  01:04:00     -182.599      141.774      -41.266       98.066      122.616       43.390     9617.009    15034.782     1882.656        4.083        1.327      231.176       52.414        0.051      340.679       14.863      858.686
10/08/2013  01:05:00     -161.558      209.457      -12.455       89.216      112.432       48.856     7959.514    12640.862     2386.896        4.655        1.149      264.525       34.441        0.017      340.565       14.670      858.686
10/08/2013  01:06:00     -153.577      101.444      -16.011       83.093       71.783       39.174     6904.446     5152.747     1534.590        2.386        0.680      184.057       33.774        0.034      340.517       14.591      858.694
10/08/2013  01:07:00     -173.499      127.065      -11.243      101.410      103.104       49.289    10284.019    10630.398     2429.421        3.485        1.167      215.052       39.218        0.033      340.583       14.702      858.696
10/08/2013  01:08:00     -132.256       25.598       -4.135       58.996       50.456       31.168     3480.581     2545.770      971.428        1.258        0.350      134.711       22.517        0.028      340.510       14.579      858.712
10/08/2013  01:09:00      -88.954       83.321      -13.698       55.825       35.659       33.152     3116.481     1271.584     1099.031        1.026        0.274      121.881       30.254        0.062      340.440       14.461      858.724
10/08/2013  01:10:00     -107.581      106.799      -15.117       56.125       40.791       42.042     3149.961     1663.939     1767.541        1.489        0.329      151.591       38.452        0.064      340.335       14.283      858.712
10/08/2013  01:11:00      -52.662       96.387      -10.490       65.820       58.206       36.268     4332.240     3387.972     1315.402        1.060        0.452      109.835       36.894        0.113      340.282       14.193      858.689
10/08/2013  01:12:00      -86.404      114.607       -9.301       87.544       94.024       42.417     7663.928     8840.513     1799.207        1.949        0.915      143.529       54.303        0.143      340.326       14.267      858.707
10/08/2013  01:13:00      -84.035      131.245      -13.420       52.983       74.130       37.196     2807.201     5495.311     1383.516        1.707        0.484      155.843       26.188        0.028      340.451       14.479      858.737
10/08/2013  01:14:00      -46.057       32.750      -12.322       43.716       53.692       35.540     1911.085     2882.844     1263.115        0.470        0.303       56.514       26.558        0.221      340.329       14.275      858.746
10/08/2013  01:15:00     -111.606       99.357      -16.150       93.680      126.638       52.937     8775.868    16037.130     2802.326        2.510        1.381      149.425       64.930        0.189      340.419       14.423      858.743
10/08/2013  01:16:00     -126.924      192.936      -21.919       79.813       84.987       51.645     6370.120     7222.815     2667.244        3.503        0.813      230.942       44.582        0.037      340.286       14.199      858.739
10/08/2013  01:17:00     -142.044      207.131      -29.856       65.094       87.701       42.354     4237.172     7691.382     1793.892        3.884        0.686      251.157       42.553        0.029      340.186       14.029      858.759
10/08/2013  01:18:00      -81.781      132.638      -18.399       50.220       77.325       35.435     2522.014     5979.173     1255.625        1.719        0.488      155.823       38.940        0.062      340.177       14.017      858.735
10/08/2013  01:19:00     -149.008       32.062      -21.545       78.288       87.776       30.726     6129.029     7704.626      944.070        1.923        0.739      152.419       29.676        0.038      340.360       14.325      858.742
10/08/2013  01:20:00     -113.800       12.192      -12.471       68.792       77.677       52.134     4732.375     6033.682     2717.961        1.337        0.674      114.451       40.770        0.127      340.541       14.633      858.745
10/08/2013  01:21:00     -126.577      134.206      -19.744       98.736       87.596       52.846     9748.829     7673.027     2792.682        2.731        1.011      184.480       62.232        0.114      340.585       14.705      858.787
10/08/2013  01:22:00     -158.324      172.395      -25.884      107.587       90.892       53.961    11574.940     8261.266     2911.772        3.910        1.137      234.065       60.347        0.066      340.399       14.390      858.806
10/08/2013  01:23:00      -93.655      178.707      -13.941       53.452       95.541       44.413     2857.106     9128.084     1972.534        2.743        0.698      201.761       43.085        0.046      340.291       14.208      858.807
10/08/2013  01:24:00      -58.642       81.739       -1.468       45.350      102.691       41.472     2056.583    10545.362     1719.922        1.222        0.716      100.599       37.953        0.142      340.206       14.064      858.806
10/08/2013  01:25:00     -159.005      161.425      -17.474      115.127      131.658       61.874    13254.139    17333.699     3828.374        4.302        1.721      226.585       54.792        0.058      340.401       14.390      858.792
10/08/2013  01:26:00     -139.376       96.941      -24.230       67.717       76.899       35.464     4585.622     5913.517     1257.667        2.058        0.588      169.774       41.088        0.059      340.363       14.331      858.818
10/08/2013  01:27:00     -179.511      148.089      -41.621       74.080       99.529       41.115     5487.815     9906.013     1690.481        3.648        0.854      232.711       41.157        0.031      340.291       14.206      858.836
10/08/2013  01:28:00      -97.418       46.156       -2.369       90.519       79.857       42.714     8193.628     6377.082     1824.514        1.401        0.820      107.799       48.846        0.205      340.222       14.093      858.832
10/08/2013  01:29:00     -165.815      159.672      -44.250       72.073       93.535       46.427     5194.456     8748.806     2155.432        3.552        0.805      230.195       35.918        0.024      340.358       14.319      858.844
10/08/2013  01:30:00     -118.447       75.150      -13.214       50.913       62.169       34.652     2592.109     3864.945     1200.742        1.375        0.383      140.276       33.173        0.056      340.309       14.241      858.850
10/08/2013  01:31:00     -154.969       84.492      -30.933       71.626       88.423       38.256     5130.253     7818.541     1463.555        2.326        0.721      176.506       44.708        0.064      340.265       14.164      858.863
10/08/2013  01:32:00      -72.742       93.008      -13.197       55.662       94.249       39.842     3098.246     8882.930     1587.366        1.384        0.678      118.076       42.558        0.130      340.202       14.059      858.873
10/08/2013  01:33:00     -168.924       95.943      -31.707       49.473       67.297       32.728     2447.621     4528.876     1071.146        2.340        0.402      194.269       28.188        0.021      340.330       14.273      858.921
10/08/2013  01:34:00     -140.595       89.763      -18.954       72.683       55.420       34.915     5282.750     3071.332     1219.028        1.888        0.479      166.806       33.507        0.040      340.191       14.040      858.950
10/08/2013  01:35:00     -171.928      124.660      -27.267      123.305       95.195       61.721    15204.139     9062.129     3809.501        3.695        1.404      212.366       67.631        0.101      340.133       13.940      858.954
10/08/2013  01:36:00     -112.092      170.595      -17.076       75.093       94.609       44.362     5638.992     8950.917     1967.952        2.926        0.828      204.125       40.189        0.039      340.025       13.759      858.933
10/08/2013  01:37:00     -141.816      261.592      -27.314       81.275      100.368       54.911     6605.646    10073.767     3015.235        5.449        0.985      297.560       50.610        0.029      339.859       13.477      858.938
10/08/2013  01:38:00     -191.272      256.653      -40.313       90.774       79.363       51.801     8240.008     6298.482     2683.363        6.065        0.861      320.087       52.564        0.027      339.788       13.357      858.924
10/08/2013  01:39:00     -202.366      172.044      -37.060       60.866       91.001       39.038     3704.698     8281.201     1523.994        4.271        0.675      265.615       40.167        0.023      339.820       13.412      858.924
10/08/2013  01:40:00     -200.320       83.892      -24.002       62.641       65.995       35.963     3923.908     4355.341     1293.314        2.866        0.479      217.177       30.844        0.020      339.813       13.400      858.976
10/08/2013  01:41:00     -190.777      153.493      -35.239       90.014       64.532       48.500     8102.579     4164.362     2352.284        3.791        0.731      244.859       49.010        0.040      339.825       13.421      859.004
10/08/2013  01:42:00     -102.075      190.861      -13.940       84.777      101.663       60.080     7187.087    10335.314     3609.566        3.408        1.057      216.442       49.446        0.052      339.822       13.416      859.006
10/08/2013  01:43:00     -143.428       71.752      -33.981       92.782      101.120       51.176     8608.556    10225.286     2619.001        2.416        1.073      160.375       58.120        0.131      339.871       13.500      859.000
10/08/2013  01:44:00     -126.748       82.391      -23.593       76.768      117.468       46.539     5893.349    13798.656     2165.883        2.263        1.093      151.173       48.747        0.104      339.809       13.396      859.023
10/08/2013  01:45:00     -220.259      325.179      -57.448       70.256      115.908       53.015     4935.898    13434.675     2810.641        8.936        1.059      392.754       41.653        0.011      339.696       13.203      859.046
10/08/2013  01:46:00     -124.729      273.926      -26.828       71.410      111.041       49.757     5099.407    12330.084     2475.799        5.560        0.995      300.986       54.521        0.033      339.671       13.161      859.052
10/08/2013  01:47:00     -111.599      197.363      -26.717       87.875      110.490       54.519     7722.015    12208.137     2972.357        3.751        1.145      226.730       61.949        0.075      339.691       13.197      859.022
10/08/2013  01:48:00     -118.865      159.925      -19.053       88.110       89.035       48.362     7763.322     7927.303     2338.884        2.904        0.901      199.260       39.386        0.039      339.674       13.169      859.015
10/08/2013  01:49:00     -178.814      346.904      -46.865       62.618       92.197       55.323     3920.952     8500.344     3060.580        8.499        0.774      390.278       48.102        0.015      339.660       13.143      859.048
10/08/2013  01:50:00     -154.381      255.322      -34.769       93.315      112.755       48.423     8707.713    12713.666     2344.780        5.699        1.188      298.366       39.571        0.018      339.614       13.065      859.085
10/08/2013  01:51:00     -115.831      220.651      -18.360       80.336      102.823       57.972     6453.811    10572.638     3360.720        4.141        1.019      249.206       54.391        0.048      339.548       12.953      859.087
10/08/2013  01:52:00      -76.123      217.682      -23.396       68.884       90.296       42.087     4745.002     8153.307     1771.320        3.420        0.733      230.608       43.228        0.035      339.503       12.878      859.105
10/08/2013  01:53:00      -90.287      279.673      -38.482       71.998       96.492       53.096     5183.747     9310.716     2819.181        5.258        0.866      293.886       49.505        0.028      339.479       12.836      859.085
10/08/2013  01:54:00     -135.951      146.664      -30.109       61.831       71.382       41.179     3823.060     5095.329     1695.741        2.575        0.531      199.982       42.673        0.046      339.407       12.717      859.149
10/08/2013  01:55:00      -43.216       83.117        2.876       62.879       88.074       43.475     3953.778     7756.949     1890.069        1.119        0.680       93.680       44.152        0.222      339.336       12.599      859.159
10/08/2013  01:56:00     -200.541      145.318      -37.555       82.887       86.459       46.189     6870.207     7475.111     2133.460        3.961        0.824      247.657       42.839        0.030      339.429       12.752      859.153
10/08/2013  01:57:00     -115.504       84.743      -11.278       93.268       82.247       39.113     8698.882     6764.595     1529.803        1.882        0.850      143.257       35.364        0.061      339.392       12.693      859.146
10/08/2013  01:58:00     -101.305      102.332      -10.484       74.386       92.532       44.969     5533.244     8562.144     2022.216        1.848        0.806      143.995       40.997        0.081      339.323       12.575      859.151
10/08/2013  01:59:00     -114.864      116.169       -9.150       86.273       65.429       38.220     7443.096     4281.003     1460.776        1.998        0.659      163.368       36.344        0.049      339.364       12.645      859.155
10/08/2013  02:00:00      -88.003      183.358      -14.722       38.792       57.359       35.222     1504.846     3290.040     1240.580        2.381        0.302      203.383       32.058        0.025      339.327       12.582      859.143
10/08/2013  02:01:00      -52.022       87.780      -13.826       41.127       44.854       31.853     1691.402     2011.898     1014.591        0.766        0.236      102.038       22.542        0.049      339.315       12.564      859.126
10/08/2013  02:02:00      -41.525       76.164       -9.869       30.026       37.124       18.533      901.542     1378.174      343.464        0.512        0.131       86.748       18.251        0.044      339.306       12.551      859.137
10/08/2013  02:03:00      -18.467      -14.708       10.339       32.171       21.139       14.666     1034.984      446.849      215.084        0.118        0.085       23.608       11.474        0.236      339.248       12.452      859.163
10/08/2013  02:04:00     -167.259       -6.152      -19.148       67.670       71.251       34.798     4579.184     5076.710     1210.897        1.962        0.543      167.372       27.979        0.028      339.257       12.465      859.184
10/08/2013  02:05:00     -144.630       86.673      -19.000       89.752       68.927       44.197     8055.371     4750.960     1953.418        2.177        0.738      168.612       48.449        0.083      339.196       12.361      859.159
10/08/2013  02:06:00     -101.242       89.553       -8.920       63.527       70.015       39.956     4035.637     4902.084     1596.492        1.444        0.527      135.166       43.117        0.102      339.192       12.357      859.128
10/08/2013  02:07:00      -42.102       91.573      -14.536       37.163       67.691       28.154     1381.125     4582.086      792.633        0.856        0.338      100.788       20.482        0.041      339.131       12.253      859.159
10/08/2013  02:08:00      -25.026        8.688        6.126       55.093       33.925       38.031     3035.256     1150.925     1446.331        0.318        0.282       26.491       35.047        1.750      339.090       12.185      859.182
10/08/2013  02:09:00      -48.884       34.632       -7.631       42.580       36.009       27.055     1813.083     1296.640      731.970        0.374        0.192       59.908       25.040        0.175      339.091       12.187      859.202
10/08/2013  02:10:00      -81.043      -74.872       -8.556       57.125       48.300       34.910     3263.282     2332.861     1218.690        0.953        0.341      110.335       21.667        0.039      339.096       12.194      859.193
10/08/2013  02:11:00      -49.944        8.381        8.147       61.287       51.555       46.001     3756.134     2657.878     2116.093        0.558        0.427       50.642       40.241        0.631      339.005       12.043      859.202
10/08/2013  02:12:00     -182.424      -23.785       -7.779       62.765       42.489       29.233     3939.498     1805.340      854.565        2.025        0.330      183.968       14.606        0.006      338.974       11.989      859.217
10/08/2013  02:13:00     -109.378       -4.357      -12.549       80.933       52.376       35.051     6550.075     2743.282     1228.574        1.133        0.526      109.465       37.159        0.115      338.958       11.963      859.209
10/08/2013  02:14:00     -100.866        3.662       -8.292       58.271       69.853       34.061     3395.500     4879.432     1160.155        0.984        0.472      100.932       14.770        0.021      338.931       11.919      859.193
10/08/2013  02:15:00      -86.046      116.597      -18.679       47.023       73.388       41.600     2211.117     5385.871     1730.569        1.534        0.466      144.909       33.825        0.054      338.977       11.995      859.194
10/08/2013  02:16:00     -112.122       42.142      -10.595       62.755       41.970       37.917     3938.164     1761.512     1437.683        1.080        0.357      119.780       37.019        0.096      339.015       12.058      859.209
10/08/2013  02:17:00     -103.705      -35.763       -7.970       46.389       54.430       37.812     2151.947     2962.601     1429.784        0.932        0.327      109.698       22.437        0.042      339.009       12.049      859.216
10/08/2013  02:18:00      -79.964      -10.948        6.560       59.109       35.480       24.457     3493.896     1258.812      598.149        0.595        0.268       80.710       11.722        0.021      338.967       11.979      859.236
10/08/2013  02:19:00      -80.850      -16.347       -0.973       55.000       51.365       32.446     3025.007     2638.356     1052.769        0.676        0.336       82.486       27.775        0.113      338.950       11.951      859.249
10/08/2013  02:20:00      -59.926      -24.063      -11.541       47.870       34.963       36.823     2291.522     1222.435     1355.951        0.459        0.243       64.577       20.744        0.103      339.012       12.056      859.242
10/08/2013  02:21:00      -79.197       44.814        1.098       69.684       40.681       42.917     4855.853     1654.927     1841.832        0.832        0.418       90.997       37.050        0.166      339.023       12.072      859.229
10/08/2013  02:22:00      -45.590       77.290      -20.003       74.236       51.036       30.210     5511.007     2604.708      912.629        0.874        0.451       89.734       21.327        0.056      339.036       12.094      859.225
10/08/2013  02:23:00      -92.680      103.156      -15.315       67.017      101.489       46.558     4491.225    10300.046     2167.632        1.821        0.848      138.675       53.285        0.148      339.101       12.202      859.217
10/08/2013  02:24:00     -174.970      139.686      -36.823       56.953       95.515       31.388     3243.698     9123.059      985.225        3.241        0.668      223.890       35.467        0.025      339.127       12.245      859.215
10/08/2013  02:25:00      -61.125      -25.319        2.594       56.975       90.596       33.971     3246.102     8207.579     1154.009        0.849        0.630       66.162       35.853        0.294      339.058       12.130      859.200
10/08/2013  02:26:00     -121.663        8.224       -6.072       60.552       57.268       38.009     3666.512     3279.605     1444.708        1.165        0.420      121.940       30.169        0.061      339.037       12.096      859.205
10/08/2013  02:27:00     -126.169        1.406       -8.550       68.731       67.444       39.522     4723.999     4548.649     1561.983        1.341        0.542      126.176       24.638        0.038      338.975       11.991      859.204
10/08/2013  02:28:00      -99.454      117.049      -15.049      102.098       90.413       54.017    10424.068     8174.479     2917.785        2.266        1.076      153.595       49.059        0.102      339.031       12.084      859.187
10/08/2013  02:29:00     -112.831       81.507      -16.466       86.000       76.079       39.147     7396.030     5788.061     1532.478        1.718        0.736      139.191       48.534        0.122      339.025       12.075      859.172
10/08/2013  02:30:00      -75.477      108.022       -0.417       60.743       68.692       39.382     3689.655     4718.540     1550.905        1.366        0.498      131.778       37.990        0.083      338.906       11.874      859.185
10/08/2013  02:31:00      -71.134       89.863      -10.131       44.087       63.964       30.696     1943.678     4091.432      942.274        1.011        0.349      114.609       33.211        0.084      338.871       11.816      859.184
10/08/2013  02:32:00      -71.973       75.328      -12.392       51.987       82.735       36.862     2702.630     6845.075     1358.828        1.096        0.545      104.184       22.455        0.046      338.917       11.893      859.191
10/08/2013  02:33:00     -190.071      207.318      -50.959       67.964       69.191       43.996     4619.061     4787.349     1935.683        4.652        0.567      281.261       43.739        0.024      338.967       11.974      859.211
10/08/2013  02:34:00      -77.226      139.349      -24.361       30.302       51.763       31.389      918.234     2679.433      985.246        1.528        0.229      159.317       14.231        0.008      338.904       11.871      859.220
10/08/2013  02:35:00     -108.769      107.580      -27.358       54.150       54.736       31.476     2932.268     2996.024      990.722        1.553        0.346      152.985       31.853        0.043      338.908       11.877      859.217
10/08/2013  02:36:00      -66.213       91.866       -0.216       63.967       61.552       37.962     4091.813     3788.612     1441.141        1.107        0.466      113.241       35.777        0.100      338.845       11.774      859.211
10/08/2013  02:37:00      -28.876      143.354       -6.726       33.658       72.367       31.056     1132.882     5236.930      964.465        1.438        0.367      146.233       33.109        0.051      338.851       11.783      859.181
10/08/2013  02:38:00     -137.178      186.799      -35.679       80.112       67.917       40.424     6417.980     4612.690     1634.106        3.382        0.633      231.758       40.587        0.031      338.804       11.702      859.175
10/08/2013  02:39:00     -116.701      128.808      -30.720       62.234       71.799       39.965     3873.074     5155.080     1597.169        2.089        0.531      173.812       47.213        0.074      338.760       11.630      859.190
10/08/2013  02:40:00     -182.981      188.127      -40.222       84.419       78.790       46.360     7126.545     6207.938     2149.217        4.298        0.774      262.439       45.462        0.030      338.776       11.653      859.210
10/08/2013  02:41:00     -166.082      201.331      -35.717       80.719       66.343       50.868     6515.562     4401.327     2587.537        4.145        0.675      260.993       46.160        0.031      338.766       11.637      859.197
10/08/2013  02:42:00     -140.726       86.197       -2.175      103.105       72.447       49.303    10630.604     5248.534     2430.831        2.277        0.915      165.026       43.226        0.069      338.728       11.574      859.176
10/08/2013  02:43:00      -79.474      129.002      -15.771       60.266       55.479       35.500     3632.024     3077.874     1260.268        1.559        0.399      151.518       30.995        0.042      338.671       11.480      859.171
10/08/2013  02:44:00     -145.864      144.530      -22.900       76.112       81.311       53.068     5793.107     6611.515     2816.218        2.895        0.761      205.342       50.997        0.062      338.635       11.416      859.181
10/08/2013  02:45:00     -185.169      181.654      -16.612       95.513       80.870       61.267     9122.827     6539.899     3753.656        4.349        0.971      259.395       57.138        0.049      338.588       11.336      859.166
10/08/2013  02:46:00     -163.625      269.904      -44.676       78.288      110.333       55.003     6129.016    12173.397     3025.338        6.147        1.066      315.629       57.344        0.033      338.550       11.275      859.173
10/08/2013  02:47:00      -98.668      250.724      -28.160       72.974       77.125       38.522     5325.228     5948.313     1483.968        4.307        0.638      269.440       26.835        0.010      338.581       11.326      859.174
10/08/2013  02:48:00     -126.532      161.768      -24.139       74.975       90.012       42.943     5621.309     8102.221     1844.121        2.916        0.778      205.376       37.078        0.033      338.574       11.314      859.143
10/08/2013  02:49:00     -121.914      145.432      -24.720       68.352       75.396       46.718     4671.936     5684.559     2182.552        2.458        0.627      189.772       46.959        0.061      338.513       11.213      859.143
10/08/2013  02:50:00      -60.200      196.998      -20.770       46.841       92.188       29.678     2194.042     8498.698      880.765        2.722        0.579      205.990       34.540        0.028      338.520       11.225      859.118
10/08/2013  02:51:00     -100.499      175.282      -27.725       44.449       53.811       36.405     1975.747     2895.656     1325.322        2.389        0.310      202.049       33.482        0.027      338.467       11.138      859.103
10/08/2013  02:52:00     -101.438      102.663      -25.284       51.312       47.859       29.945     2632.972     2290.448      896.732        1.364        0.291      144.324       20.263        0.020      338.459       11.124      859.118
10/08/2013  02:53:00     -153.429      197.918      -36.532       61.214       92.051       44.917     3747.115     8473.419     2017.512        3.914        0.712      250.423       39.772        0.025      338.452       11.110      859.106
10/08/2013  02:54:00     -101.789      143.695      -16.200       91.925       60.727       48.673     8450.247     3687.738     2369.079        2.289        0.725      176.094       37.074        0.044      338.468       11.138      859.102
10/08/2013  02:55:00      -98.892      211.315      -36.717       80.215      105.712       53.753     6434.432    11175.112     2889.393        3.814        1.025      233.311       38.575        0.027      338.471       11.143      859.103
10/08/2013  02:56:00     -118.747      178.078      -19.803       69.479       69.608       48.252     4827.269     4845.311     2328.211        2.910        0.600      214.039       47.359        0.049      338.398       11.019      859.098
10/08/2013  02:57:00     -110.213      184.711      -32.623       87.672       70.619       49.409     7686.373     4987.083     2441.231        3.122        0.756      215.093       55.580        0.067      338.427       11.067      859.092
10/08/2013  02:58:00     -108.998      292.228      -41.030       69.337      127.285       42.178     4807.661    16201.581     1779.010        6.087        1.139      311.894       40.142        0.017      338.429       11.070      859.105
10/08/2013  02:59:00     -180.719      266.010      -42.251       97.909       84.027       53.359     9586.170     7060.511     2847.169        6.235        0.975      321.591       46.658        0.021      338.360       10.955      859.098
10/08/2013  03:00:00     -166.525      188.406      -36.566       92.639       77.490       56.223     8581.918     6004.670     3161.034        4.115        0.887      251.451       53.510        0.045      338.386       10.998      859.106
10/08/2013  03:01:00      -94.125      182.412      -21.489       72.755       94.414       48.431     5293.275     8914.005     2345.609        2.957        0.828      205.264       46.317        0.051      338.387       11.001      859.104
10/08/2013  03:02:00     -121.133      196.196      -31.496       65.046       68.099       42.326     4230.926     4637.438     1791.500        3.241        0.533      230.578       37.734        0.027      338.360       10.955      859.088
10/08/2013  03:03:00     -162.575      180.042      -36.466      109.457      115.777       48.794    11980.905    13404.324     2380.870        4.397        1.388      242.582       59.981        0.061      338.429       11.071      859.107
10/08/2013  03:04:00     -111.372      272.023      -28.635       85.218      103.487       58.894     7262.117    10709.534     3468.496        5.433        1.072      293.939       52.319        0.032      338.389       11.003      859.081
10/08/2013  03:05:00     -147.325      246.518      -24.623       99.636      120.825       61.737     9927.373    14598.603     3811.517        5.570        1.417      287.186       69.515        0.059      338.360       10.955      859.107
10/08/2013  03:06:00     -103.900      156.926      -24.938       83.530       66.710       42.303     6977.328     4450.245     1789.549        2.463        0.661      188.205       45.373        0.058      338.346       10.933      859.135
10/08/2013  03:07:00     -173.461      142.552      -38.101       67.043       75.736       43.598     4494.813     5735.928     1900.820        3.199        0.607      224.521       38.808        0.030      338.339       10.919      859.155
10/08/2013  03:08:00     -171.001      156.280      -41.869       87.669       86.913       41.920     7685.808     7553.881     1757.303        3.620        0.850      231.657       51.984        0.050      338.398       11.021      859.180
10/08/2013  03:09:00     -175.431      137.100      -33.925       70.681       58.611       39.050     4995.772     3435.293     1524.935        3.034        0.498      222.649       32.674        0.022      338.431       11.074      859.182
10/08/2013  03:10:00     -111.983      114.242       -9.839       74.787       55.297       39.426     5593.046     3057.707     1554.439        1.794        0.510      159.973       20.925        0.017      338.342       10.927      859.176
10/08/2013  03:11:00     -161.666      207.576      -33.015       67.684       78.539       52.869     4581.121     6168.416     2795.154        4.193        0.677      263.104       42.706        0.026      338.391       11.006      859.194
10/08/2013  03:12:00      -97.484      181.921      -22.453       55.996       69.236       37.353     3135.604     4793.680     1395.256        2.621        0.466      206.394       31.471        0.023      338.319       10.887      859.198
10/08/2013  03:13:00     -166.143      184.195      -44.713       65.471       74.921       37.679     4286.457     5613.144     1419.689        3.742        0.566      248.055       38.158        0.024      338.336       10.914      859.203
10/08/2013  03:14:00     -142.616      192.346      -33.070       84.894       84.896       44.957     7206.949     7207.252     2021.125        3.743        0.822      239.450       50.255        0.044      338.317       10.884      859.226
10/08/2013  03:15:00     -132.857      165.038      -31.485       81.513       84.712       36.726     6644.423     7176.105     1348.806        3.052        0.758      211.869       45.195        0.046      338.334       10.912      859.221
10/08/2013  03:16:00     -124.866      183.998      -32.057       64.200       85.254       46.183     4121.592     7268.280     2132.848        3.200        0.676      222.366       44.219        0.040      338.277       10.817      859.219
10/08/2013  03:17:00     -111.231      257.620      -35.115       91.279       78.383       45.594     8331.888     6143.826     2078.774        4.826        0.828      280.607       48.823        0.030      338.331       10.908      859.220
10/08/2013  03:18:00     -105.609      245.721      -31.748       96.294       90.057       51.818     9272.506     8110.226     2685.100        4.630        1.003      267.454       43.690        0.027      338.299       10.854      859.201
10/08/2013  03:19:00     -149.382      164.669      -31.786       85.417       73.949       45.718     7296.023     5468.408     2090.171        3.264        0.743      222.330       47.824        0.046      338.283       10.827      859.201
10/08/2013  03:20:00     -113.680      199.697      -27.577       53.119       78.071       33.693     2821.653     6095.115     1135.244        3.181        0.503      229.787       20.882        0.008      338.238       10.751      859.171
10/08/2013  03:21:00     -112.933      230.139      -28.270       71.075       78.017       46.359     5051.608     6086.599     2149.175        3.990        0.664      256.355       48.016        0.035      338.247       10.765      859.177
10/08/2013  03:22:00     -113.832      187.417      -24.813       72.475      100.578       50.548     5252.634    10115.986     2555.121        3.331        0.896      219.278       53.753        0.060      338.349       10.937      859.176
10/08/2013  03:23:00     -110.841      197.637      -29.795       82.954       75.791       48.163     6881.297     5744.264     2319.657        3.359        0.747      226.597       36.184        0.025      338.269       10.803      859.184
10/08/2013  03:24:00     -124.272      212.483      -24.137       62.734       93.257       47.160     3935.570     8696.918     2224.080        3.801        0.743      246.155       32.953        0.018      338.285       10.829      859.213
10/08/2013  03:25:00     -150.030      306.628      -43.786       70.855       88.498       56.668     5020.362     7831.959     3211.263        6.725        0.803      341.364       46.349        0.018      338.238       10.751      859.214
10/08/2013  03:26:00     -128.428      264.166      -34.904       93.636       81.154       50.123     8767.765     6585.932     2512.316        5.268        0.893      293.730       49.736        0.029      338.195       10.676      859.218
10/08/2013  03:27:00     -116.639      217.586      -23.202       64.359      105.576       48.093     4142.022    11146.319     2312.963        3.954        0.880      246.877       43.807        0.031      338.190       10.671      859.238
10/08/2013  03:28:00     -114.116      176.122      -38.008       63.803       63.663       38.970     4070.809     4052.989     1518.664        2.756        0.482      209.860       40.557        0.037      338.218       10.717      859.239
10/08/2013  03:29:00     -172.510      160.579      -39.111       66.281       86.568       42.797     4393.111     7494.094     1831.555        3.539        0.686      235.681       47.074        0.040      338.231       10.740      859.234
10/08/2013  03:30:00     -138.242      185.388      -35.371       77.794       68.981       40.304     6051.930     4758.313     1624.425        3.358        0.622      231.256       38.542        0.028      338.258       10.784      859.240
10/08/2013  03:31:00     -175.149      205.073      -41.465       64.697       80.964       48.628     4185.729     6555.177     2364.637        4.378        0.655      269.689       48.799        0.033      338.330       10.905      859.254
10/08/2013  03:32:00     -148.156      128.533      -17.446       90.724       66.164       42.775     8230.893     4377.614     1829.706        2.660        0.722      196.140       39.327        0.040      338.247       10.768      859.263
10/08/2013  03:33:00     -107.106      111.275      -17.165       89.364       67.127       54.661     7985.954     4506.099     2987.832        1.981        0.774      154.447       45.905        0.088      338.353       10.945      859.268
10/08/2013  03:34:00     -168.768      230.028      -31.976       93.400       99.724       52.114     8723.513     9944.969     2715.819        5.190        1.069      285.299       47.806        0.028      338.401       11.023      859.285
10/08/2013  03:35:00     -174.437      178.513      -34.480      108.725       90.344       45.126    11821.114     8162.064     2036.328        4.275        1.101      249.589       44.222        0.031      338.497       11.184      859.315
10/08/2013  03:36:00     -111.020      202.393      -19.288       66.897      109.275       56.870     4475.163    11940.937     3234.155        3.665        0.983      230.843       51.951        0.051      338.450       11.108      859.311
10/08/2013  03:37:00     -192.798      242.492      -50.247       88.105      109.363       50.345     7762.455    11960.365     2534.665        6.037        1.113      309.796       49.739        0.026      338.474       11.146      859.345
10/08/2013  03:38:00     -159.445      324.895      -42.473       82.016      119.010       60.075     6726.704    14163.487     3608.949        7.864        1.225      361.911       57.549        0.025      338.547       11.268      859.360
10/08/2013  03:39:00     -246.966      290.356      -63.216       83.476      128.686       54.100     6968.294    16560.084     2926.777        8.787        1.323      381.181       56.394        0.022      338.549       11.272      859.372
10/08/2013  03:40:00     -171.575      272.265      -50.358      103.794       75.667       55.212    10773.142     5725.528     3048.334        6.282        0.977      321.817       51.228        0.025      338.550       11.274      859.412
10/08/2013  03:41:00     -118.032      355.744      -32.160       93.273      172.796       62.168     8699.813    29858.413     3864.819        9.196        2.121      374.814       54.697        0.021      338.439       11.089      859.398
10/08/2013  03:42:00     -156.178      232.140      -42.554       75.248       91.483       44.544     5662.256     8369.142     1984.197        4.805        0.801      279.787       46.360        0.027      338.375       10.981      859.411
10/08/2013  03:43:00     -193.176      236.292      -49.708       68.717      148.025       49.175     4722.015    21911.267     2418.132        6.233        1.453      305.206       57.903        0.036      338.389       11.004      859.415
10/08/2013  03:44:00     -142.643      233.239      -34.511      105.733       71.816       53.081    11179.382     5157.597     2817.571        4.754        0.958      273.400       60.176        0.048      338.329       10.903      859.429
10/08/2013  03:45:00     -215.803      209.217      -46.078       77.873      110.257       50.946     6064.266    12156.674     2595.518        5.664        1.041      300.571       50.874        0.029      338.324       10.895      859.428
10/08/2013  03:46:00     -139.607      112.671      -14.946       97.588       93.009       49.982     9523.384     8650.681     2498.181        2.654        1.034      179.401       35.409        0.039      338.298       10.854      859.423
10/08/2013  03:47:00     -159.649      147.465      -35.715       78.258      106.804       44.695     6124.339    11407.109     1997.619        3.402        0.976      217.333       48.058        0.049      338.303       10.861      859.430
10/08/2013  03:48:00     -270.080      250.307      -53.857      120.259      139.870       64.497    14462.289    19563.618     4159.847        8.833        1.909      368.235       66.116        0.032      338.345       10.930      859.440
10/08/2013  03:49:00     -183.055      211.613      -45.162      100.102      111.337       61.483    10020.340    12395.898     3780.184        5.326        1.310      279.803       69.602        0.062      338.335       10.914      859.441
10/08/2013  03:50:00     -196.423      233.132      -39.645       72.400       94.911       55.371     5241.700     9008.155     3065.950        5.591        0.866      304.848       41.723        0.019      338.281       10.821      859.446
10/08/2013  03:51:00     -196.323      216.178      -44.063       76.167       73.249       47.323     5801.427     5365.346     2239.431        5.031        0.670      292.020       38.909        0.018      338.285       10.828      859.464
10/08/2013  03:52:00     -217.556      199.119      -46.554       89.860       80.511       54.815     8074.778     6482.030     3004.645        5.335        0.878      294.922       52.891        0.032      338.252       10.775      859.467
10/08/2013  03:53:00     -211.053      178.264      -39.825       70.861      124.044       53.361     5021.249    15386.913     2847.427        5.058        1.163      276.263       62.343        0.051      338.247       10.765      859.463
10/08/2013  03:54:00     -145.565      131.375       -9.016      105.324       87.325       57.689    11093.056     7625.676     3328.019        3.028        1.102      196.083       60.768        0.096      338.157       10.615      859.461
10/08/2013  03:55:00     -275.542      228.162      -61.382       99.456      116.295       53.389     9891.500    13524.614     2850.371        7.900        1.313      357.745       48.067        0.018      338.229       10.734      859.479
10/08/2013  03:56:00     -211.763      219.831      -41.895       97.908      114.329       56.793     9586.020    13071.205     3225.398        6.040        1.294      305.237       62.472        0.042      338.161       10.621      859.477
10/08/2013  03:57:00     -169.364      164.008      -32.575       85.125       70.819       46.420     7246.325     5015.352     2154.820        3.553        0.721      235.761       42.460        0.032      338.107       10.529      859.487
10/08/2013  03:58:00     -151.667      184.799      -32.089       75.358       86.192       44.506     5678.768     7428.980     1980.745        3.663        0.754      239.069       42.694        0.032      338.122       10.557      859.483
10/08/2013  03:59:00     -135.516      138.889      -15.225       76.567       81.794       44.681     5862.437     6690.223     1996.416        2.621        0.727      194.049       51.052        0.069      338.052       10.439      859.476
10/08/2013  04:00:00     -164.414      175.587      -36.030      101.072      102.862       44.522    10215.486    10580.622     1982.201        4.096        1.139      240.546       47.088        0.038      338.035       10.409      859.476
10/08/2013  04:01:00     -213.097      173.837      -46.229       91.103      112.643       60.229     8299.818    12688.373     3627.570        5.119        1.231      275.008       62.575        0.052      338.011       10.369      859.484
10/08/2013  04:02:00     -151.320      149.401      -28.290       77.478       80.821       51.617     6002.836     6532.001     2664.290        3.061        0.760      212.646       48.009        0.051      337.934       10.242      859.485
10/08/2013  04:03:00     -191.607      181.432      -34.189       76.453      112.663       53.710     5845.112    12692.971     2884.769        4.611        1.071      263.877       57.024        0.047      337.919       10.215      859.479
10/08/2013  04:04:00     -133.011      203.036      -34.554       81.789       70.697       52.080     6689.486     4998.035     2712.359        3.725        0.720      242.725       54.064        0.050      337.877       10.144      859.492
10/08/2013  04:05:00     -172.596      195.832      -39.722       71.238       97.313       44.275     5074.787     9469.795     1960.293        4.311        0.825      261.036       42.300        0.026      337.864       10.122      859.493
10/08/2013  04:06:00     -145.070      161.639      -28.132       72.132       94.457       49.965     5202.999     8922.212     2496.506        3.229        0.831      217.192       55.375        0.065      337.830       10.066      859.490
10/08/2013  04:07:00     -150.710      235.734      -37.735       76.713       74.775       49.641     5884.882     5591.256     2464.224        4.682        0.697      279.793       39.549        0.020      337.782        9.984      859.506
10/08/2013  04:08:00     -130.067      103.477       -9.144       60.308       72.553       40.818     3637.109     5263.921     1666.084        1.914        0.528      166.207       40.629        0.060      337.777        9.979      859.519
10/08/2013  04:09:00     -168.333      153.672      -42.260       89.076       64.612       38.629     7934.450     4174.700     1492.200        3.367        0.680      227.928       42.303        0.034      337.750        9.934      859.502
10/08/2013  04:10:00      -98.450       87.204      -20.505       36.366       43.461       24.428     1322.515     1888.821      596.737        1.076        0.190      131.518       17.534        0.018      337.743        9.923      859.526
10/08/2013  04:11:00      -92.425       38.093      -10.790       38.795       56.130       24.628     1505.074     3150.596      606.561        0.769        0.263       99.968       19.027        0.036      337.765        9.959      859.532
10/08/2013  04:12:00      -14.374        0.333        0.060       33.458       53.387       24.261     1119.467     2850.149      588.616        0.238        0.228       14.378       26.160        3.310      337.759        9.951      859.537
10/08/2013  04:13:00      -73.303      -20.981        4.350       57.720       51.921       30.658     3331.633     2695.808      939.893        0.640        0.348       76.247       27.965        0.135      337.751        9.935      859.551
10/08/2013  04:14:00      -71.972        6.814       -9.931       37.368       38.709       21.971     1396.367     1498.414      482.735        0.435        0.169       72.294       18.937        0.069      337.730        9.902      859.577
10/08/2013  04:15:00      -40.846      -53.536        2.298       58.988       35.865       30.805     3479.596     1286.272      948.955        0.513        0.286       67.339       28.644        0.181      337.722        9.888      859.591
10/08/2013  04:16:00      -53.279      -31.413        6.907       50.944       39.513       23.490     2595.327     1561.305      551.793        0.429        0.235       61.850       24.642        0.159      337.712        9.870      859.601
10/08/2013  04:17:00     -157.295      -17.848       -8.260       72.431       80.954       33.348     5246.286     6553.569     1112.089        1.902        0.646      158.304       42.341        0.072      337.718        9.880      859.603
10/08/2013  04:18:00     -115.847       22.591      -12.917       33.767       29.383       24.321     1140.217      863.381      591.532        0.835        0.130      118.030       20.851        0.031      337.686        9.828      859.611
10/08/2013  04:19:00     -133.966       16.866      -11.963       54.882       45.738       22.661     3011.999     2091.978      513.508        1.199        0.281      135.023       15.440        0.013      337.627        9.729      859.634
10/08/2013  04:20:00     -198.032      -19.233      -31.275       68.598       81.593       37.335     4705.745     6657.338     1393.885        2.666        0.638      198.963       35.013        0.031      337.676        9.809      859.628
10/08/2013  04:21:00      -97.732        2.317       -1.906       67.212       64.639       40.353     4517.436     4178.251     1628.394        0.994        0.516       97.760       27.679        0.080      337.624        9.724      859.618
10/08/2013  04:22:00     -122.894       22.624       -5.179       65.374       63.345       29.369     4273.768     4012.568      862.560        1.239        0.457      124.959       18.508        0.022      337.534        9.571      859.624
10/08/2013  04:23:00      -96.015       -0.211      -10.017       45.510       22.476       20.504     2071.181      505.162      420.429        0.616        0.150       96.016       21.018        0.048      337.514        9.537      859.634
10/08/2013  04:24:00      -33.807       14.525        1.832       47.338       60.217       32.102     2240.917     3626.102     1030.549        0.413        0.345       36.795       16.855        0.210      337.493        9.503      859.631
10/08/2013  04:25:00      -57.754       54.745       -2.198       57.368      108.005       43.090     3291.085    11665.002     1856.789        1.157        0.841       79.578       40.945        0.265      337.569        9.632      859.623
10/08/2013  04:26:00      -15.335      -14.969        8.043       51.093       47.016       27.117     2610.450     2210.488      735.327        0.304        0.278       21.430       26.828        1.567      337.479        9.481      859.607
10/08/2013  04:27:00      -72.154      -11.569        1.188       64.003       40.672       30.696     4096.434     1654.246      942.234        0.602        0.335       73.075       27.821        0.145      337.541        9.584      859.614
10/08/2013  04:28:00     -149.832       21.373      -23.753       58.310       80.421       31.872     3400.111     6467.523     1015.824        1.717        0.544      151.349       28.857        0.036      337.607        9.696      859.624
10/08/2013  04:29:00      -69.521       26.835      -10.927       62.189       51.117       51.942     3867.490     2612.962     2697.956        0.742        0.459       74.521       29.115        0.153      337.525        9.557      859.627
10/08/2013  04:30:00      -40.627        0.662       -1.019       45.798       41.744       25.114     2097.421     1742.583      630.737        0.306        0.224       40.633       18.386        0.205      337.532        9.568      859.640
10/08/2013  04:31:00      -41.327      -54.536        0.585       35.133       39.291       24.604     1234.313     1543.788      605.343        0.403        0.169       68.426       13.750        0.040      337.594        9.673      859.648
10/08/2013  04:32:00       16.554       43.530        7.800       50.899       90.228       27.516     2590.741     8141.060      757.104        0.686        0.574       46.572       19.618        0.177      337.564        9.624      859.656
10/08/2013  04:33:00      -19.791       61.146       -2.434       47.123       62.602       31.862     2220.600     3918.999     1015.189        0.564        0.358       64.269       24.178        0.142      337.517        9.544      859.663
10/08/2013  04:34:00      -29.715      102.323       -0.196       47.860       63.212       35.709     2290.576     3995.726     1275.133        0.946        0.378      106.551       21.159        0.039      337.461        9.451      859.701
10/08/2013  04:35:00      -89.852      127.183      -23.207       59.329       66.409       32.052     3519.882     4410.199     1027.301        1.687        0.448      155.721       30.394        0.038      337.501        9.516      859.721
10/08/2013  04:36:00     -145.915      153.307      -35.786       70.822       70.833       39.375     5015.688     5017.273     1550.415        2.883        0.579      211.647       41.177        0.038      337.491        9.498      859.740
10/08/2013  04:37:00      -25.665      120.989       -5.618       61.570       74.285       38.164     3790.805     5518.320     1456.499        1.304        0.538      123.681       40.431        0.107      337.455        9.440      859.751
10/08/2013  04:38:00      -58.854      135.789       -6.605       55.645       79.503       40.114     3096.321     6320.661     1609.135        1.648        0.551      147.995       41.187        0.077      337.424        9.387      859.767
10/08/2013  04:39:00      -79.940      113.241      -18.864       46.686       61.806       31.208     2179.583     3819.969      973.928        1.327        0.349      138.614       22.873        0.027      337.503        9.520      859.777
10/08/2013  04:40:00      -40.040      100.603      -11.148       43.657       57.851       31.763     1905.954     3346.693     1008.887        0.905        0.313      108.278       19.157        0.031      337.425        9.390      859.790
10/08/2013  04:41:00      -80.894       92.534       -0.846       64.724      106.111       48.562     4189.193    11259.498     2358.289        1.645        0.890      122.908       39.599        0.104      337.428        9.394      859.791
10/08/2013  04:42:00     -124.921      216.604      -28.286       73.396       81.121       43.857     5386.938     6580.586     1923.451        3.860        0.695      250.045       37.662        0.023      337.416        9.372      859.794
10/08/2013  04:43:00     -129.140      214.193      -38.474       71.372       77.842       49.148     5093.942     6059.402     2415.481        3.880        0.678      250.112       49.488        0.039      337.407        9.356      859.814
10/08/2013  04:44:00      -86.738      156.720       -6.193       60.554       94.998       47.005     3666.832     9024.685     2209.490        2.351        0.745      179.122       38.254        0.046      337.438        9.411      859.832
10/08/2013  04:45:00     -132.609      183.168      -38.528       71.035       50.934       34.805     5045.956     2594.230     1211.378        3.073        0.443      226.132       38.529        0.029      337.457        9.442      859.845
10/08/2013  04:46:00      -95.759      190.634      -33.311       79.924       80.736       47.627     6387.777     6518.366     2268.321        3.089        0.759      213.333       54.642        0.066      337.419        9.379      859.857
10/08/2013  04:47:00      -63.598      225.287      -25.831       43.729       45.077       29.649     1912.246     2031.973      879.089        3.014        0.241      234.091       13.428        0.003      337.425        9.388      859.870
10/08/2013  04:48:00      -96.866      203.874      -20.523       73.868       62.644       38.168     5456.444     3924.260     1456.825        3.110        0.542      225.715       41.569        0.034      337.423        9.382      859.890
10/08/2013  04:49:00      -91.902      194.561      -27.889       56.157       66.305       31.201     3153.618     4396.418      973.527        2.780        0.426      215.174       22.135        0.011      337.411        9.363      859.916
10/08/2013  04:50:00      -81.972      146.054      -19.940       49.583       73.850       38.193     2458.425     5453.886     1458.672        1.891        0.469      167.485       35.100        0.044      337.427        9.393      859.926
10/08/2013  04:51:00     -102.420      132.855      -15.340       65.995       67.701       34.870     4355.301     4583.401     1215.909        1.926        0.508      167.751       30.529        0.033      337.395        9.339      859.928
10/08/2013  04:52:00     -183.138      161.007      -28.034       69.745       77.508       48.993     4864.380     6007.520     2400.306        3.676        0.664      243.850       50.296        0.043      337.378        9.309      859.934
10/08/2013  04:53:00     -170.201      171.883      -41.037       65.675       63.951       39.447     4313.150     4089.770     1556.086        3.508        0.498      241.893       43.195        0.032      337.379        9.310      859.940
10/08/2013  04:54:00     -170.985      159.968      -46.266       49.276       70.549       32.538     2428.128     4977.199     1058.749        3.271        0.423      234.148       38.735        0.027      337.403        9.350      859.940
10/08/2013  04:55:00     -135.842      182.768      -36.137       73.132       53.192       38.083     5348.353     2829.382     1450.309        3.139        0.481      227.722       39.122        0.030      337.377        9.306      859.950
10/08/2013  04:56:00     -127.082       90.958      -12.720       58.462       63.833       31.372     3417.768     4074.692      984.211        1.653        0.424      156.279       28.040        0.032      337.392        9.334      859.946
10/08/2013  04:57:00     -101.371      118.697      -22.961       40.803       62.946       29.156     1664.919     3962.260      850.099        1.568        0.324      156.093       27.807        0.032      337.387        9.325      859.965
10/08/2013  04:58:00     -113.197      159.380      -20.627       69.460       67.846       40.162     4824.690     4603.038     1612.991        2.484        0.552      195.488       38.596        0.039      337.381        9.316      859.981
10/08/2013  04:59:00      -55.254      143.560      -13.812       41.949       49.204       28.437     1759.706     2421.041      808.644        1.442        0.249      153.826       25.344        0.027      337.380        9.313      859.995
10/08/2013  05:00:00      -92.343      229.228      -23.765       44.166       71.383       34.556     1950.602     5095.542     1194.143        3.494        0.412      247.129       36.300        0.022      337.357        9.273      860.010
10/08/2013  05:01:00     -112.527      213.096      -31.279       46.399       41.789       27.694     2152.825     1746.310      766.977        3.186        0.233      240.982       18.031        0.006      337.343        9.249      860.021
10/08/2013  05:02:00      -85.147      129.774      -17.829       55.737       44.212       29.604     3106.648     1954.700      876.382        1.517        0.297      155.214       29.159        0.035      337.279        9.147      860.036
10/08/2013  05:03:00      -97.486       90.046      -13.244       60.704       55.217       31.404     3685.019     3048.936      986.222        1.275        0.386      132.709       29.148        0.048      337.302        9.184      860.041
10/08/2013  05:04:00     -161.598      170.970      -36.252       61.114       77.313       42.553     3734.949     5977.377     1810.773        3.409        0.576      235.254       37.797        0.026      337.291        9.163      860.051
10/08/2013  05:05:00     -127.099      130.782      -11.623       81.135       78.557       45.726     6582.902     6171.145     2090.872        2.412        0.742      182.368       41.320        0.051      337.214        9.035      860.066
10/08/2013  05:06:00     -149.788      125.465      -28.763       85.968       89.206       40.714     7390.438     7957.779     1657.591        2.800        0.850      195.391       51.078        0.068      337.205        9.021      860.070
10/08/2013  05:07:00     -158.327      185.998      -37.142       82.624       91.019       54.197     6826.691     8284.481     2937.367        3.954        0.902      244.260       56.947        0.054      337.230        9.061      860.078
10/08/2013  05:08:00     -104.449       79.209       -9.485       66.580       66.644       34.956     4432.957     4441.480     1221.914        1.368        0.505      131.087       32.969        0.063      337.221        9.050      860.098
10/08/2013  05:09:00     -206.459      162.431      -37.697       99.316       91.536       50.339     9863.757     8378.756     2533.984        4.560        1.039      262.696       51.930        0.039      337.234        9.067      860.102
10/08/2013  05:10:00     -117.560      201.690      -30.698       57.125       96.766       44.669     3263.272     9363.642     1995.333        3.503        0.731      233.451       42.405        0.033      337.202        9.014      860.100
10/08/2013  05:11:00      -64.652      107.843      -11.361       49.015       60.587       37.690     2402.470     3670.730     1420.512        1.171        0.375      125.738       30.941        0.061      337.168        8.961      860.105
10/08/2013  05:12:00      -74.717      162.698      -21.470       49.957       86.868       37.370     2495.736     7546.018     1396.482        2.197        0.572      179.035       24.253        0.018      337.180        8.978      860.096
10/08/2013  05:13:00     -141.987      187.036      -37.550       60.679       76.310       35.206     3681.954     5823.177     1239.496        3.365        0.537      234.825       37.229        0.025      337.169        8.961      860.078
10/08/2013  05:14:00     -177.206      207.889      -43.198       72.375       87.731       48.667     5238.121     7696.764     2368.507        4.589        0.765      273.167       49.711        0.033      337.155        8.936      860.085
10/08/2013  05:15:00     -142.795      150.361       -8.685      108.481       70.091       55.343    11768.201     4912.738     3062.833        3.141        0.987      207.362       43.915        0.045      337.124        8.882      860.087
10/08/2013  05:16:00     -126.099      154.318      -25.270       84.783      100.648       56.819     7188.182    10130.039     3228.434        3.045        1.027      199.286       54.858        0.076      337.070        8.794      860.083
10/08/2013  05:17:00     -158.512      203.197      -33.191       68.618       87.220       45.051     4708.439     7607.276     2029.626        4.093        0.717      257.711       45.105        0.031      337.042        8.747      860.080
10/08/2013  05:18:00     -178.224      121.893      -35.304       62.069       62.897       35.928     3852.601     3956.071     1290.801        2.848        0.455      215.921       33.409        0.024      337.040        8.743      860.099
10/08/2013  05:19:00     -173.619      125.748      -31.072       64.213       56.955       38.718     4123.361     3243.911     1499.104        2.789        0.443      214.374       31.302        0.021      337.032        8.729      860.104
10/08/2013  05:20:00     -184.916      168.229      -38.514       69.732       83.614       46.929     4862.592     6991.369     2202.310        3.901        0.703      249.990       41.826        0.028      337.018        8.704      860.099
10/08/2013  05:21:00     -176.128      198.217      -42.749       83.387       88.054       50.772     6953.469     7753.514     2577.800        4.471        0.864      265.162       49.488        0.035      337.008        8.687      860.116
10/08/2013  05:22:00     -182.924      176.597      -38.049       99.173      102.384       58.763     9835.221    10482.546     3453.099        4.493        1.189      254.259       70.832        0.078      337.026        8.718      860.123
10/08/2013  05:23:00     -216.601      167.398      -43.860       68.151       93.434       48.877     4644.621     8729.888     2388.949        4.631        0.788      273.749       53.205        0.038      337.027        8.718      860.125
10/08/2013  05:24:00     -198.114      189.058      -26.013      109.927      102.088       58.610    12083.877    10421.977     3435.146        5.080        1.297      273.847       53.408        0.038      336.968        8.622      860.133
10/08/2013  05:25:00     -220.014      206.576      -54.327       76.202       87.589       53.569     5806.726     7671.890     2869.598        5.519        0.817      301.794       49.464        0.027      336.982        8.643      860.139
10/08/2013  05:26:00     -202.098      221.010      -47.789       80.164      105.266       55.622     6426.326    11080.930     3093.795        5.628        1.030      299.481       52.644        0.031      336.955        8.600      860.133
10/08/2013  05:27:00     -189.250      153.652      -38.425       87.816       83.635       47.367     7711.598     6994.842     2243.598        3.892        0.848      243.771       47.164        0.037      336.981        8.643      860.140
10/08/2013  05:28:00     -251.206      151.156      -31.051      111.200       77.781       59.301    12365.354     6049.844     3516.607        5.442        1.097      293.177       60.125        0.042      336.964        8.614      860.139
10/08/2013  05:29:00     -215.676      184.765      -41.543      104.089      102.169       60.891    10834.621    10438.490     3707.713        5.368        1.249      283.997       65.220        0.053      336.968        8.622      860.156
10/08/2013  05:30:00     -219.142      186.091      -49.679       75.098       73.502       52.901     5639.670     5402.573     2798.538        4.948        0.692      287.494       44.441        0.024      336.978        8.637      860.168
10/08/2013  05:31:00     -279.140      162.077      -46.107       99.261       97.570       62.618     9852.800     9519.826     3920.974        6.480        1.165      322.782       62.699        0.038      337.004        8.680      860.161
10/08/2013  05:32:00     -172.352       80.839      -29.591       68.833       75.989       39.151     4737.984     5774.284     1532.806        2.458        0.602      190.368       30.612        0.026      336.969        8.625      860.174
10/08/2013  05:33:00     -126.181      116.274      -21.427       55.741       54.758       37.820     3107.031     2998.431     1430.328        1.872        0.377      171.585       38.190        0.050      336.928        8.557      860.175
10/08/2013  05:34:00     -185.088      203.743      -49.400       67.648       95.084       48.067     4576.305     9040.906     2310.455        4.707        0.796      275.261       39.375        0.020      336.941        8.576      860.188
10/08/2013  05:35:00     -180.748      155.346      -24.845       76.896      102.082       56.425     5912.932    10420.737     3183.786        3.846        0.976      238.332       52.035        0.048      336.929        8.555      860.204
10/08/2013  05:36:00     -160.353      193.688      -24.746       85.831      101.675       49.713     7367.039    10337.825     2471.361        4.200        1.009      251.452       47.887        0.036      336.925        8.549      860.209
10/08/2013  05:37:00     -132.427      152.856      -29.009       62.977       69.322       44.918     3966.072     4805.550     2017.652        2.626        0.539      202.242       39.713        0.039      336.906        8.517      860.240
10/08/2013  05:38:00     -147.075      232.988      -42.688       74.580       74.620       42.258     5562.182     5568.217     1785.768        4.532        0.646      275.526       39.389        0.020      336.927        8.553      860.266
10/08/2013  05:39:00     -126.382      173.695      -26.973       39.683       57.748       24.840     1574.726     3334.860      617.046        2.620        0.276      214.808       19.608        0.008      336.925        8.551      860.283
10/08/2013  05:40:00     -129.411      202.411      -36.495       54.849       60.896       38.693     3008.465     3708.323     1497.121        3.363        0.411      240.245       33.604        0.020      336.861        8.443      860.305
10/08/2013  05:41:00     -129.970      171.955      -39.660       57.899       54.653       34.301     3352.344     2986.959     1176.566        2.777        0.376      215.547       35.533        0.027      336.879        8.473      860.337
10/08/2013  05:42:00     -121.484      117.212      -32.472       56.999       40.729       30.245     3248.938     1658.886      914.769        1.769        0.291      168.811       30.959        0.034      336.833        8.398      860.361
10/08/2013  05:43:00      -95.820      136.184      -20.136       60.077       68.511       31.558     3609.253     4693.805      995.917        1.871        0.465      166.516       37.248        0.050      336.805        8.351      860.376
10/08/2013  05:44:00      -39.918      160.817      -16.377       39.041       53.966       25.514     1524.232     2912.362      650.979        1.640        0.254      165.697       21.400        0.017      336.811        8.364      860.384
10/08/2013  05:45:00      -61.330      102.217      -17.912       49.047       42.864       21.660     2405.638     1837.324      469.172        0.962        0.236      119.205       20.052        0.028      336.855        8.436      860.390
10/08/2013  05:46:00      -96.628       82.131      -20.199       56.954       61.005       32.915     3243.750     3721.558     1083.396        1.227        0.402      126.817       31.418        0.061      336.828        8.391      860.389
10/08/2013  05:47:00     -134.812      116.942      -22.452       63.478       52.945       35.136     4029.454     2803.222     1234.509        2.021        0.403      178.465       29.700        0.028      336.854        8.434      860.390
10/08/2013  05:48:00     -137.505      126.293      -20.895       79.975       84.287       48.740     6395.958     7104.322     2375.545        2.558        0.794      186.702       44.267        0.056      336.928        8.556      860.394
10/08/2013  05:49:00     -143.625      154.502      -35.024       62.626       59.958       36.262     3922.056     3594.912     1314.910        2.728        0.442      210.947       30.590        0.021      336.874        8.464      860.410
10/08/2013  05:50:00     -122.222      124.636      -29.305       79.637       61.620       41.460     6342.016     3797.038     1718.902        2.159        0.593      174.564       44.587        0.065      336.857        8.437      860.400
10/08/2013  05:51:00     -183.450      133.335      -27.333       81.272       75.478       46.281     6605.092     5696.929     2141.929        3.331        0.722      226.787       40.146        0.031      336.851        8.427      860.360
10/08/2013  05:52:00     -111.949       29.707        5.114       82.007       51.283       29.241     6725.085     2629.997      855.042        1.182        0.511      115.823       30.204        0.068      336.851        8.430      860.334
10/08/2013  05:53:00     -156.828       19.946       -9.708       41.736       56.701       28.578     1741.891     3215.056      816.718        1.543        0.289      158.091       13.118        0.007      336.861        8.445      860.324
10/08/2013  05:54:00     -245.546       31.291      -27.694       78.034       93.028       38.601     6089.241     8654.120     1490.054        3.913        0.812      247.532       40.483        0.027      336.887        8.487      860.306
10/08/2013  05:55:00     -175.205       31.909      -26.943       78.209       63.153       40.261     6116.713     3988.311     1620.946        2.208        0.586      178.087       35.357        0.039      336.901        8.512      860.306
10/08/2013  05:56:00      -58.692       -7.737       -8.786       37.213       58.125       24.416     1384.837     3378.484      596.118        0.447        0.268       59.199       10.512        0.032      336.899        8.509      860.312
10/08/2013  05:57:00     -103.743       27.766      -18.654       63.684       69.502       35.102     4055.628     4830.573     1232.157        1.100        0.506      107.394       36.786        0.117      336.895        8.503      860.338
10/08/2013  05:58:00     -140.933       70.652      -17.125       74.089       61.779       28.255     5489.208     3816.619      798.331        1.762        0.505      157.651       17.057        0.012      336.872        8.462      860.356
10/08/2013  05:59:00     -122.524       73.659      -22.815       72.529       69.233       41.121     5260.443     4793.166     1690.965        1.635        0.587      142.961       43.735        0.094      336.885        8.484      860.392
10/08/2013  06:00:00      -74.040       63.928      -12.140       52.772       57.787       31.087     2784.919     3339.346      966.413        0.840        0.355       97.820       27.392        0.078      336.917        8.539      860.409
10/08/2013  06:01:00     -111.124      119.992      -26.202       64.001       70.211       42.516     4096.079     4929.528     1807.625        1.913        0.542      163.544       41.547        0.065      336.863        8.448      860.435
10/08/2013  06:02:00      -63.649      142.665      -18.567       35.247       42.900       25.710     1242.369     1840.432      661.016        1.425        0.187      156.219       15.920        0.010      336.870        8.460      860.448
10/08/2013  06:03:00     -136.147      131.389      -34.134       52.197       54.488       27.808     2724.533     2968.942      773.308        2.171        0.323      189.207       26.935        0.020      336.874        8.466      860.467
10/08/2013  06:04:00      -74.356      107.304      -13.683       39.727       43.135       24.896     1578.217     1860.590      619.821        1.064        0.203      130.549       19.387        0.022      336.847        8.422      860.485
10/08/2013  06:05:00     -142.067       92.371      -19.193       71.874       74.418       39.107     5165.807     5538.026     1529.347        2.066        0.612      169.456       42.947        0.064      336.892        8.495      860.498
10/08/2013  06:06:00     -128.072       61.152      -17.417       69.750       42.641       35.904     4865.090     1818.223     1289.073        1.421        0.399      141.922       36.503        0.066      336.897        8.504      860.496
10/08/2013  06:07:00     -102.705       87.224      -13.192       47.410       54.910       35.889     2247.747     3015.100     1288.047        1.244        0.328      134.745       31.338        0.054      336.844        8.419      860.502
10/08/2013  06:08:00     -100.119       90.681      -23.983       32.293       31.543       26.819     1042.821      994.971      719.248        1.079        0.138      135.081       17.395        0.017      336.918        8.541      860.506
10/08/2013  06:09:00      -88.342       75.055      -19.281       23.209       42.061       19.094      538.676     1769.149      364.592        0.824        0.134      115.921       19.407        0.028      336.860        8.446      860.512
10/08/2013  06:10:00      -96.790       60.963      -23.456       28.620       38.561       17.725      819.113     1486.926      314.165        0.813        0.131      114.388       20.247        0.031      336.881        8.480      860.516
10/08/2013  06:11:00      -86.873      116.417      -21.033       37.101       39.389       27.254     1376.447     1551.495      742.806        1.261        0.184      145.258       21.719        0.022      336.848        8.426      860.534
10/08/2013  06:12:00      -79.131      120.909      -14.531       40.868       55.641       29.102     1670.178     3095.962      846.933        1.335        0.281      144.501       26.674        0.034      336.878        8.474      860.555
10/08/2013  06:13:00      -80.703      159.439      -29.920       44.565       54.195       28.046     1986.006     2937.064      786.590        1.927        0.285      178.701       26.928        0.023      336.874        8.467      860.563
10/08/2013  06:14:00      -50.787      102.459      -10.374       34.789       58.506       25.855     1210.300     3422.916      668.459        0.924        0.265      114.355       27.868        0.059      336.891        8.497      860.573
10/08/2013  06:15:00      -58.766      155.614      -15.463       46.649       64.038       30.003     2176.159     4100.833      900.160        1.754        0.359      166.341       34.368        0.043      336.875        8.469      860.573
10/08/2013  06:16:00      -72.894      127.709      -20.474       67.834       43.725       32.111     4601.415     1911.872     1031.140        1.479        0.377      147.048       23.564        0.026      336.898        8.509      860.566
10/08/2013  06:17:00     -122.435      116.353      -22.681       48.415       45.132       31.605     2343.978     2036.890      998.878        1.721        0.269      168.903       27.054        0.026      336.837        8.405      860.553
10/08/2013  06:18:00      -36.704       77.206       -7.572       41.996       45.804       22.161     1763.626     2098.041      491.127        0.586        0.218       85.487       20.933        0.060      336.840        8.410      860.539
10/08/2013  06:19:00     -129.358      146.437      -33.203       54.758       62.375       28.712     2998.429     3890.602      824.406        2.349        0.386      195.390       21.620        0.012      336.790        8.326      860.532
10/08/2013  06:20:00     -100.656      120.727      -27.567       38.529       43.370       32.291     1484.455     1880.955     1042.703        1.494        0.220      157.183       26.026        0.027      336.701        8.180      860.524
10/08/2013  06:21:00      -85.628       87.347      -15.620       47.209       35.044       26.980     2228.707     1228.059      727.903        0.969        0.209      122.318       21.116        0.030      336.686        8.155      860.519
10/08/2013  06:22:00      -90.039      121.997      -14.527       57.534       61.690       33.590     3310.189     3805.605     1128.295        1.572        0.412      151.625       34.157        0.051      336.696        8.171      860.517
10/08/2013  06:23:00      -75.967       80.231       -9.649       33.713       41.461       23.819     1136.565     1719.050      567.353        0.786        0.171      110.490       18.627        0.028      336.747        8.257      860.514
10/08/2013  06:24:00     -136.217      144.169      -31.949       48.773       74.953       31.569     2378.777     5617.900      996.585        2.468        0.450      198.343       32.957        0.028      336.719        8.209      860.505
10/08/2013  06:25:00     -120.186      146.084      -26.635       43.292       47.191       33.477     1874.227     2227.037     1120.711        2.086        0.261      189.170       24.966        0.017      336.676        8.137      860.494
10/08/2013  06:26:00     -113.745      143.388      -29.545       46.114       57.751       33.523     2126.468     3335.203     1123.765        2.048        0.329      183.025       32.794        0.032      336.694        8.167      860.477
10/08/2013  06:27:00     -117.246      111.736      -20.562       48.837       51.247       27.067     2385.043     2626.267      732.599        1.620        0.287      161.962       25.222        0.024      336.727        8.221      860.465
10/08/2013  06:28:00      -96.221      100.206      -12.444       54.820       52.063       33.524     3005.194     2710.557     1123.831        1.315        0.342      138.923       25.702        0.034      336.667        8.123      860.450
10/08/2013  06:29:00     -100.016      119.785      -21.102       45.111       50.326       29.073     2035.029     2532.665      845.218        1.510        0.271      156.050       23.685        0.023      336.697        8.174      860.443
10/08/2013  06:30:00      -95.388      112.854      -11.699       76.098       72.280       49.749     5790.954     5224.356     2474.941        1.773        0.675      147.766       45.945        0.097      336.692        8.164      860.440
10/08/2013  06:31:00      -57.333       77.004       -9.995       37.128       49.124       30.684     1378.460     2413.131      941.488        0.702        0.237       96.004       19.881        0.043      336.693        8.167      860.449
10/08/2013  06:32:00     -108.866       29.963      -12.567       30.675       26.108       23.892      940.968      681.630      570.833        0.755        0.110      112.914       13.186        0.014      336.684        8.154      860.443
10/08/2013  06:33:00     -101.223      117.837      -26.574       53.898       54.139       29.660     2905.042     2931.077      879.731        1.578        0.336      155.344       31.302        0.041      336.665        8.119      860.438
10/08/2013  06:34:00     -137.218       75.649      -24.192       60.473       52.197       30.637     3657.019     2724.507      938.603        1.623        0.366      156.690       26.294        0.028      336.661        8.113      860.430
10/08/2013  06:35:00     -120.850      137.105      -28.041       47.556       47.060       31.181     2261.551     2214.620      972.232        1.982        0.272      182.763       29.388        0.026      336.606        8.021      860.428
10/08/2013  06:36:00     -146.173      150.615      -30.586       56.391       63.691       36.510     3179.973     4056.586     1332.981        2.678        0.428      209.885       37.164        0.031      336.681        8.146      860.436
10/08/2013  06:37:00     -149.969      132.562      -36.204       63.590       65.424       31.330     4043.689     4280.254      981.594        2.534        0.465      200.159       39.674        0.039      336.670        8.126      860.446
10/08/2013  06:38:00     -115.717      125.602      -20.587       55.469       78.636       41.149     3076.843     6183.667     1693.199        2.027        0.548      170.781       35.064        0.042      336.654        8.101      860.449
10/08/2013  06:39:00     -115.515      181.718      -25.761       47.739       45.527       35.189     2279.016     2072.723     1238.297        2.631        0.280      215.325       26.880        0.016      336.655        8.100      860.448
10/08/2013  06:40:00     -102.861      134.417      -27.426       47.613       68.816       24.850     2267.006     4735.601      617.514        1.851        0.381      169.258       20.835        0.015      336.699        8.176      860.456
10/08/2013  06:41:00     -108.230      133.682      -27.393       44.463       45.149       31.206     1976.998     2038.437      973.842        1.766        0.249      172.001       28.718        0.028      336.641        8.079      860.456
10/08/2013  06:42:00      -88.763      156.512      -27.164       48.563       55.935       35.882     2358.354     3128.771     1287.498        1.994        0.339      179.930       35.747        0.039      336.642        8.080      860.463
10/08/2013  06:43:00     -106.598      153.095      -21.637       38.485       58.207       25.963     1481.094     3388.099      674.055        2.041        0.277      186.551       25.745        0.019      336.620        8.042      860.467
10/08/2013  06:44:00      -46.821      136.167      -27.562       49.229       32.239       20.260     2423.515     1039.345      410.456        1.268        0.194      143.991       12.506        0.008      336.691        8.165      860.478
10/08/2013  06:45:00      -29.217       92.072      -10.498       23.056       52.887       19.308      531.559     2797.008      372.796        0.657        0.185       96.596       21.973        0.052      336.635        8.070      860.486
10/08/2013  06:46:00      -67.134      152.739      -21.761       37.736       51.357       22.823     1424.031     2637.503      520.893        1.645        0.229      166.842       22.846        0.019      336.570        7.960      860.488
10/08/2013  06:47:00      -66.629      104.220       -3.944       65.640       39.563       34.795     4308.650     1565.233     1210.671        1.120        0.354      123.698       24.527        0.039      336.553        7.934      860.484
10/08/2013  06:48:00      -86.153       80.722      -18.963       39.122       33.058       26.719     1530.500     1092.815      713.922        0.882        0.167      118.061       18.892        0.026      336.520        7.878      860.477
10/08/2013  06:49:00      -62.676       79.983      -12.922       33.507       38.906       23.918     1122.711     1513.640      572.072        0.685        0.160      101.615       18.442        0.033      336.516        7.871      860.473
10/08/2013  06:50:00      -59.907       71.280       -9.835       46.202       46.008       23.403     2134.662     2116.707      547.707        0.678        0.240       93.111       22.742        0.060      336.497        7.839      860.472
10/08/2013  06:51:00      -57.166       29.937       -7.322       36.438       48.246       21.195     1327.725     2327.678      449.221        0.416        0.205       64.531       23.789        0.136      336.494        7.834      860.487
10/08/2013  06:52:00      -95.882       28.358      -10.998       46.171       46.788       15.884     2131.802     2189.078      252.294        0.734        0.229       99.987       14.499        0.021      336.448        7.757      860.495
10/08/2013  06:53:00     -105.049       40.207      -15.572       51.823       28.223       22.714     2685.642      796.542      515.912        0.845        0.200      112.481       13.096        0.014      336.415        7.700      860.504
10/08/2013  06:54:00      -90.697       37.080      -20.051       26.199       24.205       21.419      686.387      585.859      458.793        0.587        0.087       97.984       12.241        0.016      336.473        7.797      860.526
10/08/2013  06:55:00      -81.773       14.010      -10.994       40.810       47.715       20.043     1665.464     2276.680      401.730        0.567        0.217       82.965       22.737        0.075      336.409        7.691      860.547
10/08/2013  06:56:00      -78.258       31.156       -6.405       53.834       55.595       27.219     2898.054     3090.828      740.865        0.693        0.336       84.231       24.803        0.087      336.411        7.694      860.565
10/08/2013  06:57:00      -41.879        3.064       -1.293       54.250       21.498       21.710     2943.017      462.171      471.305        0.282        0.194       41.991       26.249        0.391      336.377        7.637      860.590
10/08/2013  06:58:00      -14.151       25.317        5.695       21.113       31.233       17.171      445.767      975.502      294.853        0.129        0.086       29.004       10.686        0.136      336.288        7.489      860.599
10/08/2013  06:59:00      -30.399      -33.553        3.123       27.718       16.736       20.797      768.302      280.105      432.529        0.177        0.074       45.276       14.113        0.097      336.244        7.416      860.604
10/08/2013  07:00:00      -12.954      -31.867        2.235       32.242       13.468       13.396     1039.555      181.396      179.465        0.129        0.070       34.399        2.609        0.006      336.289        7.492      860.596
10/08/2013  07:01:00      -33.106      -10.239      -13.783       39.598       33.535       15.898     1567.963     1124.591      252.741        0.217        0.147       34.654       14.791        0.182      336.196        7.335      860.584
10/08/2013  07:02:00      -12.615      -29.890        8.733       26.328       22.653       17.912      693.152      513.140      320.837        0.133        0.076       32.443       10.137        0.098      335.992        6.994      860.588
10/08/2013  07:03:00      -96.604      -46.630       -8.551       30.882       22.041       16.116      953.677      485.812      259.727        0.664        0.085      107.269       13.762        0.016      336.019        7.038      860.590
10/08/2013  07:04:00      -49.690      -48.140       14.909       59.147       32.007       26.733     3498.345     1024.464      714.640        0.512        0.262       69.185       26.706        0.149      335.922        6.878      860.595
10/08/2013  07:05:00     -133.409      -87.644      -14.448       36.646       39.942       22.757     1342.905     1595.342      517.896        1.457        0.173      159.622       22.348        0.020      335.860        6.774      860.604
10/08/2013  07:06:00      -53.121      -52.566       12.111       63.671       36.665       29.979     4054.041     1344.326      898.768        0.601        0.315       74.733       36.322        0.236      335.790        6.658      860.591
10/08/2013  07:07:00      -65.680      -67.332        3.396       52.550       33.935       24.008     2761.549     1151.602      576.386        0.667        0.224       94.060       23.673        0.063      335.769        6.623      860.591
10/08/2013  07:08:00      -74.905      -69.852        1.669       44.576       31.001       24.882     1987.002      961.047      619.122        0.703        0.178      102.421       23.370        0.052      335.808        6.688      860.575
10/08/2013  07:09:00     -116.508      -74.037       -8.527       19.383       32.984       16.343      375.683     1087.944      267.103        1.043        0.087      138.041       11.223        0.007      335.764        6.614      860.562
10/08/2013  07:10:00      -77.489      -49.126        4.224       31.328       33.939       20.944      981.460     1151.854      438.638        0.550        0.129       91.749       24.608        0.072      335.766        6.618      860.547
10/08/2013  07:11:00      -56.551      -33.420        8.888       42.216       26.670       21.951     1782.161      711.291      481.826        0.368        0.149       65.688       24.339        0.137      335.783        6.646      860.536
10/08/2013  07:12:00      -96.754      -47.500       -6.932       34.138       18.964       15.401     1165.397      359.644      237.203        0.671        0.088      107.785       14.408        0.018      335.778        6.641      860.542
10/08/2013  07:13:00      -90.224      -47.811        6.425       35.630       37.398       22.500     1269.508     1398.573      506.249        0.682        0.159      102.109       21.700        0.045      335.773        6.629      860.556
10/08/2013  07:14:00      -59.028      -72.753       -2.333       36.280       29.215       18.299     1316.265      853.517      334.847        0.564        0.125       93.687       15.191        0.026      335.854        6.766      860.560
10/08/2013  07:15:00      -80.712      -41.848       -0.436       32.967       21.072       19.787     1086.798      444.020      391.544        0.509        0.096       90.916       17.747        0.038      335.824        6.716      860.563
10/08/2013  07:16:00      -72.059      -42.048        5.987       41.808       34.172       24.688     1747.886     1167.749      609.483        0.526        0.176       83.430       26.754        0.103      335.825        6.717      860.573
10/08/2013  07:17:00      -76.627      -35.523        4.736       41.909       23.943       16.480     1756.387      573.265      271.591        0.488        0.130       84.460       20.772        0.060      335.792        6.661      860.581
10/08/2013  07:18:00      -49.541      -27.647        5.956       41.640       27.067       18.135     1733.927      732.625      328.893        0.302        0.140       56.733       18.881        0.111      335.856        6.767      860.583
10/08/2013  07:19:00      -60.327      -68.698       -2.113       42.379       26.268       19.899     1796.015      689.994      395.951        0.562        0.144       91.426       23.707        0.067      335.857        6.772      860.585
10/08/2013  07:20:00      -65.674     -102.379        0.761       37.650       28.154       27.043     1417.521      792.655      731.309        0.887        0.147      121.633       25.081        0.043      335.832        6.730      860.593
10/08/2013  07:21:00      -60.904      -74.451        1.080       36.919       34.037       25.633     1363.009     1158.519      657.038        0.622        0.159       96.189       24.625        0.066      335.846        6.751      860.600
10/08/2013  07:22:00      -79.017      -49.275        7.064       54.278       32.466       21.176     2946.152     1054.020      448.414        0.658        0.222       93.122       26.335        0.080      335.773        6.631      860.609
10/08/2013  07:23:00      -18.464      -97.923        5.963       29.509       61.730       24.697      870.806     3810.634      609.961        0.763        0.265       99.648       28.063        0.079      335.657        6.437      860.607
10/08/2013  07:24:00      -28.103      -85.537        1.457       30.827       43.541       24.785      950.298     1895.862      614.286        0.578        0.173       90.036       17.200        0.036      335.690        6.492      860.605
10/08/2013  07:25:00      -21.519      -42.804        4.589       29.837       22.462       22.387      890.275      504.523      501.180        0.211        0.095       47.909       10.889        0.052      335.777        6.638      860.605
10/08/2013  07:26:00      -81.029      -73.218        1.164       40.813       38.286       23.970     1665.661     1465.831      574.562        0.782        0.185      109.209       23.266        0.045      335.664        6.449      860.614
10/08/2013  07:27:00      -99.127     -100.841       -4.089       26.547       33.031       21.259      704.734     1091.015      451.961        1.113        0.112      141.404       19.060        0.018      335.610        6.359      860.627
10/08/2013  07:28:00      -76.690      -85.294       -2.505       40.266       35.577       17.435     1621.317     1265.728      303.995        0.818        0.160      114.702       15.724        0.019      335.575        6.299      860.636
10/08/2013  07:29:00      -36.259      -43.095       11.858       57.647       44.259       30.597     3323.137     1958.851      936.202        0.476        0.311       56.320       35.210        0.391      335.679        6.473      860.642
10/08/2013  07:30:00      -75.876      -38.105        0.177       48.817       29.921       21.281     2383.096      895.244      452.879        0.547        0.187       84.907       24.909        0.086      335.610        6.357      860.664
10/08/2013  07:31:00      -94.499      -23.962        0.892       52.516       31.240       19.717     2757.950      975.913      388.756        0.681        0.206       97.490       23.922        0.060      335.624        6.383      860.689
10/08/2013  07:32:00      -84.978      -51.069       -2.027       47.208       30.699       25.516     2228.578      942.417      651.083        0.683        0.191       99.143       25.428        0.066      335.583        6.313      860.707
10/08/2013  07:33:00      -66.817      -83.624       -2.073       57.843       44.399       30.327     3345.825     1971.269      919.717        0.885        0.312      107.040       31.600        0.087      335.553        6.262      860.708
10/08/2013  07:34:00      -73.961      -22.136        9.458       69.253       38.052       30.197     4795.961     1447.990      911.875        0.660        0.358       77.203       41.422        0.288      335.542        6.246      860.715
10/08/2013  07:35:00      -85.687      -16.902        1.761       43.629       37.090       25.782     1903.493     1375.648      664.688        0.579        0.197       87.338       22.726        0.068      335.559        6.274      860.723
10/08/2013  07:36:00     -103.718      -29.844      -14.332       32.813       22.514       16.691     1076.692      506.885      278.588        0.686        0.093      107.926       10.028        0.009      335.633        6.397      860.711
10/08/2013  07:37:00      -74.121      -51.248       -3.150       41.552       33.705       27.685     1726.580     1136.017      766.468        0.588        0.181       90.112       25.307        0.079      335.604        6.348      860.693
10/08/2013  07:38:00     -136.339      -44.008       -1.896       49.501       30.862       27.359     2450.328      952.454      748.523        1.234        0.208      143.266       28.086        0.038      335.579        6.307      860.688
10/08/2013  07:39:00     -150.537      -29.808       -5.916       40.194       33.287       21.939     1615.589     1108.047      481.338        1.339        0.160      153.460       18.099        0.014      335.653        6.430      860.673
10/08/2013  07:40:00     -105.948      -27.994        0.337       62.988       37.710       21.206     3967.536     1422.066      449.698        0.892        0.292      109.584       26.443        0.058      335.708        6.523      860.661
10/08/2013  07:41:00      -75.400      -32.165       -0.130       47.279       30.837       23.473     2235.317      950.922      550.969        0.523        0.187       81.974       23.119        0.080      335.768        6.621      860.662
10/08/2013  07:42:00      -56.431      -10.379        0.532       51.077       36.955       25.508     2608.836     1365.688      650.670        0.396        0.231       57.378       26.589        0.215      335.838        6.739      860.658
10/08/2013  07:43:00      -52.577       -9.740        2.684       23.092       19.716       14.153      533.229      388.729      200.320        0.199        0.056       53.472       15.746        0.087      335.835        6.733      860.676
10/08/2013  07:44:00      -52.398      -17.046       -8.030       37.193       19.615       18.543     1383.303      384.739      343.852        0.261        0.106       55.101       11.581        0.044      335.898        6.837      860.702
10/08/2013  07:45:00      -40.102      -20.328       -7.272       26.529       15.352       13.001      703.764      235.674      169.028        0.159        0.055       44.960       14.494        0.104      335.958        6.937      860.727
10/08/2013  07:46:00      -53.535      -33.569        0.949       23.911       30.156       12.614      571.724      909.409      159.109        0.282        0.082       63.189        8.951        0.020      335.981        6.976      860.746
10/08/2013  07:47:00      -63.418      -34.762      -12.312       24.983       27.717       16.217      624.163      768.257      262.997        0.352        0.083       72.321        8.824        0.015      336.071        7.126      860.751
10/08/2013  07:48:00      -75.259      -24.665       -5.631       22.043       23.700       17.711      485.874      561.695      313.684        0.383        0.068       79.198       10.820        0.019      336.068        7.120      860.739
10/08/2013  07:49:00      -54.934      -22.935       -3.701       11.346       12.313       10.609      128.723      151.621      112.559        0.198        0.020       59.529        7.506        0.016      336.099        7.172      860.724
10/08/2013  07:50:00      -46.576      -33.844       -1.471       22.328       16.350       15.960      498.552      267.316      254.735        0.217        0.051       57.574       12.148        0.045      336.193        7.330      860.700
10/08/2013  07:51:00      -41.575      -36.533        1.314       29.548       17.501       12.534      873.094      306.294      157.091        0.220        0.067       55.346       11.520        0.043      336.189        7.323      860.693
10/08/2013  07:52:00      -41.951      -26.751       -1.566       25.180       21.445       15.082      634.048      459.895      227.452        0.190        0.066       49.754       11.080        0.050      336.220        7.374      860.689
10/08/2013  07:53:00      -61.712      -53.369        0.006       21.789       23.104       12.909      474.761      533.796      166.645        0.392        0.059       81.588       12.179        0.022      336.199        7.339      860.690
10/08/2013  07:54:00      -60.828      -45.616       -0.339       39.573       35.052       17.451     1566.027     1228.656      304.542        0.444        0.155       76.032       23.346        0.094      336.245        7.417      860.696
10/08/2013  07:55:00      -34.767      -41.568        6.789       36.236       24.536       18.587     1313.052      602.013      345.469        0.262        0.113       54.190       19.405        0.128      336.284        7.481      860.700
10/08/2013  07:56:00      -50.413      -41.679        1.009       29.937       22.252       19.099      896.251      495.133      364.765        0.302        0.088       65.411       18.523        0.080      336.233        7.398      860.710
10/08/2013  07:57:00      -53.667      -38.696        3.761       36.335       21.727       18.671     1320.235      472.068      348.590        0.327        0.107       66.163       21.429        0.105      336.294        7.500      860.715
10/08/2013  07:58:00      -27.579      -21.288        6.268       22.049       17.128       14.967      486.167      293.375      224.000        0.113        0.050       34.839       11.896        0.117      336.390        7.659      860.730
10/08/2013  07:59:00      -44.754      -74.809        1.671       22.964       19.475       17.529      527.341      379.274      307.262        0.441        0.061       87.174       15.386        0.031      336.291        7.495      860.740
10/08/2013  08:00:00      -57.566      -44.503       -5.532       33.106       16.940       14.515     1095.989      286.979      210.689        0.346        0.080       72.763       17.990        0.061      336.349        7.591      860.730
10/08/2013  08:01:00      -50.597      -63.995       -3.202       20.331       37.250       14.835      413.338     1387.564      220.089        0.434        0.101       81.581       17.137        0.044      336.302        7.513      860.717
10/08/2013  08:02:00      -33.506      -58.867       -1.280       23.395       27.216       12.974      547.308      740.709      168.314        0.302        0.073       67.735       11.575        0.029      336.322        7.547      860.707
10/08/2013  08:03:00      -66.716      -41.044      -12.946        9.176       12.868        7.950       84.206      165.598       63.203        0.331        0.016       78.331        5.577        0.005      336.307        7.520      860.696
10/08/2013  08:04:00      -77.978      -31.984      -12.071       15.287       15.864        6.406      233.691      251.660       41.031        0.389        0.026       84.282        4.642        0.003      336.318        7.538      860.693
10/08/2013  08:05:00      -29.650      -15.923        6.531       30.675       17.022       16.896      940.982      289.763      285.484        0.135        0.076       33.655       17.103        0.258      336.532        7.897      860.688
10/08/2013  08:06:00      -35.679      -32.657       -0.445       16.332       39.161       16.578      266.747     1533.549      274.819        0.221        0.104       48.368       13.664        0.080      336.396        7.669      860.684
10/08/2013  08:07:00      -33.541      -42.274        3.762       14.666       19.693       15.139      215.094      387.808      229.190        0.188        0.042       53.963        8.757        0.026      336.378        7.640      860.692
10/08/2013  08:08:00      -31.938      -25.238       -5.721       15.882        8.770        7.861      252.233       76.914       61.795        0.104        0.020       40.706        5.696        0.020      336.417        7.705      860.703
10/08/2013  08:09:00      -45.297      -30.494       -5.087        9.661       12.194        7.310       93.328      148.700       53.436        0.165        0.015       54.605        7.007        0.016      336.459        7.774      860.697
10/08/2013  08:10:00      -38.458      -55.043       -3.922       19.143       13.791       12.049      366.469      190.189      145.190        0.261        0.035       67.147        8.143        0.015      336.394        7.666      860.693
10/08/2013  08:11:00      -25.756      -25.373        8.225       21.174       23.530       13.382      448.355      553.660      179.083        0.128        0.059       36.154       10.404        0.083      336.497        7.837      860.686
10/08/2013  08:12:00      -45.861      -22.104        5.053       31.732       21.931       13.232     1006.926      480.953      175.092        0.214        0.083       50.910       18.143        0.127      336.624        8.051      860.678
10/08/2013  08:13:00      -66.442      -31.765       -2.686       26.226       16.163       12.831      687.789      261.230      164.634        0.327        0.056       73.645       11.582        0.025      336.543        7.917      860.668
10/08/2013  08:14:00      -37.429      -49.239        0.005       31.842       33.626       18.249     1013.920     1130.708      333.037        0.315        0.124       61.850       14.262        0.053      336.621        8.045      860.672
10/08/2013  08:15:00      -58.189      -66.194        0.120       40.824       26.986       24.739     1666.614      728.259      612.023        0.539        0.150       88.134       26.629        0.091      336.535        7.903      860.671
10/08/2013  08:16:00      -51.342      -49.304       -4.557       31.268       22.313       17.059      977.692      497.849      290.998        0.343        0.088       71.183        8.572        0.015      336.493        7.833      860.682
10/08/2013  08:17:00      -40.439      -64.145      -10.838       34.328       22.492       12.835     1178.423      505.908      164.739        0.386        0.092       75.828       10.432        0.019      336.459        7.775      860.699
10/08/2013  08:18:00      -18.815      -10.026        0.980       16.630       19.524       13.815      276.549      381.196      190.862        0.065        0.042       21.319       10.229        0.230      336.767        8.292      860.700
10/08/2013  08:19:00      -38.808      -11.618        1.605       14.954       10.125       10.763      223.614      102.510      115.851        0.104        0.022       40.510        6.752        0.028      336.543        7.915      860.716
10/08/2013  08:20:00      -38.268      -21.040       -6.579       15.118       11.068       11.317      228.545      122.491      128.064        0.121        0.024       43.671        4.905        0.013      336.626        8.056      860.724
10/08/2013  08:21:00      -46.992      -10.075       -6.400        7.250       12.362        9.078       52.560      152.815       82.418        0.132        0.014       48.060        6.052        0.016      336.645        8.087      860.736
10/08/2013  08:22:00      -17.165      -84.373        3.140       28.227       33.382       22.092      796.748     1114.353      488.078        0.491        0.120       86.101        9.448        0.012      336.810        8.363      860.741
10/08/2013  08:23:00      -36.451      -43.693        6.656       23.013       35.143       17.346      529.610     1234.996      300.881        0.267        0.103       56.901       17.118        0.090      336.743        8.250      860.751
10/08/2013  08:24:00      -31.905      -23.316       -1.094       20.982       13.308       12.134      440.261      177.091      147.222        0.116        0.038       39.517        7.388        0.035      336.754        8.269      860.753
10/08/2013  08:25:00      -47.810      -27.241       -2.037       28.811       21.790       17.300      830.065      474.806      299.306        0.232        0.080       55.026       14.918        0.074      336.759        8.278      860.756
10/08/2013  08:26:00      -34.187      -32.520        4.237       46.030       31.252       27.383     2118.776      976.659      749.827        0.304        0.192       47.184       29.749        0.398      336.887        8.490      860.750
10/08/2013  08:27:00      -43.440      -63.271       -1.606       54.207       39.179       23.741     2938.359     1535.022      563.613        0.546        0.252       76.748       27.682        0.130      336.597        8.007      860.739
10/08/2013  08:28:00      -17.385      -69.029        3.683       33.147       44.615       29.442     1098.748     1990.542      866.812        0.452        0.198       71.185       26.568        0.139      336.603        8.016      860.730
10/08/2013  08:29:00      -43.676      -59.490       -2.223       38.021       37.820       22.901     1445.615     1430.315      524.457        0.443        0.170       73.801       17.900        0.059      336.535        7.901      860.703
10/08/2013  08:30:00      -41.831      -71.344       -2.547       36.865       38.502       20.699     1359.014     1482.439      428.441        0.506        0.163       82.703       25.060        0.092      336.597        8.005      860.673
10/08/2013  08:31:00      -37.118      -68.065        0.740       34.526       47.441       27.101     1192.073     2250.668      734.445        0.509        0.209       77.528       24.218        0.098      336.635        8.070      860.644
10/08/2013  08:32:00      -63.729      -56.104        2.416       48.237       36.622       26.291     2326.838     1341.171      691.207        0.579        0.218       84.907       25.229        0.088      336.667        8.123      860.614
10/08/2013  08:33:00      -34.156      -37.169        2.836       30.131       28.145       23.795      907.854      792.128      566.225        0.241        0.113       50.479       15.912        0.099      336.704        8.186      860.584
10/08/2013  08:34:00      -24.227      -13.485        7.405       29.433       29.594       25.060      866.273      875.818      627.990        0.160        0.119       27.727       25.389        0.838      336.893        8.499      860.565
10/08/2013  08:35:00      -22.967      -23.237       10.398       59.504       44.900       25.071     3540.700     2016.014      628.560        0.368        0.309       32.672       23.828        0.532      336.936        8.571      860.553
10/08/2013  08:36:00       10.742      -12.747        8.254       29.401       33.689       23.489      864.400     1134.966      551.713        0.145        0.128       16.670       17.781        1.138      336.975        8.637      860.550
10/08/2013  08:37:00      -25.860      -23.012        9.866       41.789       36.535       26.768     1746.328     1334.771      716.529        0.255        0.190       34.616       20.613        0.355      337.044        8.753      860.550
10/08/2013  08:38:00      -42.405      -13.850       10.892       39.041       30.481       19.510     1524.191      929.102      380.643        0.247        0.142       44.610       14.744        0.109      336.958        8.608      860.544
10/08/2013  08:39:00      -54.177      -22.603        0.760       53.492       27.245       19.746     2861.401      742.286      389.898        0.372        0.200       58.703       25.128        0.183      336.915        8.538      860.536
10/08/2013  08:40:00      -57.909      -39.641        3.361       50.697       34.074       21.377     2570.205     1161.034      456.992        0.456        0.209       70.177       20.426        0.085      336.860        8.446      860.535
10/08/2013  08:41:00      -40.215      -49.798       10.976       42.730       33.000       26.369     1825.889     1089.018      695.347        0.391        0.181       64.008       20.567        0.103      336.831        8.400      860.532
10/08/2013  08:42:00      -50.573      -57.134        1.151       26.313       33.746       19.345      692.399     1138.764      374.248        0.401        0.110       76.302        9.859        0.017      336.767        8.290      860.524
10/08/2013  08:43:00      -78.718      -75.958       -1.003       49.664       35.762       26.587     2466.535     1278.903      706.865        0.821        0.223      109.389       30.473        0.078      336.748        8.260      860.521
10/08/2013  08:44:00      -32.962      -23.141       17.804       45.705       36.195       24.256     2088.939     1310.097      588.344        0.296        0.199       40.274       24.036        0.356      337.121        8.882      860.513
10/08/2013  08:45:00      -11.844       43.290       35.882       35.780       23.136       28.983     1280.227      535.277      840.004        0.298        0.133       44.881       16.888        0.142      337.305        9.191      860.511
10/08/2013  08:46:00      -17.023      -13.200       22.072       23.006       43.712       27.052      529.261     1910.772      731.799        0.206        0.159       21.541       22.133        1.056      337.425        9.391      860.505
10/08/2013  08:47:00       -5.542       16.154       37.259       26.607       45.267       34.556      707.959     2049.128     1194.138        0.281        0.198       17.078       33.934        3.948      337.580        9.650      860.491
10/08/2013  08:48:00      -32.157      -18.937       12.934       24.234       28.810       25.789      587.293      830.017      665.082        0.182        0.104       37.319       24.059        0.416      337.227        9.059      860.488
10/08/2013  08:49:00      -26.125      -35.352       -0.750       36.451       32.865       19.895     1328.647     1080.082      395.814        0.237        0.140       43.958       19.569        0.198      337.349        9.262      860.494
10/08/2013  08:50:00      -40.838      -36.403        6.365       49.862       46.661       28.884     2486.180     2177.221      834.260        0.426        0.275       54.708       26.669        0.238      337.339        9.247      860.487
10/08/2013  08:51:00      -57.189      -69.443        6.292       47.221       51.486       26.441     2229.866     2650.831      699.113        0.685        0.279       89.960       30.741        0.117      337.094        8.836      860.481
10/08/2013  08:52:00      -63.531      -82.646       12.229       45.973       42.404       22.244     2113.535     1798.105      494.776        0.771        0.220      104.243       25.556        0.060      337.108        8.859      860.474
10/08/2013  08:53:00      -63.521      -59.890       12.795       57.361       34.101       27.317     3290.290     1162.848      746.221        0.649        0.260       87.303       29.683        0.116      337.091        8.830      860.466
10/08/2013  08:54:00      -80.438      -78.909        6.832       55.876       47.371       30.537     3122.163     2244.042      932.492        0.952        0.315      112.681       31.831        0.080      337.122        8.882      860.452
10/08/2013  08:55:00      -31.045      -76.067        0.536       44.262       56.493       36.680     1959.134     3191.514     1345.390        0.662        0.325       82.158       31.708        0.149      337.240        9.081      860.443
10/08/2013  08:56:00      -82.368     -118.495       -3.085       56.508       50.302       30.214     3193.190     2530.261      912.876        1.373        0.332      144.310       30.352        0.044      337.010        8.694      860.439
10/08/2013  08:57:00     -124.538     -125.544       -3.346       60.489       56.672       32.188     3658.900     3211.756     1036.059        1.959        0.395      176.836       28.900        0.027      336.996        8.670      860.433
10/08/2013  08:58:00     -106.258      -72.038        4.126       60.132       44.195       30.798     3615.837     1953.208      948.503        1.151        0.326      128.376       21.805        0.029      337.033        8.733      860.422
10/08/2013  08:59:00      -95.362      -50.343        4.454       47.610       38.600       27.964     2266.747     1489.990      781.988        0.809        0.227      107.835       22.862        0.045      337.172        8.966      860.425
10/08/2013  09:00:00     -111.476      -79.138       -0.330       45.318       48.755       34.370     2053.742     2377.049     1181.303        1.215        0.281      136.710       33.054        0.058      337.159        8.945      860.423
10/08/2013  09:01:00      -60.574      -61.091       -6.947       45.130       35.431       23.704     2036.691     1255.382      561.881        0.565        0.193       86.031       24.575        0.082      337.215        9.039      860.422
10/08/2013  09:02:00      -17.721      -75.382       10.871       45.338       83.217       29.495     2055.528     6925.025      869.938        0.798        0.493       77.437       19.894        0.066      337.425        9.391      860.419
10/08/2013  09:03:00      -60.715     -100.597        0.869       49.573       41.837       24.848     2457.498     1750.366      617.402        0.932        0.241      117.500       17.645        0.023      337.149        8.928      860.444
10/08/2013  09:04:00      -41.078      -33.640       -0.275       37.659       26.841       26.278     1418.229      720.423      690.550        0.282        0.141       53.095       22.863        0.185      337.248        9.095      860.448
10/08/2013  09:05:00      -29.316      -66.405       -7.812       73.106       50.136       28.822     5344.506     2513.614      830.696        0.701        0.434       72.588       34.438        0.225      337.308        9.195      860.443
10/08/2013  09:06:00       52.324      -69.547        2.154       45.229       64.345       48.244     2045.634     4140.285     2327.470        0.804        0.426       87.033       44.536        0.262      337.821       10.054      860.450
10/08/2013  09:07:00       77.406      -76.774      -10.649       53.721       56.912       47.177     2885.968     3238.966     2225.651        1.017        0.418      109.023       28.559        0.069      337.635        9.744      860.453
10/08/2013  09:08:00       39.009      -33.868       19.475       38.735       59.769       44.527     1500.414     3572.392     1982.641        0.505        0.353       51.659       29.860        0.334      337.894       10.175      860.448
10/08/2013  09:09:00      -59.269      -52.854        3.290       42.037       48.978       28.078     1767.102     2398.864      788.387        0.563        0.248       79.412       16.767        0.045      337.680        9.817      860.446
10/08/2013  09:10:00      -83.038      -50.687      -11.076       40.063       71.271       31.519     1605.079     5079.505      993.477        0.863        0.384       97.285       21.950        0.051      337.458        9.447      860.440
10/08/2013  09:11:00      -81.610      -93.002       -1.011       47.770       42.316       24.306     2281.950     1790.683      590.791        0.999        0.233      123.732       23.956        0.037      337.234        9.069      860.438
10/08/2013  09:12:00       -3.815       17.621       20.785       43.787       34.175       30.087     1917.277     1167.926      905.245        0.237        0.200       18.029       18.210        1.020      337.798       10.015      860.414
10/08/2013  09:13:00       13.550      -29.737        3.703       35.103       41.083       32.903     1232.245     1687.833     1082.639        0.254        0.200       32.678       32.274        0.975      337.881       10.154      860.403
10/08/2013  09:14:00       19.920        3.899       42.083       45.938       58.885       51.774     2110.277     3467.398     2680.592        0.522        0.413       20.298       43.443        4.581      338.177       10.651      860.387
10/08/2013  09:15:00       -7.735        0.834       43.365       43.281       42.574       43.970     1873.264     1812.530     1933.381        0.378        0.281        7.780       32.623       17.583      338.167       10.635      860.384
10/08/2013  09:16:00        8.195       25.393       66.210       25.557       31.558       21.768      653.179      995.913      473.841        0.361        0.106       26.682       15.775        0.350      338.263       10.796      860.385
10/08/2013  09:17:00       14.621       51.254       82.496       37.278       40.876       26.706     1389.639     1670.864      713.196        0.671        0.189       53.299       21.148        0.157      338.003       10.359      860.383
10/08/2013  09:18:00       21.859       64.849      105.390       49.923       51.957       27.147     2492.355     2699.546      736.963        1.086        0.296       68.434       29.729        0.189      338.032       10.409      860.384
10/08/2013  09:19:00       19.591       45.986       58.603       40.055       48.951       41.220     1604.414     2396.196     1699.103        0.582        0.285       49.985       37.744        0.570      338.020       10.389      860.388
10/08/2013  09:20:00       93.951     -119.529      -20.672       77.553       91.252       53.886     6014.538     8326.965     2903.747        2.039        0.862      152.032       61.309        0.163      337.924       10.225      860.390
10/08/2013  09:21:00       83.185      -77.972        9.256       80.986      108.843       50.561     6558.715    11846.805     2556.371        1.702        1.048      114.015       66.417        0.339      337.997       10.348      860.390
10/08/2013  09:22:00       30.520      -44.995       13.181       48.220       71.560       51.885     2325.211     5120.880     2692.047        0.663        0.507       54.370       48.219        0.787      338.117       10.550      860.381
10/08/2013  09:23:00       30.810     -105.059        5.492       68.668       74.431       46.553     4715.305     5540.005     2167.208        1.222        0.621      109.483       50.981        0.217      337.991       10.340      860.378
10/08/2013  09:24:00       50.005      -80.263        4.287       84.169       82.238       53.139     7084.360     6763.015     2823.756        1.281        0.834       94.566       50.133        0.281      338.037       10.416      860.379
10/08/2013  09:25:00       84.030      -45.046       34.020       60.075       89.812       77.042     3608.980     8066.151     5935.444        1.393        0.881       95.343       69.360        0.529      337.960       10.287      860.380
10/08/2013  09:26:00       89.763      -80.384      -17.154       66.761       52.736       41.617     4457.036     2781.050     1732.011        1.189        0.449      120.495       35.325        0.086      337.958       10.282      860.388
10/08/2013  09:27:00       11.456       17.421       62.464       42.017       65.468       46.686     1765.403     4286.097     2179.593        0.628        0.412       20.850       40.234        3.724      338.233       10.746      860.381
10/08/2013  09:28:00      108.035      -76.996      -24.261       67.746       66.593       44.018     4589.563     4434.574     1937.580        1.457        0.548      132.665       45.920        0.120      337.948       10.267      860.377
10/08/2013  09:29:00       59.737      -46.531       33.854       47.321       88.593       50.881     2239.310     7848.774     2588.904        0.978        0.634       75.720       61.313        0.656      338.273       10.814      860.369
10/08/2013  09:30:00        8.583       99.991      120.294       50.479       64.586       61.310     2548.117     4171.320     3758.902        1.751        0.524      100.358       53.845        0.288      338.198       10.685      860.355
10/08/2013  09:31:00       52.384      -30.853       19.834       48.327       48.824       52.796     2335.523     2383.777     2787.407        0.580        0.375       60.795       39.748        0.427      338.205       10.699      860.363
10/08/2013  09:32:00       11.509      -21.512       20.899       19.439       53.503       35.813      377.859     2862.616     1282.588        0.278        0.226       24.397       33.400        1.874      338.207       10.701      860.351
10/08/2013  09:33:00       33.314     -124.355      -12.244       54.948       43.939       27.740     3019.335     1930.626      769.483        1.122        0.286      128.740       14.272        0.012      338.193       10.678      860.337
10/08/2013  09:34:00       21.955      -27.419       31.110       45.802       75.702       37.323     2097.783     5730.767     1393.013        0.571        0.461       35.126       37.108        1.116      338.242       10.761      860.322
10/08/2013  09:35:00      104.786       77.486       18.889       45.554       48.772       45.903     2075.187     2378.730     2107.101        1.195        0.328      130.323       21.186        0.026      338.049       10.437      860.317
10/08/2013  09:36:00       16.602       34.538       74.854       50.002       70.156       42.614     2500.234     4921.927     1815.984        0.815        0.462       38.321       41.087        1.150      338.496       11.187      860.313
10/08/2013  09:37:00       19.241       14.959       54.856       31.520       60.147       27.339      993.509     3617.633      747.419        0.448        0.268       24.371       16.086        0.436      338.675       11.489      860.321
10/08/2013  09:38:00       15.147       76.183       84.386       47.238       43.921       31.779     2231.452     1929.031     1009.914        0.916        0.259       77.674       27.924        0.129      338.410       11.043      860.309
10/08/2013  09:39:00       29.420        2.852       55.233       63.780      112.061       60.010     4067.855    12557.736     3601.186        1.207        1.011       29.558       80.101        7.344      338.251       10.775      860.300
10/08/2013  09:40:00       17.711       12.492       49.418       39.514       92.631       59.297     1561.324     8580.530     3516.116        0.828        0.683       21.673       66.551        9.429      338.342       10.929      860.296
10/08/2013  09:41:00       24.046       -8.950       41.437       30.480       60.079       38.484      929.038     3609.513     1480.990        0.420        0.301       25.657       40.888        2.540      338.737       11.592      860.292
10/08/2013  09:42:00       -5.936       -8.757       46.513       19.141       46.659       28.913      366.368     2177.095      835.946        0.283        0.169       10.579       31.672        8.963      338.797       11.693      860.289
10/08/2013  09:43:00       24.718      -20.282       50.451       37.825       53.867       34.338     1430.757     2901.665     1179.089        0.454        0.276       31.974       30.356        0.901      338.481       11.164      860.291
10/08/2013  09:44:00        8.054       32.404       43.632       28.808       38.196       47.580      829.906     1458.962     2263.881        0.378        0.228       33.390       39.905        1.428      338.118       10.552      860.305
10/08/2013  09:45:00      -27.746       26.760       21.027       20.614       19.948       22.564      424.937      397.927      509.144        0.163        0.067       38.548       14.381        0.139      338.184       10.663      860.291
10/08/2013  09:46:00      -14.401       11.131       23.555       30.248       23.011       29.585      914.916      529.523      875.249        0.160        0.116       18.201       21.017        1.333      338.352       10.946      860.298
10/08/2013  09:47:00       57.588        9.359       59.502       54.101       45.161       43.875     2926.950     2039.522     1924.997        0.692        0.345       58.343       34.295        0.346      338.470       11.143      860.287
10/08/2013  09:48:00       98.356      -65.929       13.200       68.893       50.316       45.714     4746.262     2531.748     2089.739        1.178        0.468      118.409       36.528        0.095      338.237       10.752      860.271
10/08/2013  09:49:00       66.433       34.305       74.816       72.715       65.042       49.630     5287.482     4230.472     2463.114        1.158        0.599       74.767       49.594        0.440      338.455       11.118      860.261
10/08/2013  09:50:00       45.301       48.972       65.915       64.274       83.657       54.390     4131.084     6998.510     2958.225        1.144        0.704       66.711       53.400        0.641      338.326       10.900      860.256
10/08/2013  09:51:00       61.992      -10.333       49.082       57.705       99.319       65.037     3329.812     9864.234     4229.795        1.189        0.871       62.847       67.604        1.157      338.610       11.379      860.249
10/08/2013  09:52:00       43.954       64.304       93.505       57.038       60.254       39.997     3253.385     3630.521     1599.772        1.165        0.424       77.891       33.171        0.181      338.515       11.220      860.236
10/08/2013  09:53:00       20.863       77.224       80.441       41.207       46.309       35.106     1697.987     2144.512     1232.433        0.897        0.254       79.993       27.298        0.116      338.719       11.562      860.235
10/08/2013  09:54:00      112.930       78.775       27.764       69.455       61.422       50.354     4824.037     3772.640     2535.515        1.543        0.557      137.690       31.572        0.053      338.453       11.115      860.221
10/08/2013  09:55:00       91.745       83.724       20.062       70.859       39.824       41.580     5020.950     1585.942     1728.901        1.208        0.417      124.205       22.019        0.031      338.140       10.590      860.225
10/08/2013  09:56:00       49.592       78.877       -1.111       42.495       29.245       24.732     1805.823      855.277      611.676        0.598        0.164       93.171       15.053        0.026      338.192       10.678      860.218
10/08/2013  09:57:00        7.199        2.957        5.094       20.804       27.484       20.445      432.824      755.382      417.991        0.085        0.080        7.782       18.769        5.816      338.309       10.872      860.212
10/08/2013  09:58:00       61.606       54.780       22.677       40.493       32.184       36.907     1639.661     1035.780     1362.098        0.567        0.202       82.439       11.304        0.019      338.353       10.947      860.217
10/08/2013  09:59:00      106.691       77.773       10.590       61.510       42.918       41.583     3783.513     1841.925     1729.142        1.245        0.368      132.029       25.662        0.038      338.332       10.912      860.211
10/08/2013  10:00:00       66.367       55.776       18.939       62.512       48.662       36.006     3907.781     2367.946     1296.444        0.772        0.379       86.693       28.316        0.107      338.604       11.369      860.218
10/08/2013  10:01:00       33.412       46.374       54.653       46.439       37.615       29.276     2156.558     1414.863      857.074        0.534        0.221       57.157       13.295        0.054      338.880       11.832      860.208
10/08/2013  10:02:00      112.325       76.948       21.525       44.473       35.268       43.705     1977.883     1243.858     1910.160        1.207        0.257      136.154       18.592        0.019      338.527       11.240      860.201
10/08/2013  10:03:00       55.589       71.276       35.736       50.818       44.489       30.028     2582.458     1979.298      901.705        0.745        0.273       90.390       19.246        0.045      338.761       11.632      860.194
10/08/2013  10:04:00       34.213       31.514       29.853       45.606       30.439       26.418     2079.907      926.556      697.920        0.338        0.185       46.515       23.234        0.250      338.977       11.996      860.182
10/08/2013  10:05:00       30.107       61.492       58.289       34.314       44.665       39.261     1177.434     1995.002     1541.459        0.640        0.236       68.466       23.206        0.115      338.757       11.627      860.150
10/08/2013  10:06:00       47.438       67.269       38.397       36.181       34.011       39.240     1309.034     1156.754     1539.780        0.613        0.200       82.313       30.548        0.138      338.414       11.049      860.132
10/08/2013  10:07:00       34.184       74.810       70.792       53.854       38.035       40.912     2900.226     1446.645     1673.791        0.890        0.301       82.251       37.376        0.206      338.601       11.363      860.119
10/08/2013  10:08:00       56.328       66.950       28.544       52.991       44.512       41.437     2808.021     1981.297     1717.014        0.749        0.325       87.494       26.914        0.095      338.534       11.250      860.102
10/08/2013  10:09:00       76.569       50.946       -4.562       49.569       36.392       29.059     2457.075     1324.365      844.452        0.655        0.231       91.968       11.937        0.017      338.859       11.796      860.104
10/08/2013  10:10:00       41.265       40.079       19.462       32.285       34.147       30.837     1042.304     1166.005      950.922        0.342        0.158       57.525       19.740        0.118      339.045       12.109      860.096
10/08/2013  10:11:00       43.912       61.775       63.018       54.134       39.295       39.931     2930.476     1544.069     1594.497        0.789        0.303       75.791       32.488        0.184      338.803       11.703      860.090
10/08/2013  10:12:00       24.675       24.381       43.808       42.848       44.548       41.324     1835.974     1984.553     1707.672        0.432        0.276       34.689       35.411        1.042      338.811       11.716      860.084
10/08/2013  10:13:00       57.211       82.090       87.902       70.885       49.410       38.557     5024.619     2441.369     1486.648        1.334        0.448      100.059       37.093        0.137      338.795       11.690      860.069
10/08/2013  10:14:00       61.341       97.755       69.805       56.671       43.539       52.718     3211.645     1895.621     2779.201        1.304        0.394      115.407       45.041        0.152      338.452       11.113      860.065
10/08/2013  10:15:00       85.955      102.805       98.386       52.383       51.811       37.926     2744.019     2684.353     1438.403        1.725        0.343      134.004       27.379        0.042      338.489       11.175      860.048
10/08/2013  10:16:00       10.751        4.985       59.086       34.247       62.119       44.446     1172.868     3858.792     1975.443        0.532        0.350       11.850       31.045        6.863      339.004       12.041      860.042
10/08/2013  10:17:00       33.747      -15.898       42.990       34.972       41.729       49.310     1223.036     1741.330     2431.524        0.432        0.270       37.304       36.937        0.980      338.843       11.771      860.039
10/08/2013  10:18:00       58.613       51.389       57.161       64.685       48.447       45.327     4184.097     2347.103     2054.562        0.896        0.429       77.950       40.269        0.267      338.742       11.600      860.022
10/08/2013  10:19:00       72.679       24.748       32.167       37.389       26.638       34.521     1397.940      709.574     1191.696        0.511        0.165       76.777       28.414        0.137      338.471       11.144      860.010
10/08/2013  10:20:00      104.489       70.616       41.518       41.477       60.158       47.878     1720.319     3618.963     2292.330        1.263        0.382      126.113       47.174        0.140      338.506       11.203      859.985
10/08/2013  10:21:00       34.613       98.031      101.451       67.755       62.532       40.340     4590.771     3910.233     1627.333        1.561        0.506      103.962       36.338        0.122      339.053       12.124      859.961
10/08/2013  10:22:00      126.424       73.477       29.805       86.724       53.754       51.869     7521.026     2889.470     2690.413        1.768        0.655      146.226       51.362        0.123      338.727       11.575      859.959
10/08/2013  10:23:00       99.111       74.937       17.420       59.588       36.110       32.311     3550.782     1303.945     1043.986        1.082        0.295      124.252       27.012        0.047      338.594       11.351      859.948
10/08/2013  10:24:00       91.301       96.917       45.144       35.132       31.817       38.892     1234.249     1012.304     1512.567        1.176        0.188      133.150       16.338        0.015      338.712       11.550      859.921
10/08/2013  10:25:00      110.570       76.915       23.653       75.639       40.938       39.606     5721.322     1675.919     1568.664        1.383        0.448      134.691       35.587        0.070      338.886       11.843      859.908
10/08/2013  10:26:00      103.972       76.671       23.973       38.013       29.419       31.347     1445.004      865.460      982.661        1.028        0.165      129.185       10.312        0.006      338.411       11.044      859.903
10/08/2013  10:27:00       49.178       40.131       17.983       60.743       40.635       37.513     3689.728     1651.179     1407.190        0.555        0.337       63.474       28.852        0.207      338.867       11.811      859.898
10/08/2013  10:28:00        8.279       49.971       10.891       39.865       45.122       39.255     1589.242     2036.010     1540.925        0.392        0.258       50.652       29.592        0.341      338.899       11.864      859.890
10/08/2013  10:29:00        4.048       68.584        5.731       31.427       48.641       35.491      987.647     2365.903     1259.590        0.468        0.231       68.703       36.509        0.282      339.044       12.109      859.881
10/08/2013  10:30:00       14.090       48.260       52.199       47.267       40.470       34.734     2234.185     1637.803     1206.480        0.516        0.254       50.275       20.388        0.164      339.458       12.806      859.859
10/08/2013  10:31:00       38.688       51.515       52.984       52.823       44.154       49.300     2790.269     1949.593     2430.513        0.706        0.359       64.425       39.327        0.373      338.891       11.851      859.840
10/08/2013  10:32:00       39.359       -7.451       31.231       30.207       35.570       23.751      912.486     1265.259      564.121        0.266        0.137       40.058       14.338        0.128      338.935       11.925      859.824
10/08/2013  10:33:00       46.783       75.953       59.546       45.740       37.501       38.601     2092.105     1406.314     1490.072        0.824        0.249       89.205       34.268        0.148      338.790       11.683      859.788
10/08/2013  10:34:00      137.807       55.036       17.097       95.606       48.899       52.771     9140.462     2391.156     2784.818        1.831        0.716      148.390       39.885        0.072      338.850       11.780      859.760
10/08/2013  10:35:00      162.518       68.006       17.371       75.398       70.523       56.431     5684.797     4973.494     3184.503        2.259        0.692      176.173       32.688        0.034      338.735       11.587      859.719
10/08/2013  10:36:00      128.590       96.876       19.976       75.327       66.951       46.703     5674.153     4482.384     2181.132        1.933        0.617      160.998       35.419        0.048      338.748       11.609      859.719
10/08/2013  10:37:00       26.885       59.680       65.032       45.882       63.384       53.480     2105.121     4017.554     2860.062        0.875        0.449       65.456       47.159        0.519      339.191       12.354      859.689
10/08/2013  10:38:00        4.469       84.238      105.295       35.835       54.146       35.716     1284.124     2931.831     1275.606        1.185        0.275       84.356       24.475        0.084      339.471       12.827      859.668
10/08/2013  10:39:00       94.523       58.037       35.771       42.611       34.556       37.745     1815.737     1194.096     1424.709        0.901        0.222      110.919       18.960        0.029      338.681       11.499      859.663
10/08/2013  10:40:00      114.157       82.362       20.363       46.287       46.187       43.111     2142.450     2133.280     1858.561        1.318        0.307      140.766       24.511        0.030      338.949       11.948      859.653
10/08/2013  10:41:00      142.061       90.368       32.937       46.644       35.700       39.437     2175.647     1274.487     1555.291        1.722        0.250      168.367       18.371        0.012      338.719       11.563      859.649
10/08/2013  10:42:00       49.256       31.201       35.684       46.890       34.074       39.525     2198.629     1161.020     1562.232        0.480        0.246       58.306       31.485        0.292      339.222       12.407      859.655
10/08/2013  10:43:00      102.062       80.476       29.358       38.917       29.700       38.060     1514.541      882.117     1448.547        1.080        0.192      129.973       21.058        0.026      338.658       11.459      859.662
10/08/2013  10:44:00       26.921       43.542       53.307       33.552       37.173       40.331     1125.745     1381.820     1626.571        0.480        0.207       51.192       33.324        0.424      338.964       11.974      859.646
10/08/2013  10:45:00       37.939       90.905      -14.473       28.860       36.307       37.925      832.902     1318.163     1438.342        0.675        0.179       98.504       26.736        0.074      338.803       11.703      859.644
10/08/2013  10:46:00       39.368      -14.860      -25.013       28.444       27.332       25.241      809.036      747.039      637.105        0.229        0.110       42.079       12.960        0.095      338.674       11.486      859.623
10/08/2013  10:47:00       63.599      -45.744       11.957       69.339       98.527       58.031     4807.863     9707.589     3367.599        1.208        0.894       78.341       67.324        0.739      339.016       12.061      859.596
10/08/2013  10:48:00       45.550       17.187       11.516       42.978       34.845       38.120     1847.123     1214.205     1453.111        0.351        0.226       48.685       30.966        0.405      339.333       12.595      859.584
10/08/2013  10:49:00       11.656       15.971       33.855       36.046       41.117       20.310     1299.287     1690.571      412.503        0.247        0.170       19.772       16.719        0.715      339.963       13.658      859.567
10/08/2013  10:50:00       25.755       17.062       26.951       54.746       37.755       28.692     2997.093     1425.447      823.258        0.346        0.262       30.894       28.252        0.836      339.859       13.483      859.558
10/08/2013  10:51:00       12.976      -16.629        7.069       40.306       36.455       26.846     1624.602     1328.977      720.703        0.208        0.184       21.093       10.089        0.229      339.583       13.016      859.529
10/08/2013  10:52:00       65.057       31.133       13.188       38.839       59.022       32.161     1508.497     3483.655     1034.318        0.570        0.301       72.122       23.649        0.108      339.294       12.529      859.518
10/08/2013  10:53:00       58.769       61.680        9.503       50.817       38.713       30.647     2582.411     1498.706      939.248        0.618        0.251       85.195       17.741        0.043      339.250       12.456      859.496
10/08/2013  10:54:00       50.615       57.736       72.226       67.985       55.504       37.188     4622.021     3080.706     1382.942        1.010        0.454       76.781       30.959        0.163      339.606       13.055      859.484
10/08/2013  10:55:00      116.803      104.454       19.060       95.331       69.394       76.786     9088.044     4815.583     5896.059        2.235        0.990      156.696       48.832        0.097      339.352       12.625      859.457
10/08/2013  10:56:00      250.560      136.784       21.119       80.281       87.821       51.232     6445.012     7712.491     2624.737        4.936        0.839      285.464       35.563        0.016      339.066       12.143      859.461
10/08/2013  10:57:00      148.880      102.283       16.556       89.448       88.271       45.272     8000.877     7791.794     2049.526        2.537        0.892      180.630       24.915        0.019      338.933       11.918      859.471
10/08/2013  10:58:00       47.397       60.909       15.164       70.243       53.166       37.563     4934.019     2826.588     1411.015        0.768        0.459       77.178       32.526        0.178      339.463       12.814      859.466
10/08/2013  10:59:00        2.301      133.081      -22.813       32.206       34.175       22.131     1037.221     1167.905      489.760        1.046        0.135      133.101       15.959        0.014      339.053       12.123      859.465
10/08/2013  11:00:00       25.872       45.278        8.019       44.248       54.229       31.853     1957.910     2940.760     1014.597        0.435        0.296       52.148       23.553        0.204      339.644       13.119      859.459
10/08/2013  11:01:00       32.858       59.397       60.713       77.628       62.254       62.001     6026.122     3875.516     3844.161        1.102        0.687       67.880       54.558        0.646      339.803       13.387      859.437
10/08/2013  11:02:00       78.125       75.404       39.330       52.888       63.485       55.719     2797.149     4030.358     3104.589        1.163        0.497      108.579       50.957        0.220      339.086       12.178      859.445
10/08/2013  11:03:00       52.942       39.895       48.929       45.816       36.073       35.135     2099.111     1301.269     1234.483        0.571        0.232       66.291       22.775        0.118      339.586       13.021      859.419
10/08/2013  11:04:00       65.873       58.293       44.340       83.475       55.970       43.609     6968.112     3132.637     1901.725        1.085        0.600       87.962       52.321        0.354      339.345       12.615      859.407
10/08/2013  11:05:00      123.253       86.702        3.557       80.575       64.441       48.340     6492.309     4152.650     2336.769        1.785        0.649      150.694       10.699        0.005      339.065       12.142      859.386
10/08/2013  11:06:00       -4.371      106.335      -16.864       45.310       34.111       27.005     2053.040     1163.592      729.276        0.778        0.197      106.425       17.171        0.026      339.154       12.294      859.367
10/08/2013  11:07:00      -40.494      107.879       -2.550       35.247       41.065       33.312     1242.348     1686.339     1109.704        0.866        0.202      115.229       28.779        0.062      339.563       12.983      859.340
10/08/2013  11:08:00       38.712       76.744       -1.845       42.455       33.313       32.776     1802.435     1109.789     1074.262        0.569        0.199       85.955       21.204        0.061      339.701       13.215      859.344
10/08/2013  11:09:00       78.208       59.067       35.501       51.686       34.228       39.518     2671.424     1171.526     1561.691        0.813        0.270       98.007       23.504        0.058      339.984       13.693      859.322
10/08/2013  11:10:00      112.034       65.299       37.261      108.116       71.524       55.436    11689.007     5115.735     3073.114        1.904        0.994      129.675       52.710        0.165      339.955       13.642      859.311
10/08/2013  11:11:00      140.453      137.499       22.006       86.790       60.416       59.630     7532.516     3650.134     3555.718        2.692        0.737      196.552       42.603        0.047      339.303       12.542      859.299
10/08/2013  11:12:00       24.496      164.935      -14.026       43.715       66.081       47.447     1910.996     4366.640     2251.232        1.826        0.426      166.744       43.974        0.070      339.401       12.707      859.292
10/08/2013  11:13:00      118.893       88.406       26.199      100.181       64.993       57.818    10036.176     4224.029     3342.923        2.012        0.880      148.160       41.422        0.078      339.816       13.408      859.266
10/08/2013  11:14:00       68.123       76.496       18.819       65.701       43.881       40.316     4316.582     1925.530     1625.416        0.936        0.393      102.433       33.746        0.109      340.085       13.862      859.264
10/08/2013  11:15:00        4.043       39.502       62.940       53.236       53.570       53.919     2834.046     2869.767     2907.300        0.707        0.431       39.708       40.819        1.057      339.738       13.277      859.248
10/08/2013  11:16:00       60.175       65.792       62.450       58.249       46.892       53.879     3392.919     2198.866     2902.957        1.017        0.425       89.160       35.296        0.157      339.833       13.438      859.237
10/08/2013  11:17:00       91.114       54.609       11.296       64.877       39.472       36.055     4209.035     1558.014     1299.969        0.924        0.353      106.226       25.863        0.059      339.661       13.146      859.213
10/08/2013  11:18:00       31.961       37.507       37.260       55.257       47.924       33.123     3053.289     2296.683     1097.155        0.513        0.322       49.277       17.452        0.125      340.193       14.046      859.186
10/08/2013  11:19:00       16.938      -60.645        3.248       64.578       62.504       30.927     4170.284     3906.758      956.502        0.650        0.452       62.966       23.085        0.134      340.115       13.912      859.173
10/08/2013  11:20:00       -2.953      -11.857       29.982       26.276       40.847       27.232      690.444     1668.505      741.601        0.207        0.155       12.219       19.906        2.654      340.528       14.611      859.149
10/08/2013  11:21:00      105.840       69.666       31.317       61.286       55.230       52.864     3756.032     3050.406     2794.568        1.332        0.480      126.710       37.702        0.089      339.722       13.251      859.135
10/08/2013  11:22:00       34.018       83.745       91.574       53.243       58.160       43.220     2834.767     3382.628     1867.991        1.232        0.404       90.390       39.388        0.190      339.906       13.560      859.109
10/08/2013  11:23:00       54.700       63.704       57.483       63.025       64.673       52.221     3972.136     4182.563     2727.020        1.062        0.544       83.966       46.942        0.313      339.730       13.263      859.099
10/08/2013  11:24:00       40.402       84.297       79.569       64.590       48.870       35.031     4171.845     2388.321     1227.159        1.143        0.389       93.479       31.938        0.117      339.737       13.275      859.074
10/08/2013  11:25:00       48.644       60.356       76.797       60.332       69.459       57.944     3639.987     4824.582     3357.561        1.186        0.591       77.519       54.753        0.499      339.686       13.189      859.054
10/08/2013  11:26:00       49.780       54.257       72.818       50.901       78.718       52.052     2590.898     6196.501     2709.433        1.111        0.575       73.633       59.803        0.660      339.524       12.917      859.045
10/08/2013  11:27:00       55.489       57.744       27.968       40.146       31.960       26.004     1611.719     1021.443      676.202        0.525        0.165       80.083       24.047        0.090      339.593       13.032      859.007
10/08/2013  11:28:00      -17.721      -22.415       12.566       21.808       48.148       21.137      475.600     2318.246      446.782        0.211        0.162       28.573       22.303        0.609      340.390       14.379      858.996
10/08/2013  11:29:00        2.816       41.685       34.705       24.310       31.564       26.527      590.959      996.302      703.680        0.262        0.115       41.780       21.476        0.264      340.648       14.815      858.979
10/08/2013  11:30:00       -6.088       42.274        6.510       29.149       32.834       25.268      849.669     1078.062      638.451        0.222        0.128       42.710       18.184        0.181      340.258       14.155      858.964
10/08/2013  11:31:00       17.807       72.930      -16.492       37.438       64.819       23.713     1401.568     4201.535      562.320        0.604        0.308       75.073        9.939        0.018      339.926       13.595      858.941
10/08/2013  11:32:00       28.685        1.216       23.799       34.392       50.601       31.057     1182.810     2560.462      964.518        0.305        0.235       28.711       22.624        0.621      340.261       14.161      858.905
10/08/2013  11:33:00      103.840       74.624       30.824       78.616       51.339       54.238     6180.501     2635.692     2941.744        1.453        0.588      127.873       48.650        0.145      340.123       13.926      858.881
10/08/2013  11:34:00      113.107       72.166        8.497       57.862       49.741       43.271     3348.028     2474.169     1872.371        1.288        0.385      134.168       33.224        0.061      339.998       13.715      858.847
10/08/2013  11:35:00      118.131       86.751       20.432       77.647       61.064       53.868     6029.123     3728.820     2901.783        1.728        0.633      146.563       14.514        0.010      340.530       14.613      858.813
10/08/2013  11:36:00       88.137       80.778       13.774       53.309       49.560       51.295     2841.815     2456.186     2631.178        1.120        0.396      119.554       26.289        0.048      340.078       13.852      858.800
10/08/2013  11:37:00      104.059       16.749       -0.530       45.383       76.892       33.630     2059.618     5912.378     1131.005        1.010        0.455      105.399       35.281        0.112      339.489       12.857      858.779
10/08/2013  11:38:00       25.854       12.127        8.328       36.789       38.166       35.961     1353.448     1456.636     1293.175        0.249        0.205       28.557       14.634        0.263      339.883       13.521      858.745
10/08/2013  11:39:00       38.667       46.877       20.647       37.324       25.242       33.430     1393.076      637.159     1117.584        0.363        0.157       60.766       17.651        0.084      340.140       13.955      858.697
10/08/2013  11:40:00       22.798       27.567       25.083       52.243       53.025       42.633     2729.364     2811.684     1817.554        0.463        0.368       35.773       44.047        1.516      340.221       14.093      858.677
10/08/2013  11:41:00       -2.384       -8.442       20.532       54.636       27.819       25.578     2985.065      773.889      654.232        0.245        0.221        8.772       13.955        2.531      340.111       13.907      858.649
10/08/2013  11:42:00       57.994       63.275       61.656       40.102       35.298       29.112     1608.149     1245.978      847.486        0.743        0.185       85.831       19.960        0.054      339.970       13.669      858.632
10/08/2013  11:43:00      155.255       89.665       48.314       75.321       63.275       66.949     5673.316     4003.786     4482.161        2.432        0.708      179.288       51.428        0.082      339.962       13.654      858.607
10/08/2013  11:44:00       88.059       55.746        6.748       56.656       65.663       44.952     3209.887     4311.606     2020.646        1.022        0.477      104.221       19.239        0.034      340.030       13.770      858.602
10/08/2013  11:45:00       90.893       94.363       14.017       74.622       62.783       37.914     5568.446     3941.647     1437.450        1.415        0.547      131.019       27.547        0.044      339.972       13.671      858.593
10/08/2013  11:46:00      124.309       91.575       20.825       81.387       35.043       43.301     6623.869     1227.997     1874.941        1.700        0.486      154.398       40.058        0.067      339.778       13.343      858.580
10/08/2013  11:47:00      119.084       90.006       -2.772       57.209       49.807       40.637     3272.918     2480.771     1651.354        1.485        0.370      149.271       29.156        0.038      339.628       13.091      858.570
10/08/2013  11:48:00       39.432       55.936       16.841       31.733       54.122       30.346     1007.003     2929.241      920.888        0.491        0.243       68.438       21.066        0.095      339.963       13.656      858.535
10/08/2013  11:49:00       42.618       23.082       28.952       43.328       70.096       41.011     1877.323     4913.487     1681.918        0.583        0.424       48.467       26.973        0.310      340.070       13.837      858.506
10/08/2013  11:50:00       33.509      137.189      -11.155       50.378       70.285       44.731     2537.953     4939.938     2000.892        1.477        0.474      141.222       37.928        0.072      339.994       13.709      858.482
10/08/2013  11:51:00       64.207       76.463       18.343       69.507       49.691       39.414     4831.244     2469.174     1553.464        0.958        0.443       99.845       25.408        0.065      340.061       13.822      858.454
10/08/2013  11:52:00      -10.379      120.216       -9.222       50.554       51.426       32.935     2555.746     2644.615     1084.700        1.046        0.314      120.663       26.490        0.048      340.294       14.216      858.443
10/08/2013  11:53:00      -16.009       19.778       23.319       29.262       38.607       23.257      856.251     1490.464      540.881        0.204        0.144       25.445       25.331        0.991      340.960       15.342      858.421
10/08/2013  11:54:00      -31.874       39.225       -5.162       29.106       32.321       21.002      847.139     1044.641      441.071        0.246        0.117       50.542       18.477        0.134      340.521       14.599      858.392
10/08/2013  11:55:00      -61.056        8.023       -6.508       25.455       37.449       20.166      647.948     1402.416      406.656        0.315        0.123       61.581        9.622        0.024      340.477       14.526      858.376
10/08/2013  11:56:00       21.186      -41.490        2.703       46.280       41.148       28.769     2141.828     1693.160      827.667        0.342        0.233       46.586       17.820        0.146      340.553       14.654      858.356
10/08/2013  11:57:00       78.107       16.282       36.717      116.852      154.012       68.310    13654.288    23719.631     4666.218        2.487        2.102       79.786       62.370        0.611      340.615       14.754      858.327
10/08/2013  11:58:00       71.443       36.771       32.985       57.136       43.759       32.925     3264.546     1914.868     1084.033        0.690        0.313       80.351       27.409        0.116      340.345       14.301      858.336
10/08/2013  11:59:00       51.819        6.975       52.405       64.124       82.566       54.730     4111.855     6817.169     2995.416        0.970        0.696       52.286       38.920        0.554      340.707       14.914      858.304
10/08/2013  12:00:00       37.737       58.922       71.597       56.626       45.746       41.447     3206.459     2092.705     1717.892        0.852        0.351       69.971       35.765        0.261      340.821       15.107      858.286
10/08/2013  12:01:00       30.226       16.417       39.758       50.749       69.026       55.370     2575.460     4764.635     3065.800        0.658        0.520       34.396       49.084        2.036      340.728       14.949      858.271
10/08/2013  12:02:00       22.656      -28.654       32.140       70.897       78.705       40.470     5026.341     6194.542     1637.817        0.761        0.643       36.529       42.229        1.336      340.923       15.278      858.254
10/08/2013  12:03:00       48.843       -1.861       42.366       56.909       82.150       40.995     3238.633     6748.587     1680.574        0.792        0.583       48.879       36.338        0.553      340.862       15.176      858.240
10/08/2013  12:04:00       84.563      -67.044       18.922       79.017      114.351       57.453     6243.648    13076.120     3300.790        1.731        1.131      107.916       55.392        0.263      340.716       14.927      858.210
10/08/2013  12:05:00       53.913      -98.619       34.398       71.929      115.566       50.234     5173.783    13355.398     2523.425        1.743        1.053      112.393       55.388        0.243      340.817       15.098      858.197
10/08/2013  12:06:00       81.952     -100.710       18.173       75.898      141.961       61.566     5760.554    20152.785     3790.395        2.344        1.485      129.841       74.959        0.333      340.656       14.825      858.187
10/08/2013  12:07:00       15.526       30.142       48.669       35.922       40.889       43.886     1290.396     1671.925     1925.950        0.420        0.244       33.905       25.932        0.585      340.947       15.320      858.179
10/08/2013  12:08:00       38.806       52.206       52.190       64.917       51.829       49.218     4214.251     2686.242     2422.396        0.814        0.466       65.049       43.420        0.446      340.771       15.022      858.165
10/08/2013  12:09:00       44.059       69.670       62.112       65.496       71.741       50.882     4289.743     5146.816     2589.002        1.134        0.601       82.432       36.583        0.197      340.964       15.349      858.128
10/08/2013  12:10:00      143.702      105.367       73.355      100.637       87.980       74.787    10127.806     7740.395     5593.057        3.029        1.173      178.193       65.764        0.136      340.798       15.065      858.118
10/08/2013  12:11:00       61.236      118.315      108.901       83.665       81.566       83.128     6999.816     6652.962     6910.302        2.508        1.028      133.222       67.308        0.255      340.611       14.749      858.090
10/08/2013  12:12:00        5.860       20.846       71.421       48.078       61.654       33.647     2311.523     3801.251     1132.097        0.641        0.362       21.653       30.750        2.017      341.106       15.589      858.087
10/08/2013  12:13:00       87.323      121.611        7.841       60.483       55.586       62.801     3658.242     3089.811     3943.932        1.658        0.535      149.714       34.459        0.053      340.224       14.096      858.083
10/08/2013  12:14:00        2.257       50.802       25.276       18.407       33.222       23.387      338.814     1103.730      546.960        0.261        0.099       50.852       19.015        0.140      340.683       14.874      858.058
10/08/2013  12:15:00       -3.252       19.960       14.922       16.525       41.665       22.771      273.069     1735.972      518.513        0.158        0.126       20.223       24.846        1.509      341.139       15.645      858.038
10/08/2013  12:16:00       14.211       -6.372       30.662       21.231       20.527       17.669      450.761      421.363      312.208        0.118        0.059       15.574        9.296        0.356      341.188       15.726      858.011
10/08/2013  12:17:00      -10.309      -10.961       16.264       26.168       24.953       23.433      684.769      622.650      549.082        0.117        0.093       15.047       20.029        1.772      340.728       14.950      857.995
10/08/2013  12:18:00      -67.158        0.387       -1.941       52.442       29.282       25.931     2750.140      857.461      672.412        0.440        0.214       67.159       22.326        0.111      340.568       14.678      857.962
10/08/2013  12:19:00      118.377       65.868       16.259      111.769       61.109       37.140    12492.226     3734.276     1379.399        1.811        0.880      135.468       30.652        0.051      340.803       15.073      857.949
10/08/2013  12:20:00      122.281       90.191       14.504       99.249       68.317       52.090     9850.300     4667.190     2713.379        2.026        0.862      151.945       33.034        0.047      340.766       15.011      857.932
10/08/2013  12:21:00      142.687      112.442       12.307       83.752       64.377       49.198     7014.368     4144.335     2420.422        2.336        0.679      181.667       36.230        0.040      340.513       14.582      857.916
10/08/2013  12:22:00      151.160       74.129       51.503      104.121       78.605       56.987    10841.217     6178.776     3247.526        2.563        1.013      168.358       52.620        0.098      340.387       14.369      857.892
10/08/2013  12:23:00       43.374      141.943       -4.902       58.326       82.270       54.734     3401.884     6768.299     2995.852        1.761        0.658      148.422       53.367        0.129      340.558       14.660      857.882
10/08/2013  12:24:00       28.855      106.552       -3.326       64.885       69.343       51.588     4210.110     4808.456     2661.340        1.194        0.584      110.390       43.542        0.156      340.813       15.093      857.855
10/08/2013  12:25:00      132.330      130.529        7.334       95.536       75.182       61.391     9127.074     5652.305     3768.798        2.657        0.927      185.874       48.367        0.068      340.537       14.623      857.830
10/08/2013  12:26:00      109.426      112.931       16.762       95.997       68.431       46.609     9215.402     4682.869     2172.371        2.054        0.804      157.249       33.178        0.045      340.753       14.990      857.828
10/08/2013  12:27:00       49.759      150.566        6.939       53.533      113.429       58.730     2865.742    12866.230     3449.171        2.218        0.959      158.575       63.510        0.160      340.899       15.237      857.815
10/08/2013  12:28:00       51.323       56.132        9.947       68.782       55.594       34.530     4731.017     3090.674     1192.287        0.745        0.451       76.058       21.682        0.081      341.264       15.856      857.816
10/08/2013  12:29:00       96.156       78.280       51.682       77.337       47.718       59.255     5981.013     2277.041     3511.137        1.490        0.588      123.991       26.301        0.045      341.125       15.620      857.801
10/08/2013  12:30:00      179.135      138.188       24.794       84.673       64.156       50.030     7169.536     4115.931     2502.966        3.279        0.689      226.242       35.084        0.024      340.591       14.714      857.797
10/08/2013  12:31:00       79.186      100.770       10.520       87.312       83.862       53.400     7623.340     7032.889     2851.568        1.702        0.875      128.161       48.430        0.143      340.907       15.249      857.780
10/08/2013  12:32:00       78.993       87.061        9.347       82.392       70.704       57.126     6788.368     4999.117     3263.366        1.448        0.753      117.556       47.445        0.163      340.993       15.397      857.758
10/08/2013  12:33:00      193.216      121.694       22.805       86.826       60.892       55.005     7538.787     3707.841     3025.531        3.346        0.714      228.346       36.896        0.026      340.632       14.783      857.735
10/08/2013  12:34:00       92.830       66.391       20.537       57.025       37.066       34.149     3251.809     1373.923     1166.167        0.962        0.290      114.127        9.508        0.007      340.743       14.974      857.711
10/08/2013  12:35:00       25.965      106.544       -5.070       43.968       41.714       30.840     1933.180     1740.084      951.114        0.834        0.231      109.662       24.901        0.052      340.757       14.998      857.687
10/08/2013  12:36:00       37.683       15.653        7.245       39.635       62.419       36.850     1570.919     3896.110     1357.956        0.427        0.341       40.805       18.321        0.202      340.577       14.695      857.675
10/08/2013  12:37:00       73.320      -34.616      -13.527       50.880       92.251       32.620     2588.765     8510.281     1064.034        0.946        0.608       81.081       19.325        0.057      340.668       14.847      857.671
10/08/2013  12:38:00      103.136     -113.611       -9.378       76.499       79.602       48.049     5852.152     6336.518     2308.731        1.906        0.725      153.442       58.511        0.145      340.792       15.056      857.638
10/08/2013  12:39:00      116.265     -153.610       -6.942       37.328       45.865       28.811     1393.409     2103.561      830.060        2.074        0.216      192.649        6.495        0.001      340.430       14.444      857.629
10/08/2013  12:40:00       59.033       33.182       43.574       74.243       50.778       36.762     5512.097     2578.379     1351.431        0.796        0.472       67.719       19.319        0.081      340.895       15.230      857.612
10/08/2013  12:41:00      186.492       95.905       33.289       88.139       70.022       55.725     7768.545     4903.105     3105.238        3.043        0.789      209.707       45.412        0.047      340.660       14.830      857.573
10/08/2013  12:42:00       98.581       71.174       -2.063       47.414       39.006       32.295     2248.121     1521.486     1042.971        0.980        0.241      121.589       21.586        0.032      340.545       14.641      857.541
10/08/2013  12:43:00      145.962       84.460       19.664       63.499       47.075       50.966     4032.180     2216.024     2597.543        1.883        0.442      168.637       17.802        0.011      340.871       15.190      857.509
10/08/2013  12:44:00       48.208       -5.906       22.509       48.098       67.562       44.377     2313.433     4564.644     1969.356        0.585        0.442       48.568       27.916        0.330      340.993       15.397      857.500
10/08/2013  12:45:00       28.281      -42.518       21.803       33.451       47.420       44.901     1118.947     2248.642     2016.059        0.423        0.269       51.064       28.942        0.321      341.330       15.969      857.458
10/08/2013  12:46:00        2.095      -16.517       16.647       44.499       41.561       31.167     1980.134     1727.278      971.413        0.262        0.234       16.650       28.254        2.880      341.489       16.237      857.418
10/08/2013  12:47:00        8.242       14.950       27.872       24.590       41.675       27.392      604.660     1736.792      750.346        0.208        0.155       17.072       22.601        1.753      341.627       16.472      857.403
10/08/2013  12:48:00       26.866      -14.879       22.198       35.883       32.314       21.654     1287.598     1044.165      468.876        0.212        0.140       30.711       16.902        0.303      341.483       16.226      857.381
10/08/2013  12:49:00       60.406       32.108       27.603       56.700       32.070       36.769     3214.932     1028.491     1351.943        0.552        0.280       68.409       25.197        0.136      341.231       15.800      857.360
10/08/2013  12:50:00       84.211       61.994        7.663       48.560       57.049       38.421     2358.057     3254.616     1476.188        0.904        0.354      104.569       20.002        0.037      340.730       14.953      857.337
10/08/2013  12:51:00       74.513      104.108        6.316       62.385       73.650       63.000     3891.874     5424.392     3968.961        1.486        0.664      128.026       52.893        0.171      341.023       15.447      857.305
10/08/2013  12:52:00      131.717       99.494       33.262       99.003       71.144       50.653     9801.635     5061.526     2565.768        2.289        0.871      165.071       48.766        0.087      340.985       15.382      857.254
10/08/2013  12:53:00      125.837       97.254       12.693       77.686       60.113       44.036     6035.150     3613.608     1939.200        1.852        0.579      159.038       32.966        0.043      341.190       15.728      857.224
10/08/2013  12:54:00      174.564      120.419       53.805      110.445       78.106       70.737    12198.196     6100.539     5003.658        3.558        1.165      212.069       49.353        0.054      341.372       16.036      857.203
10/08/2013  12:55:00       86.222       -9.780       23.172      105.412       85.281       52.666    11111.598     7272.913     2773.725        1.461        1.058       86.775       45.343        0.273      341.252       15.835      857.183
10/08/2013  12:56:00       81.622     -101.504       27.404      107.188      107.236       60.319    11489.346    11499.514     3638.379        2.217        1.331      130.251       53.616        0.169      341.289       15.897      857.146
10/08/2013  12:57:00       35.839       62.914       87.438       43.833       77.039       54.971     1921.341     5935.009     3021.845        1.188        0.544       72.406       53.525        0.546      341.521       16.291      857.149
10/08/2013  12:58:00       36.046      -76.231        3.908       41.108       36.042       34.372     1689.853     1298.991     1181.463        0.565        0.209       84.323       26.447        0.098      341.273       15.871      857.147
10/08/2013  12:59:00       74.295     -183.153      -15.607       73.243       50.900       26.829     5364.536     2590.770      719.789        2.399        0.434      197.649       31.362        0.025      340.949       15.319      857.114
10/08/2013  13:00:00       56.657      -86.026       -0.851       61.889       70.590       46.147     3830.221     4982.902     2129.561        1.077        0.547      103.007       44.309        0.185      341.243       15.820      857.084
10/08/2013  13:01:00       92.563      -79.336        7.628       41.782       64.855       34.154     1745.741     4206.163     1166.466        1.102        0.356      121.910       39.566        0.105      341.035       15.469      857.061
10/08/2013  13:02:00      -12.716       41.608        9.289       27.540       25.197       25.437      758.434      634.893      647.061        0.201        0.102       43.507       12.167        0.078      341.195       15.739      857.037
10/08/2013  13:03:00       34.998       22.121       16.756       56.308       28.209       20.372     3170.536      795.754      415.018        0.319        0.219       41.403       22.742        0.302      341.234       15.806      857.017
10/08/2013  13:04:00      111.653       98.605       71.842       94.153       62.664       60.861     8864.828     3926.726     3704.021        2.192        0.825      148.961       52.177        0.123      341.238       15.810      857.003
10/08/2013  13:05:00      161.252       95.339       36.381      165.694      102.375       60.535    27454.604    10480.599     3664.471        3.900        2.080      187.328       55.094        0.086      341.291       15.900      856.976
10/08/2013  13:06:00       96.564      102.836       86.497      117.720       88.253       51.433    13857.943     7788.614     2645.333        2.583        1.215      141.066       48.006        0.116      341.472       16.206      856.966
10/08/2013  13:07:00      129.483      123.111       83.186       68.643       50.883       64.879     4711.799     2589.037     4209.239        2.517        0.576      178.667       56.837        0.101      340.726       14.946      856.954
10/08/2013  13:08:00      109.059      108.409       78.863       86.076       41.637       59.064     7409.051     1733.669     3488.596        2.125        0.632      153.774       54.177        0.124      340.968       15.354      856.931
10/08/2013  13:09:00      109.845       58.248       32.959       43.860       32.454       30.077     1923.658     1053.281      904.648        1.021        0.194      124.333       24.161        0.038      340.974       15.365      856.916
10/08/2013  13:10:00      117.774       98.825       26.959       56.451       36.828       41.240     3186.707     1356.284     1700.702        1.530        0.312      153.744       17.595        0.013      341.001       15.410      856.865
10/08/2013  13:11:00       37.204       14.863      -10.851       40.534       31.379       24.783     1643.018      984.667      614.186        0.248        0.162       40.063       13.605        0.115      341.398       16.084      856.827
10/08/2013  13:12:00       86.432       63.826       41.739       50.684       47.235       53.107     2568.896     2231.177     2820.324        1.045        0.381      107.444       40.812        0.144      341.124       15.618      856.796
10/08/2013  13:13:00      -14.449       54.755       -8.442       39.999       37.395       23.573     1599.887     1398.400      555.669        0.342        0.178       56.629       17.446        0.095      341.038       15.475      856.771
10/08/2013  13:14:00       45.890       62.709       23.316       43.405       42.360       42.874     1883.967     1794.358     1838.220        0.605        0.276       77.707       31.802        0.167      341.494       16.245      856.744
10/08/2013  13:15:00      102.368       75.579       34.750       72.810       66.836       53.839     5301.333     4466.992     2898.691        1.503        0.633      127.246       45.941        0.130      341.151       15.663      856.710
10/08/2013  13:16:00       66.007       21.599       23.424       78.185       84.345       44.475     6112.842     7114.045     1978.054        1.029        0.760       69.451       51.032        0.540      341.238       15.812      856.667
10/08/2013  13:17:00       67.549       34.170        8.341       57.328       48.706       25.770     3286.495     2372.312      664.085        0.606        0.316       75.700       10.803        0.020      341.285       15.892      856.645
10/08/2013  13:18:00       34.603       32.834        1.121       22.521       21.629       24.640      507.179      467.799      607.119        0.193        0.079       47.701       16.771        0.124      341.356       16.014      856.621
10/08/2013  13:19:00      129.102      104.571       18.898      135.518       86.151       69.792    18365.167     7421.977     4870.972        2.930        1.533      166.140       64.696        0.152      341.580       16.390      856.588
10/08/2013  13:20:00       40.915       75.769        9.923       50.430       62.198       45.046     2543.188     3868.648     2029.112        0.798        0.422       86.110       45.812        0.283      341.414       16.110      856.574
10/08/2013  13:21:00       51.664       70.778       19.526       80.351       48.145       40.555     6456.316     2317.919     1644.685        0.924        0.521       87.628       34.188        0.152      341.553       16.344      856.540
10/08/2013  13:22:00      -10.394       91.397        1.230       54.303       49.978       35.833     2948.840     2497.758     1284.010        0.760        0.337       91.986       33.007        0.129      341.700       16.595      856.532
10/08/2013  13:23:00      -20.720      126.374       -3.487       41.445       92.064       34.874     1717.729     8475.830     1216.192        1.391        0.570      128.062       43.863        0.117      341.764       16.703      856.513
10/08/2013  13:24:00      100.091      135.168       22.637       84.399       57.767       52.098     7123.204     3337.075     2714.211        2.099        0.659      168.192       30.655        0.033      341.528       16.301      856.502
10/08/2013  13:25:00       36.256      147.558       -2.881       65.462       87.378       55.756     4285.273     7634.990     3108.688        1.906        0.751      151.947       51.210        0.114      341.467       16.199      856.494
10/08/2013  13:26:00       -3.147      121.539      -19.013       44.715       46.337       34.165     1999.389     2147.160     1167.241        1.023        0.266      121.580       27.193        0.050      341.209       15.762      856.478
10/08/2013  13:27:00      -23.892      100.243       -6.934       44.674       63.424       33.354     1995.724     4022.611     1112.511        0.890        0.357      103.051       37.116        0.130      341.442       16.158      856.462
10/08/2013  13:28:00     -126.306      104.238      -25.503       52.305       48.134       32.724     2735.859     2316.920     1070.852        1.680        0.306      163.764       20.404        0.016      341.328       15.965      856.443
10/08/2013  13:29:00      -61.245       34.405       -1.997       62.555       38.257       42.786     3913.185     1463.577     1830.607        0.607        0.360       70.247       41.250        0.345      341.668       16.541      856.414
10/08/2013  13:30:00        2.652       16.533       14.502       62.658       25.659       31.747     3926.044      658.380     1007.903        0.304        0.280       16.744       24.944        2.219      341.789       16.746      856.405
10/08/2013  13:31:00        0.029       61.854        4.276       73.437       53.819       39.376     5393.050     2896.521     1550.435        0.684        0.492       61.854       33.583        0.295      341.888       16.914      856.400
10/08/2013  13:32:00       74.068       71.583        2.868       50.160       44.526       40.931     2516.050     1982.606     1675.367        0.839        0.309      103.006       31.335        0.093      341.574       16.382      856.389
10/08/2013  13:33:00       82.640      187.318      -25.742       73.625      135.548       44.624     5420.669    18373.213     1991.291        3.418        1.289      204.737       60.246        0.087      341.330       15.965      856.378
10/08/2013  13:34:00      -32.484      267.025      -19.833       42.004       64.965       31.246     1764.296     4220.450      976.329        3.985        0.348      268.993       20.026        0.006      341.297       15.908      856.373
10/08/2013  13:35:00       17.253      231.892      -27.323       41.953      112.058       42.801     1760.086    12557.059     1831.883        3.548        0.807      232.533       56.065        0.058      341.319       15.946      856.362
10/08/2013  13:36:00      -22.343      168.587      -14.585       91.976      106.147       51.774     8459.654    11267.131     2680.505        2.577        1.120      170.061       60.969        0.129      341.635       16.484      856.344
10/08/2013  13:37:00      -19.339      271.928      -35.031       55.172       65.579       34.636     3043.974     4300.592     1199.619        4.204        0.427      272.615       23.242        0.007      341.293       15.901      856.352
10/08/2013  13:38:00      -43.766      148.156      -16.412       41.668       56.029       36.879     1736.246     3139.271     1360.042        1.518        0.312      154.485       21.317        0.019      341.362       16.023      856.350
10/08/2013  13:39:00      -25.916       78.723        3.341       46.010       55.432       33.790     2116.939     3072.669     1141.751        0.660        0.317       82.879       32.790        0.157      341.683       16.567      856.331
10/08/2013  13:40:00       17.425       71.144       13.178       46.125       61.091       35.554     2127.557     3732.121     1264.052        0.633        0.356       73.247       34.650        0.224      341.619       16.459      856.324
10/08/2013  13:41:00       45.857       51.284       16.972       41.794       34.896       29.542     1746.770     1217.749      872.758        0.443        0.192       68.796       17.272        0.063      341.592       16.412      856.306
10/08/2013  13:42:00      -17.780       -1.150        4.576       47.739       42.154       30.493     2278.986     1777.000      929.848        0.266        0.249       17.817       21.399        1.442      341.758       16.693      856.270
10/08/2013  13:43:00       -7.271      -12.731        6.472       39.198       24.625       28.838     1536.475      606.405      831.623        0.162        0.149       14.661       23.013        2.464      342.002       17.107      856.241
10/08/2013  13:44:00      -35.073      -40.184        4.008       49.246       32.397       32.908     2425.171     1049.578     1082.904        0.371        0.228       53.337       26.622        0.249      341.520       16.291      856.227
10/08/2013  13:45:00      -48.207      -13.755       -3.190       22.971       20.915       13.983      527.667      437.439      195.535        0.184        0.058       50.131       10.997        0.048      341.328       15.966      856.190
10/08/2013  13:46:00       14.422        8.657       31.570       29.891       26.886       23.271      893.498      722.867      541.556        0.172        0.108       16.821       13.423        0.637      341.506       16.267      856.154
10/08/2013  13:47:00      -83.027      -23.470       -4.232       32.867       23.611       19.921     1080.209      557.482      396.850        0.475        0.102       86.280       21.212        0.060      341.563       16.363      856.134
10/08/2013  13:48:00      -27.892        8.943       -4.527       41.111       23.680       19.194     1690.089      560.746      368.408        0.175        0.131       29.291       15.178        0.269      341.515       16.281      856.115
10/08/2013  13:49:00       14.205       28.454        0.410       28.200       23.915       38.563      795.222      571.940     1487.113        0.193        0.143       31.803       22.444        0.498      341.679       16.559      856.096
10/08/2013  13:50:00       12.686       -5.060      -10.481       37.485       18.608       21.151     1405.140      346.261      447.379        0.125        0.110       13.658       16.095        1.389      341.413       16.108      856.082
10/08/2013  13:51:00       -3.799        3.209        6.070       41.170       13.646       13.313     1695.002      186.202      177.233        0.106        0.103        4.973       11.160        5.035      341.653       16.516      856.073
10/08/2013  13:52:00       33.439        7.595       27.022       21.069       20.536       23.095      443.919      421.744      533.357        0.165        0.070       34.291       11.316        0.109      341.434       16.143      856.051
10/08/2013  13:53:00       -4.020       38.744       14.059       18.137       29.248       22.926      328.943      855.456      525.601        0.171        0.085       38.952       11.748        0.091      341.426       16.132      856.025
10/08/2013  13:54:00       18.414       80.098       -2.646       37.404       76.225       28.412     1399.044     5810.292      807.235        0.739        0.401       82.187       36.488        0.197      341.431       16.138      855.988
10/08/2013  13:55:00        2.225      125.809      -22.139       28.286       64.450       23.646      800.070     4153.758      559.117        1.092        0.276      125.829       28.698        0.052      341.433       16.142      855.946
10/08/2013  13:56:00      -37.780      134.587      -14.942       37.686       42.539       27.504     1420.207     1809.544      756.494        1.187        0.199      139.789       23.483        0.028      341.580       16.392      855.921
10/08/2013  13:57:00       48.013       33.906       43.245       50.769       33.575       40.277     2577.488     1127.270     1622.201        0.532        0.266       58.778       17.492        0.089      341.899       16.933      855.895
10/08/2013  13:58:00       83.685        2.200       36.471       55.851      104.364       46.864     3119.344    10891.816     2196.244        1.227        0.810       83.714       47.584        0.323      341.249       15.831      855.855
10/08/2013  13:59:00       -7.773      -19.642       15.082       45.878       86.800       27.373     2104.836     7534.318      749.304        0.553        0.519       21.124       25.661        1.476      341.619       16.457      855.815
10/08/2013  14:00:00       84.769       80.627        6.413       84.583       56.368       38.226     7154.237     3177.353     1461.233        1.276        0.590      116.989       16.959        0.021      341.803       16.769      855.802
10/08/2013  14:01:00      132.782       88.924       39.156       55.266       42.608       46.216     3054.361     1815.419     2135.882        1.704        0.350      159.808       26.789        0.028      341.662       16.529      855.764
10/08/2013  14:02:00       82.009      -59.545       35.117       60.600       94.176       52.133     3672.315     8869.158     2717.889        1.338        0.763      101.347       54.671        0.291      341.554       16.349      855.714
10/08/2013  14:03:00      148.095       89.077       21.189       51.934       44.902       38.128     2697.124     2016.169     1453.712        1.824        0.308      172.820       19.176        0.012      341.660       16.525      855.693
10/08/2013  14:04:00       80.455       78.094       32.906       84.112       68.364       48.238     7074.884     4673.674     2326.933        1.386        0.704      112.123       14.666        0.017      341.980       17.070      855.679
10/08/2013  14:05:00       65.131       42.556       23.008       53.565       44.167       48.068     2869.218     1950.760     2310.511        0.686        0.357       77.801       12.907        0.028      342.032       17.157      855.666
10/08/2013  14:06:00       62.356       49.823        5.495       62.332       33.860       25.029     3885.230     1146.470      626.470        0.603        0.283       79.816       19.195        0.058      342.054       17.195      855.657
10/08/2013  14:07:00       34.453       45.741        7.636       59.471       41.400       36.121     3536.763     1713.927     1304.737        0.495        0.328       57.265       29.486        0.265      341.959       17.034      855.662
10/08/2013  14:08:00        4.052      -54.024      -15.259       19.833       43.633       26.042      393.334     1903.861      678.196        0.307        0.149       54.176       17.831        0.108      341.660       16.527      855.660
10/08/2013  14:09:00      -59.043       89.676      -11.341       40.784       48.947       29.003     1663.326     2395.821      841.149        0.828        0.245      107.368       27.674        0.066      341.694       16.585      855.655
10/08/2013  14:10:00      -66.975       69.376      -18.909       29.556       37.542       17.889      873.555     1409.424      320.009        0.613        0.130       96.429        9.409        0.010      341.576       16.383      855.651
10/08/2013  14:11:00      -52.268      100.639      -21.758       29.194       39.852       20.406      852.309     1588.157      416.388        0.809        0.143      113.402       12.682        0.013      341.521       16.290      855.639
10/08/2013  14:12:00      -39.532       87.011        9.621       61.028       62.306       31.785     3724.384     3882.047     1010.298        0.892        0.431       95.570       29.495        0.095      341.935       16.992      855.619
10/08/2013  14:13:00      -26.724       30.622       11.671       52.881       27.345       25.365     2796.360      747.746      643.366        0.299        0.209       40.643       25.297        0.387      342.100       17.275      855.610
10/08/2013  14:14:00       14.894       69.482        2.072       27.513       52.947       25.891      756.980     2803.338      670.328        0.464        0.212       71.061       28.476        0.161      341.833       16.819      855.620
10/08/2013  14:15:00       90.266      190.856      -19.083       94.389       91.447       58.030     8909.288     8362.566     3367.510        3.278        1.032      211.126       55.413        0.069      341.789       16.743      855.633
10/08/2013  14:16:00      127.529      143.304       -7.999      116.188      140.118       63.841    13499.591    19632.973     4075.703        3.703        1.860      191.832       69.993        0.133      341.790       16.745      855.628
10/08/2013  14:17:00       49.443      144.158      -17.702       47.209       64.044       41.694     2228.671     4101.662     1738.393        1.580        0.403      152.401       37.096        0.059      341.690       16.576      855.643
10/08/2013  14:18:00        8.769       55.660       -4.767       36.746       56.091       30.225     1350.287     3146.172      913.567        0.430        0.271       56.347       30.998        0.303      341.697       16.590      855.624
10/08/2013  14:19:00       57.320      -73.141        7.993       53.890       60.257       35.739     2904.095     3630.902     1277.259        0.825        0.391       92.925       23.291        0.063      341.586       16.401      855.588
10/08/2013  14:20:00       48.929       73.335       77.874       73.558       66.054       64.237     5410.710     4363.089     4126.354        1.387        0.695       88.160       56.618        0.412      341.782       16.733      855.568
10/08/2013  14:21:00       20.661       63.163       23.038       48.616       93.057       42.255     2363.535     8659.614     1785.510        0.888        0.640       66.456       50.035        0.567      342.012       17.123      855.564
10/08/2013  14:22:00       62.637      219.900      -13.540       82.581      101.754       68.847     6819.574    10353.918     4739.944        3.718        1.096      228.647       62.978        0.076      341.874       16.888      855.556
10/08/2013  14:23:00       14.779      323.438      -42.489       76.056      101.239       60.359     5784.475    10249.298     3643.200        6.315        0.984      323.775       59.638        0.034      341.687       16.569      855.541
10/08/2013  14:24:00      -85.808      342.306      -45.920       53.812       65.389       35.957     2895.707     4275.706     1292.924        6.755        0.423      352.897       29.047        0.007      341.538       16.315      855.554
10/08/2013  14:25:00      -51.717      176.343      -28.256       61.212      113.951       35.454     3746.950    12984.843     1256.993        2.628        0.899      183.770       45.501        0.061      341.674       16.549      855.541
10/08/2013  14:26:00      -80.120        7.301      -14.304       63.902       43.916       30.597     4083.420     1928.646      936.169        0.681        0.347       80.452       22.699        0.080      341.886       16.910      855.517
10/08/2013  14:27:00      -32.356       91.548        2.019       34.167       48.212       28.737     1167.381     2324.411      825.841        0.687        0.216       97.098       31.021        0.102      341.986       17.080      855.517
10/08/2013  14:28:00       32.300       69.337       13.853       37.263       48.516       41.047     1388.513     2353.824     1684.844        0.573        0.271       76.491       34.883        0.208      341.861       16.868      855.489
10/08/2013  14:29:00        7.174      221.424      -32.136       23.792       45.716       22.875      566.074     2089.975      523.278        2.665        0.159      221.540       15.736        0.005      341.504       16.259      855.463
10/08/2013  14:30:00      -40.780       67.408       -6.382       48.616       71.521       33.412     2363.551     5115.316     1116.375        0.742        0.430       78.783       41.635        0.279      341.813       16.787      855.437
10/08/2013  14:31:00       16.023       10.948       14.641       55.625       33.580       25.501     3094.173     1127.650      650.308        0.273        0.244       19.406       12.241        0.398      341.930       16.985      855.429
10/08/2013  14:32:00       44.474      196.108      -18.405       70.145      125.703       61.350     4920.311    15801.217     3763.797        3.263        1.224      201.088       64.668        0.103      341.757       16.688      855.417
10/08/2013  14:33:00       81.888      117.584        4.763       79.503       68.142       57.513     6320.761     4643.289     3307.780        1.741        0.714      143.289       44.413        0.096      341.674       16.549      855.403
10/08/2013  14:34:00       99.032       75.825       37.849       69.561       46.810       47.369     4838.749     2191.167     2243.780        1.313        0.464      124.727       20.312        0.027      341.636       16.486      855.383
10/08/2013  14:35:00      126.782       92.509       34.082       62.344       46.709       46.427     3886.795     2181.754     2155.464        1.701        0.411      156.944       21.005        0.018      341.861       16.867      855.378
10/08/2013  14:36:00      130.593       86.577       36.211       97.653       66.498       67.819     9536.019     4421.938     4599.479        2.221        0.928      156.685       52.822        0.114      341.624       16.462      855.369
10/08/2013  14:37:00      114.258      117.518        6.720       91.612       66.907       49.811     8392.711     4476.591     2481.174        2.113        0.768      163.906       22.410        0.019      341.729       16.642      855.378
10/08/2013  14:38:00      102.617       73.715       17.311       37.320       36.249       27.191     1392.760     1314.021      739.346        0.985        0.172      126.349       17.476        0.019      341.576       16.383      855.377
10/08/2013  14:39:00       28.903       -0.438        6.825       38.190       42.599       30.052     1458.472     1814.643      903.144        0.253        0.209       28.906       26.003        0.809      341.395       16.079      855.352
10/08/2013  14:40:00        7.810       50.008       35.148       23.439       35.619       27.519      549.376     1268.729      757.296        0.319        0.129       50.614       20.687        0.167      341.768       16.709      855.326
10/08/2013  14:41:00      -24.961      164.187       -8.573       54.636      145.091       49.657     2985.132    21051.492     2465.804        2.707        1.325      166.073       65.421        0.155      341.820       16.797      855.306
10/08/2013  14:42:00     -100.917      247.475      -27.383       60.166       61.635       36.957     3619.965     3798.859     1365.788        4.048        0.439      267.261       33.845        0.016      341.682       16.560      855.281
10/08/2013  14:43:00     -123.124      212.261      -24.939       59.833       97.003       43.589     3579.972     9409.542     1900.024        3.786        0.744      245.386       41.269        0.028      341.657       16.518      855.268
10/08/2013  14:44:00     -119.790      210.532      -15.685       62.010      123.747       49.154     3845.200    15313.372     2416.089        4.024        1.079      242.225       37.447        0.024      341.740       16.659      855.255
10/08/2013  14:45:00      -52.432      138.979       -7.534       42.296       79.399       39.698     1788.930     6304.130     1575.932        1.589        0.483      148.541       35.741        0.058      341.725       16.634      855.244
10/08/2013  14:46:00      -72.892      159.365      -19.516       54.323       48.819       34.081     2950.997     2383.343     1161.544        1.879        0.325      175.244       29.791        0.029      341.766       16.706      855.223
10/08/2013  14:47:00      -73.333      105.812      -11.102       42.098       62.821       33.321     1772.246     3946.506     1110.278        1.176        0.341      128.740       29.128        0.051      341.781       16.731      855.221
10/08/2013  14:48:00      -69.585      115.141      -13.310       31.961       57.234       28.182     1021.494     3275.694      794.238        1.168        0.255      134.534       18.958        0.020      341.776       16.723      855.208
10/08/2013  14:49:00      -59.341      123.939       -3.532       37.618       75.577       33.892     1415.126     5711.860     1148.669        1.358        0.414      137.413       37.416        0.074      341.905       16.943      855.190
10/08/2013  14:50:00      -80.444      112.316       -4.398       42.918       53.838       29.365     1841.966     2898.510      862.321        1.235        0.280      138.152       26.124        0.036      341.858       16.862      855.189
10/08/2013  14:51:00      -64.492       64.549       -5.780       44.527       47.168       28.719     1982.688     2224.809      824.757        0.669        0.252       91.246       25.335        0.077      341.984       17.078      855.203
10/08/2013  14:52:00       16.795        4.358       12.863       38.823       24.839       26.165     1507.197      616.958      684.597        0.164        0.140       17.351       17.169        0.979      342.040       17.172      855.194
10/08/2013  14:53:00      -51.940       19.171       -0.459       35.075       31.249       30.045     1230.240      976.518      902.686        0.309        0.155       55.365       24.232        0.192      341.869       16.881      855.187
10/08/2013  14:54:00       40.488       29.458       29.377       26.938       27.350       23.971      725.671      748.019      574.623        0.271        0.102       50.070       14.865        0.088      341.575       16.383      855.179
10/08/2013  14:55:00       19.871       25.800        5.416       40.600       37.196       20.479     1648.353     1383.577      419.404        0.227        0.173       32.565       10.478        0.104      341.746       16.671      855.200
10/08/2013  14:56:00       60.339       54.450       40.417       77.992       40.021       43.973     6082.790     1601.709     1933.598        0.893        0.481       81.275       30.374        0.140      341.845       16.841      855.206
10/08/2013  14:57:00       53.447       95.157      -19.743       70.858       54.871       33.464     5020.806     3010.784     1119.832        1.072        0.458      109.139       29.623        0.074      341.804       16.770      855.202
10/08/2013  14:58:00       34.960       79.010       -1.068       55.148       56.994       27.274     3041.275     3248.278      743.882        0.725        0.352       86.399       24.085        0.078      341.921       16.970      855.193
10/08/2013  14:59:00      190.980      140.043       19.526      109.558       72.267       63.033    12002.894     5222.550     3973.176        3.883        1.060      236.824       42.443        0.032      341.769       16.710      855.177
10/08/2013  15:00:00       73.378      153.362      -11.943       60.474       58.094       49.062     3657.145     3374.868     2407.087        1.924        0.472      170.012       40.533        0.057      341.724       16.632      855.198
10/08/2013  15:01:00       12.380      105.038        0.097       54.542       86.032       43.608     2974.777     7401.562     1901.622        1.173        0.614      105.765       52.436        0.246      341.802       16.768      855.181
10/08/2013  15:02:00       24.086      147.362       -1.758       75.420       84.054       47.855     5688.195     7065.113     2290.103        1.867        0.752      149.317       47.928        0.103      341.930       16.984      855.172
10/08/2013  15:03:00       42.516      209.307      -19.558       63.659       80.012       65.872     4052.486     6401.895     4339.130        3.039        0.740      213.581       55.642        0.068      341.605       16.429      855.163
10/08/2013  15:04:00       15.875      206.572      -24.203       50.038      100.250       51.172     2503.766    10050.097     2618.546        2.934        0.759      207.181       56.292        0.074      341.755       16.685      855.144
10/08/2013  15:05:00       32.027      227.411      -25.252       82.145      119.638       52.108     6747.755    14313.176     2715.282        3.857        1.189      229.656       53.379        0.054      341.734       16.650      855.142
10/08/2013  15:06:00       49.374      233.382      -18.056       61.352       87.193       57.608     3764.008     7602.679     3318.715        3.596        0.734      238.547       53.376        0.050      341.673       16.546      855.129
10/08/2013  15:07:00       76.943      107.532       -2.117       73.182       95.851       46.931     5355.607     9187.386     2202.474        1.711        0.837      132.225       51.954        0.154      341.702       16.597      855.121
10/08/2013  15:08:00       73.369      160.124      -10.024       85.491       82.623       44.601     7308.785     6826.560     1989.286        2.362        0.806      176.132       43.285        0.060      341.718       16.624      855.109
10/08/2013  15:09:00       16.946      142.500        1.934       73.539       85.154       57.986     5408.002     7251.190     3362.380        1.831        0.801      143.504       54.394        0.144      341.804       16.769      855.108
10/08/2013  15:10:00      -15.006      191.195      -22.300       27.892       48.635       25.662      777.965     2365.383      658.528        2.054        0.190      191.783       25.036        0.017      341.606       16.433      855.093
10/08/2013  15:11:00       43.952      159.756      -17.258       74.877       67.314       39.575     5606.522     4531.215     1566.165        1.973        0.585      165.692       33.713        0.041      341.700       16.593      855.055
10/08/2013  15:12:00       63.354      150.199        7.216      137.856      131.240       59.151    19004.209    17223.951     3498.822        3.317        1.986      163.014       74.384        0.208      341.818       16.794      855.047
10/08/2013  15:13:00      -44.948      291.882      -32.505       62.568       92.982       43.634     3914.796     8645.744     1903.946        5.137        0.723      295.323       44.900        0.023      341.786       16.736      855.054
10/08/2013  15:14:00      -51.624      160.971      -14.186       90.588       80.676       43.609     8206.220     6508.636     1901.754        2.269        0.831      169.046       34.657        0.042      341.820       16.796      855.059
10/08/2013  15:15:00      -92.252      217.177      -20.139       80.286       70.205       43.201     6445.883     4928.685     1866.357        3.466        0.662      235.958       42.499        0.032      341.565       16.362      855.068
10/08/2013  15:16:00      -79.387      151.791       -7.653       79.957       64.848       48.911     6393.175     4205.272     2392.244        2.119        0.650      171.297       34.059        0.040      341.638       16.487      855.043
10/08/2013  15:17:00      -51.313      204.159      -24.481       57.396      136.910       41.033     3294.299    18744.285     1683.741        3.431        1.186      210.508       51.739        0.060      341.746       16.671      855.066
10/08/2013  15:18:00      -21.793      426.891      -60.282       67.325       91.329       40.613     4532.692     8341.044     1649.402       10.043        0.726      427.447       37.069        0.008      341.428       16.131      855.080
10/08/2013  15:19:00      -75.249      194.182      -25.741       86.894       92.378       45.708     7550.576     8533.719     2089.180        3.110        0.909      208.252       41.551        0.040      341.636       16.484      855.084
10/08/2013  15:20:00     -142.252      185.267      -31.641       71.994      113.533       53.399     5183.074    12889.646     2851.472        3.824        1.046      233.580       57.339        0.060      341.589       16.403      855.074
10/08/2013  15:21:00     -109.653      195.586      -17.226       69.475       91.002       60.779     4826.756     8281.347     3694.109        3.368        0.840      224.227       51.474        0.053      341.648       16.503      855.076
10/08/2013  15:22:00      -47.134      129.792        2.184       42.844       70.788       41.899     1835.624     5011.005     1755.497        1.384        0.430      138.085       28.401        0.042      341.707       16.607      855.048
10/08/2013  15:23:00      -85.969      184.473      -19.266       78.323      108.182       52.078     6134.472    11703.271     2712.150        3.117        1.027      203.521       59.722        0.086      341.827       16.808      855.044
10/08/2013  15:24:00      -83.363      244.830      -28.891       76.199       91.204       38.623     5806.347     8318.149     1491.735        4.167        0.781      258.633       44.687        0.030      341.572       16.375      855.052
10/08/2013  15:25:00      -43.579      302.303      -46.135       59.683      100.879       31.667     3562.055    10176.619     1002.803        5.508        0.737      305.428       26.435        0.007      341.583       16.393      855.030
10/08/2013  15:26:00      -49.644      284.609      -35.757       70.206       67.261       37.659     4928.903     4524.088     1418.196        4.781        0.544      288.907       22.156        0.006      341.692       16.575      855.022
10/08/2013  15:27:00     -129.515      220.619      -34.371       81.291       71.475       44.716     6608.230     5108.632     1999.512        4.017        0.686      255.826       28.031        0.012      341.830       16.810      855.007
10/08/2013  15:28:00      -65.013      302.212      -35.173       81.371      125.161       43.794     6621.278    15665.359     1917.878        6.050        1.210      309.126       47.644        0.024      341.693       16.580      854.995
10/08/2013  15:29:00      -30.749      257.196      -42.191       63.318       83.419       40.676     4009.138     6958.700     1654.542        4.075        0.631      259.027       31.842        0.015      341.801       16.762      854.969
10/08/2013  15:30:00      -32.580      216.960      -26.350       57.580       76.392       41.348     3315.433     5835.675     1709.690        2.984        0.543      219.392       37.217        0.029      341.990       17.085      854.955
10/08/2013  15:31:00      -93.165      167.750      -23.369       65.116       58.292       39.545     4240.050     3398.013     1563.804        2.328        0.460      191.885       39.292        0.042      341.893       16.921      854.947
10/08/2013  15:32:00      -74.966      143.319      -16.793       77.538       80.344       44.572     6012.122     6455.211     1986.673        2.045        0.723      161.741       39.731        0.060      342.089       17.254      854.924
10/08/2013  15:33:00      -37.993      389.927      -51.135       50.280       87.273       28.023     2528.093     7616.652      785.308        8.351        0.547      391.774       33.354        0.007      341.482       16.221      854.922
10/08/2013  15:34:00        1.346      263.249      -28.609       83.241       77.598       48.528     6929.081     6021.380     2354.994        4.271        0.765      263.252       49.615        0.036      341.712       16.611      854.914
10/08/2013  15:35:00      -35.655      286.918      -35.200       74.715       66.206       42.219     5582.301     4383.261     1782.483        4.829        0.587      289.125       33.120        0.013      341.853       16.850      854.919
10/08/2013  15:36:00     -110.863      225.518      -19.958       89.274       99.830       48.792     7969.894     9966.034     2380.674        4.193        1.016      251.295       56.284        0.050      341.918       16.961      854.908
10/08/2013  15:37:00      -13.514      417.749      -48.471       76.160      158.699       58.047     5800.324    25185.502     3369.443       10.569        1.718      417.967       62.490        0.022      341.629       16.470      854.896
10/08/2013  15:38:00      -94.557      289.211      -38.065       81.594       83.673       48.500     6657.537     7001.223     2352.276        5.502        0.801      304.276       38.789        0.016      341.769       16.707      854.882
10/08/2013  15:39:00     -229.716      319.012      -68.081       92.561      100.691       51.507     8567.577    10138.647     2653.000        9.026        1.068      393.113       43.980        0.013      341.700       16.591      854.883
10/08/2013  15:40:00     -127.577      258.940      -41.053       58.832       70.279       45.439     3461.152     4939.159     2064.695        4.774        0.523      288.662       40.086        0.019      341.581       16.389      854.877
10/08/2013  15:41:00      -56.809      265.845      -35.174       63.361       84.604       41.783     4014.608     7157.893     1745.788        4.403        0.646      271.847       40.592        0.022      341.655       16.515      854.865
10/08/2013  15:42:00       33.307      140.926       -4.151       75.644      103.063       60.954     5722.083    10621.993     3715.437        2.052        1.003      144.808       68.483        0.224      341.828       16.809      854.867
10/08/2013  15:43:00     -125.127      278.048      -38.571       93.675      114.637       54.069     8775.070    13141.591     2923.510        5.964        1.242      304.906       51.459        0.028      341.639       16.488      854.884
10/08/2013  15:44:00     -152.064      269.198      -35.720       52.544       76.403       45.737     2760.876     5837.480     2091.871        5.378        0.535      309.178       34.023        0.012      341.447       16.161      854.887
10/08/2013  15:45:00     -107.890      187.113      -19.195       62.631       68.055       45.443     3922.668     4631.464     2065.076        2.882        0.531      215.990       38.275        0.031      341.567       16.366      854.868
10/08/2013  15:46:00     -137.305      190.806      -39.847       74.526       83.874       45.878     5554.157     7034.817     2104.786        3.577        0.735      235.074       47.476        0.041      341.542       16.323      854.855
10/08/2013  15:47:00     -172.414      210.284      -50.669       71.270       86.599       46.165     5079.356     7499.353     2131.237        4.561        0.735      271.930       42.846        0.025      341.584       16.394      854.820
10/08/2013  15:48:00      -98.797      222.883      -25.024       68.577      141.300       43.065     4702.862    19965.704     1854.594        4.329        1.326      243.798       47.824        0.038      341.724       16.632      854.811
10/08/2013  15:49:00      -92.048      204.507      -24.441       80.015       90.292       49.247     6402.421     8152.633     2425.293        3.393        0.849      224.267       44.237        0.039      341.746       16.670      854.804
10/08/2013  15:50:00      -48.879      201.443      -23.354       50.289       76.639       35.308     2529.000     5873.509     1246.670        2.658        0.482      207.288       37.682        0.033      341.570       16.370      854.791
10/08/2013  15:51:00      -72.535      240.237      -20.838       60.635       78.636       38.804     3676.603     6183.623     1505.785        3.739        0.568      250.949       37.080        0.022      341.640       16.489      854.780
10/08/2013  15:52:00      -77.998      232.702      -22.684       70.892       98.889       47.111     5025.677     9778.950     2219.471        3.888        0.851      245.426       53.405        0.047      341.684       16.564      854.779
10/08/2013  15:53:00      -25.670      291.147      -48.697       48.134       70.087       34.914     2316.884     4912.127     1218.962        4.812        0.422      292.277       31.249        0.011      341.509       16.267      854.772
10/08/2013  15:54:00      -77.156      218.392      -20.701       79.020       95.659       46.406     6244.162     9150.552     2153.557        3.581        0.877      231.621       54.025        0.054      341.668       16.536      854.770
10/08/2013  15:55:00      -63.551      241.323      -36.822       42.159       44.667       29.501     1777.411     1995.138      870.292        3.414        0.232      249.551       20.672        0.007      341.455       16.173      854.761
10/08/2013  15:56:00      -45.856      120.533      -10.212       54.777       56.706       39.221     3000.555     3215.612     1538.287        1.224        0.388      128.962       38.479        0.089      341.695       16.588      854.742
10/08/2013  15:57:00      -71.622      117.663       -1.843       77.103       71.294       41.916     5944.883     5082.845     1756.910        1.588        0.639      137.747       40.552        0.087      341.832       16.818      854.735
10/08/2013  15:58:00     -128.977      268.424      -38.862       51.210       98.982       45.288     2622.456     9797.385     2050.982        5.233        0.724      297.803       38.412        0.017      341.570       16.370      854.715
10/08/2013  15:59:00      -64.066       83.436       -1.446       50.574       70.815       39.857     2557.701     5014.781     1588.615        1.011        0.458      105.195       42.284        0.162      341.784       16.736      854.696
10/08/2013  16:00:00      -29.244       45.715       30.555       57.902       95.288       55.521     3352.688     9079.853     3082.573        0.969        0.776       54.268       36.996        0.465      341.877       16.895      854.673
10/08/2013  16:01:00     -148.650       15.288       -7.462      108.304       60.220       46.485    11729.654     3626.397     2160.848        1.995        0.876      149.434       51.201        0.117      341.881       16.899      854.666
10/08/2013  16:02:00     -124.934      146.987      -32.606      112.903       69.142       40.123    12747.043     4780.567     1609.874        2.870        0.957      192.908       40.298        0.044      341.731       16.645      854.658
10/08/2013  16:03:00      -35.007      195.953      -23.236       59.766      101.399       43.493     3571.929    10281.850     1891.605        2.795        0.787      199.055       39.926        0.040      341.796       16.755      854.656
10/08/2013  16:04:00      -67.085      276.246      -39.251       62.969      131.043       46.332     3965.115    17172.381     2146.697        5.281        1.164      284.275       50.598        0.032      341.516       16.280      854.650
10/08/2013  16:05:00     -170.060      236.981      -37.559       75.951       84.193       53.667     5768.505     7088.499     2880.138        5.111        0.787      291.685       50.410        0.030      341.503       16.256      854.646
10/08/2013  16:06:00     -119.125      124.436      -18.854       68.228       60.146       41.356     4655.063     3617.549     1710.346        2.000        0.499      172.265       42.872        0.062      341.634       16.481      854.646
10/08/2013  16:07:00     -112.966       80.162      -16.550       82.819       80.900       44.061     6858.982     6544.747     1941.401        1.740        0.767      138.518       42.579        0.094      341.595       16.415      854.632
10/08/2013  16:08:00      -89.761      102.608      -13.577       78.843       90.158       43.983     6216.189     8128.551     1934.481        1.752        0.814      136.328       52.602        0.149      341.797       16.757      854.631
10/08/2013  16:09:00     -201.438      219.995      -56.686      117.445       90.504       51.939    13793.376     8190.977     2697.680        5.843        1.234      298.287       57.870        0.038      341.519       16.285      854.634
10/08/2013  16:10:00      -58.864      127.007       -9.307       46.232       70.940       44.056     2137.353     5032.527     1940.924        1.439        0.456      139.985       45.185        0.104      341.707       16.605      854.610
10/08/2013  16:11:00      -77.374      169.163      -13.179       59.019       52.010       42.860     3483.243     2705.063     1837.010        2.140        0.401      186.019       30.478        0.027      341.705       16.601      854.596
10/08/2013  16:12:00      -74.545      101.569      -12.811       59.584       69.238       34.267     3550.270     4793.895     1174.241        1.278        0.476      125.989       30.027        0.057      341.766       16.706      854.578
10/08/2013  16:13:00     -109.018      145.772      -33.636       54.433       64.705       37.516     2962.961     4186.705     1407.446        2.141        0.428      182.028       30.447        0.028      341.840       16.831      854.594
10/08/2013  16:14:00     -114.030      143.813      -18.212       66.437       82.747       43.666     4413.836     6847.051     1906.697        2.359        0.658      183.535       39.475        0.046      341.676       16.553      854.590
10/08/2013  16:15:00      -96.593      144.732       -0.563       83.519       78.474       53.664     6975.480     6158.157     2879.822        2.314        0.801      174.004       55.275        0.101      341.757       16.691      854.592
10/08/2013  16:16:00     -122.315      133.933       -6.782       96.886      122.155       53.587     9386.899    14921.913     2871.513        3.006        1.359      181.381       49.449        0.074      341.809       16.777      854.577
10/08/2013  16:17:00     -114.791      233.605      -26.225       72.925       84.098       47.888     5318.017     7072.506     2293.304        4.156        0.734      260.285       50.730        0.038      341.598       16.419      854.561
10/08/2013  16:18:00     -164.924      177.768      -15.422      113.529       95.408       67.950    12888.824     9102.690     4617.151        4.282        1.330      242.489       58.383        0.058      341.664       16.531      854.545
10/08/2013  16:19:00     -166.919      150.092      -37.683       74.628       82.790       49.098     5569.380     6854.157     2410.582        3.332        0.742      224.476       52.308        0.054      341.749       16.675      854.548
10/08/2013  16:20:00     -207.059      228.008      -51.916       79.548       99.031       46.300     6327.816     9807.070     2143.706        5.791        0.914      307.995       51.112        0.028      341.390       16.065      854.541
10/08/2013  16:21:00     -122.936      207.395      -36.800      131.745      115.159       52.305    17356.761    13261.496     2735.826        4.641        1.668      241.093       54.770        0.052      341.643       16.494      854.513
10/08/2013  16:22:00        8.703      371.053      -52.524       51.860       73.012       41.326     2689.464     5330.741     1707.823        7.512        0.486      371.155       35.988        0.009      341.490       16.235      854.519
10/08/2013  16:23:00       -3.849      165.752      -11.194       54.191      105.801       40.066     2936.666    11193.920     1605.313        2.167        0.787      165.796       41.691        0.063      341.660       16.526      854.515
10/08/2013  16:24:00       -5.382      125.019        2.474       55.801      108.764       62.218     3113.779    11829.668     3871.080        1.724        0.941      125.134       61.249        0.240      341.714       16.616      854.496
10/08/2013  16:25:00       10.886      257.003      -28.181       67.983       93.322       56.277     4621.729     8708.978     3167.094        4.173        0.825      257.234       52.537        0.042      341.535       16.311      854.478
10/08/2013  16:26:00      -13.902      135.056        6.455      107.960       92.747       61.485    11655.370     8601.971     3780.370        2.125        1.202      135.770       64.891        0.228      341.646       16.501      854.460
10/08/2013  16:27:00     -137.113      200.410      -37.546       66.053       70.348       44.688     4362.992     4948.895     1997.034        3.584        0.565      242.825       38.487        0.025      341.721       16.626      854.467
10/08/2013  16:28:00      -63.502      180.520      -13.406       49.950      102.760       43.829     2494.953    10559.581     1921.023        2.588        0.749      191.363       39.782        0.043      341.745       16.669      854.469
10/08/2013  16:29:00     -172.533      148.571      -31.948      101.874      109.794       54.342    10378.250    12054.764     2953.063        3.912        1.269      227.686       64.525        0.080      341.554       16.345      854.471
10/08/2013  16:30:00      -65.453       85.167       -4.253       63.631       78.296       41.498     4048.880     6130.193     1722.117        1.173        0.595      107.413       29.765        0.077      341.620       16.458      854.462
10/08/2013  16:31:00     -207.001      118.325      -31.918      107.917       97.130       45.996    11646.160     9434.243     2115.609        4.053        1.160      238.433       52.121        0.048      341.487       16.232      854.452
10/08/2013  16:32:00     -159.583      194.446      -21.922       88.441      116.993       56.939     7821.896    13687.371     3242.078        4.425        1.238      251.547       48.867        0.038      341.411       16.102      854.446
10/08/2013  16:33:00     -119.718      263.557      -26.409       59.215       73.055       47.161     3506.467     5337.102     2224.142        4.778        0.553      289.473       41.457        0.021      341.295       15.905      854.441
10/08/2013  16:34:00     -122.015      199.218      -29.852       89.941       75.538       52.263     8089.383     5706.051     2731.432        3.599        0.826      233.614       50.957        0.048      341.438       16.147      854.415
10/08/2013  16:35:00      -29.316      317.213      -37.296       69.698       95.651       47.821     4857.778     9149.128     2286.884        5.958        0.815      318.565       47.927        0.023      341.383       16.053      854.397
10/08/2013  16:36:00      -83.187      314.653      -34.599       68.606      114.317       52.444     4706.851    13068.383     2750.376        6.382        1.026      325.464       55.144        0.029      341.403       16.088      854.386
10/08/2013  16:37:00       -7.052      243.860      -24.189       63.722      104.485       56.105     4060.516    10917.076     3147.746        3.911        0.906      243.962       60.703        0.062      341.422       16.121      854.366
10/08/2013  16:38:00      -29.544      258.470      -22.962       52.450       88.861       45.189     2751.049     7896.354     2042.043        4.045        0.634      260.153       37.656        0.021      341.395       16.074      854.346
10/08/2013  16:39:00      -44.552      222.602      -25.895       48.535       98.165       38.981     2355.602     9636.456     1519.530        3.286        0.676      227.016       43.827        0.037      341.475       16.211      854.338
10/08/2013  16:40:00       -5.622      297.416      -24.406       64.900      138.143       62.384     4211.954    19083.381     3891.736        5.813        1.359      297.470       76.082        0.065      341.452       16.170      854.327
10/08/2013  16:41:00     -103.590      299.535      -35.018       66.048       86.918       45.514     4362.353     7554.663     2071.491        5.783        0.699      316.942       44.865        0.020      341.273       15.866      854.337
10/08/2013  16:42:00     -107.648      261.154      -36.913       89.243       78.006       43.754     7964.374     6084.991     1914.449        4.855        0.798      282.470       36.426        0.017      341.269       15.860      854.321
10/08/2013  16:43:00      -58.606      276.447      -31.310       70.353       87.632       40.867     4949.535     7679.335     1670.102        4.757        0.715      282.590       38.762        0.019      341.276       15.873      854.308
10/08/2013  16:44:00      -44.915      313.003      -37.252       46.586       78.797       42.435     2170.237     6208.968     1800.770        5.578        0.509      316.209       41.338        0.017      341.238       15.809      854.298
10/08/2013  16:45:00     -101.585      217.869      -18.378      121.137      140.590       57.758    14674.118    19765.688     3336.018        4.794        1.889      240.388       61.446        0.065      341.284       15.886      854.286
10/08/2013  16:46:00      -69.975      106.677      -18.974       51.685       70.960       37.883     2671.289     5035.308     1435.159        1.289        0.457      127.580       39.204        0.094      341.356       16.010      854.291
10/08/2013  16:47:00      -30.482      264.829      -24.971       51.975       68.004       35.588     2701.444     4624.570     1266.528        4.014        0.430      266.577       30.111        0.013      341.236       15.804      854.285
10/08/2013  16:48:00      -93.190      184.877      -15.327       61.534       73.050       41.204     3786.482     5336.249     1697.741        2.696        0.541      207.036       38.230        0.034      341.325       15.957      854.255
10/08/2013  16:49:00      -85.103      217.113      -23.563       71.502      110.639       48.738     5112.590    12241.050     2375.423        3.733        0.986      233.197       55.155        0.056      341.246       15.822      854.244
10/08/2013  16:50:00      -28.484      301.739      -35.273       55.624       87.993       36.768     3094.000     7742.692     1351.889        5.264        0.609      303.081       41.329        0.019      341.231       15.797      854.242
10/08/2013  16:51:00      -64.688      250.364      -34.102       72.167      104.002       48.958     5208.048    10816.497     2396.913        4.322        0.921      258.586       54.575        0.045      341.251       15.830      854.227
10/08/2013  16:52:00      -28.490      174.546      -15.596       79.894       81.563       54.132     6383.059     6652.454     2930.299        2.374        0.798      176.856       50.212        0.081      341.361       16.018      854.221
10/08/2013  16:53:00      -96.383      233.214      -27.926       62.142       78.540       41.093     3861.590     6168.483     1688.610        3.809        0.586      252.346       36.402        0.021      341.202       15.748      854.226
10/08/2013  16:54:00       18.541      172.687      -15.259       82.888      101.555       50.288     6870.366    10313.507     2528.860        2.505        0.986      173.680       55.498        0.102      341.271       15.867      854.221
10/08/2013  16:55:00      -10.225      231.269      -22.529       69.847      112.040       43.256     4878.626    12552.855     1871.069        3.670        0.965      231.495       53.017        0.052      341.270       15.864      854.220
10/08/2013  16:56:00      132.594      139.917       28.300      111.740       81.359       73.673    12485.877     6619.340     5427.713        3.124        1.227      192.764       63.025        0.107      341.224       15.785      854.230
10/08/2013  16:57:00       86.961      116.752        8.946       82.748       62.985       65.601     6847.186     3967.079     4303.445        1.819        0.756      145.579       49.879        0.117      341.183       15.716      854.231
10/08/2013  16:58:00       69.669       88.358       11.832       62.176       75.397       48.354     3865.839     5684.684     2338.118        1.234        0.594      112.521       44.356        0.155      341.201       15.750      854.236
10/08/2013  16:59:00        0.205      222.714      -21.483       80.073       91.395       42.576     6411.683     8352.972     1812.730        3.332        0.829      222.715       46.804        0.044      341.220       15.778      854.265
10/08/2013  17:00:00      -34.786      273.666      -30.658       78.142       86.974       50.311     6106.163     7564.476     2531.201        4.662        0.810      275.868       52.634        0.036      341.226       15.789      854.291
10/08/2013  17:01:00        5.947      222.377      -19.745       59.053      113.137       51.469     3487.255    12800.034     2649.011        3.440        0.947      222.456       61.272        0.076      341.219       15.779      854.298
10/08/2013  17:02:00        4.980      197.307       -9.626       55.726      103.462       51.408     3105.379    10704.399     2642.816        2.775        0.823      197.370       64.691        0.107      341.272       15.865      854.286
10/08/2013  17:03:00       38.230      300.089      -31.499       69.945      131.112       65.395     4892.329    17190.322     4276.442        5.943        1.318      302.514       75.326        0.062      341.215       15.770      854.278
10/08/2013  17:04:00      -56.658      343.094      -41.924       63.555      109.990       40.961     4039.202    12097.778     1677.825        7.024        0.891      347.741       38.841        0.012      341.130       15.626      854.284
10/08/2013  17:05:00       -0.492      357.327      -47.656       60.163       90.321       34.992     3619.628     8157.866     1224.446        7.148        0.650      357.328       42.117        0.014      341.088       15.555      854.256
10/08/2013  17:06:00      -29.591      386.760      -43.431       79.937      131.941       49.415     6389.884    17408.552     2441.868        8.929        1.312      387.890       54.474        0.020      341.032       15.461      854.243
10/08/2013  17:07:00      -86.600      362.954      -43.745       71.079      103.639       55.131     5052.248    10740.988     3039.435        7.999        0.942      373.142       56.366        0.023      341.053       15.495      854.242
10/08/2013  17:08:00     -163.697      263.877      -41.247       76.659       80.389       56.697     5876.631     6462.361     3214.498        5.684        0.778      310.528       56.743        0.033      341.132       15.628      854.248
10/08/2013  17:09:00     -156.756      240.978      -47.224       86.646       97.657       54.188     7507.604     9536.824     2936.346        5.242        0.999      287.477       63.829        0.049      341.136       15.636      854.223
10/08/2013  17:10:00     -123.741      260.304      -36.697       67.556       75.077       44.589     4563.821     5636.554     1988.140        4.830        0.609      288.219       41.020        0.020      341.160       15.676      854.211
10/08/2013  17:11:00     -116.661      188.967      -25.555       56.993      101.648       44.235     3248.215    10332.261     1956.737        3.275        0.777      222.077       53.746        0.059      341.171       15.694      854.209
10/08/2013  17:12:00      -32.361      145.784       -8.132       76.474       75.021       35.030     5848.339     5628.078     1227.084        1.753        0.635      149.333       40.092        0.072      341.275       15.873      854.197
10/08/2013  17:13:00       -8.629      240.023      -24.157       46.431       67.932       37.363     2155.821     4614.696     1395.967        3.322        0.408      240.178       33.064        0.019      341.179       15.708      854.183
10/08/2013  17:14:00       28.571      205.432      -18.726       63.559      107.607       51.808     4039.809    11579.177     2684.112        3.083        0.915      207.410       62.556        0.091      341.236       15.806      854.173
10/08/2013  17:15:00      -26.036      258.684      -29.434       33.215       65.952       21.109     1103.231     4349.699      445.576        3.718        0.295      259.990       19.103        0.005      341.153       15.665      854.172
10/08/2013  17:16:00      -56.569      134.989      -16.908       49.165       63.515       27.926     2417.233     4034.147      779.858        1.447        0.362      146.363       27.442        0.035      341.367       16.030      854.160
10/08/2013  17:17:00      -60.302      107.587      -11.197       50.207       69.396       29.909     2520.785     4815.827      894.524        1.178        0.412      123.334       27.760        0.051      341.396       16.078      854.152
10/08/2013  17:18:00      -50.027       99.034       -8.924       31.057       55.936       25.627      964.561     3128.834      656.753        0.857        0.238      110.953       27.223        0.060      341.342       15.988      854.140
10/08/2013  17:19:00      -49.887      131.229      -20.761       57.926       56.687       32.957     3355.478     3213.431     1086.165        1.390        0.383      140.392       35.997        0.066      341.336       15.976      854.131
10/08/2013  17:20:00     -113.040      141.281      -19.121       44.119       50.147       40.646     1946.511     2514.757     1652.103        1.961        0.306      180.937       34.452        0.036      341.418       16.115      854.113
10/08/2013  17:21:00      -33.469      143.210      -20.790       52.867       49.563       29.561     2794.965     2456.455      873.838        1.409        0.306      147.069       25.197        0.029      341.325       15.958      854.104
10/08/2013  17:22:00      -87.709      112.627      -16.311       44.746       62.393       34.189     2002.194     3892.871     1168.860        1.385        0.353      142.751       31.632        0.049      341.330       15.968      854.082
10/08/2013  17:23:00      -76.508      132.178      -18.944       68.350       69.025       34.027     4671.671     4764.480     1157.855        1.714        0.530      152.724       31.828        0.043      341.369       16.032      854.066
10/08/2013  17:24:00      -55.662       74.390      -10.228       57.292       48.800       35.450     3282.390     2381.452     1256.675        0.783        0.346       92.910       38.142        0.169      341.341       15.987      854.060
10/08/2013  17:25:00      -27.373      166.011      -21.572       39.549       53.468       27.811     1564.134     2858.837      773.462        1.698        0.260      168.253       27.609        0.027      341.222       15.783      854.050
10/08/2013  17:26:00      -24.243      154.956      -21.085       53.715       27.705       23.594     2885.299      767.587      556.696        1.463        0.210      156.841       14.731        0.009      341.253       15.837      854.032
10/08/2013  17:27:00       37.274       73.563       -0.949       32.606       56.640       34.234     1063.133     3208.060     1171.975        0.612        0.272       82.467       38.568        0.219      341.222       15.784      854.012
10/08/2013  17:28:00       -3.648       33.632       16.743       33.957       39.003       22.638     1153.048     1521.197      512.489        0.231        0.159       33.829       24.214        0.512      341.395       16.077      854.001
10/08/2013  17:29:00      -18.356      144.282      -25.762       29.346       31.109       21.263      861.185      967.753      452.119        1.205        0.114      145.445       14.854        0.010      341.274       15.871      853.995
10/08/2013  17:30:00      -94.971      160.123      -27.487       44.374       55.322       29.953     1969.058     3060.523      897.154        2.067        0.296      186.169       30.472        0.027      341.289       15.898      853.990
10/08/2013  17:31:00       -4.953      120.651        2.085       54.297       82.135       36.697     2948.217     6746.134     1346.635        1.281        0.552      120.752       36.331        0.091      341.420       16.119      853.993
10/08/2013  17:32:00       37.779       50.983       28.404       49.244       39.639       38.972     2424.985     1571.233     1518.844        0.517        0.276       63.455       30.022        0.224      341.402       16.090      853.992
10/08/2013  17:33:00      -13.103      141.848      -16.801       28.888       54.659       24.566      834.516     2987.632      603.484        1.250        0.221      142.452       28.691        0.041      341.286       15.892      853.995
10/08/2013  17:34:00        9.098      143.549      -20.007       19.529       33.496       19.828      381.395     1121.996      393.142        1.149        0.095      143.837       13.008        0.008      341.273       15.870      853.999
10/08/2013  17:35:00        6.904      145.373       -8.370       48.528       76.387       34.695     2355.003     5835.002     1203.728        1.532        0.470      145.537       35.604        0.060      341.284       15.889      853.991
10/08/2013  17:36:00      -39.223      221.060      -26.878       52.677       61.361       24.684     2774.892     3765.223      609.315        2.914        0.357      224.513       21.251        0.009      341.240       15.811      853.974
10/08/2013  17:37:00       19.994       63.619       -1.610       48.724       64.343       30.851     2374.066     4140.084      951.806        0.596        0.373       66.686       39.220        0.346      341.304       15.924      853.958
10/08/2013  17:38:00       66.069       55.421        8.505       58.049       40.015       35.787     3369.656     1601.161     1280.704        0.688        0.313       86.236       22.790        0.070      341.284       15.891      853.937
10/08/2013  17:39:00       52.832       59.412       21.226       44.186       41.094       44.449     1952.398     1688.711     1975.743        0.619        0.281       79.505       36.805        0.214      341.322       15.953      853.934
10/08/2013  17:40:00       39.701       95.218       -6.295       46.041       57.114       33.181     2119.789     3262.002     1100.994        0.858        0.324      103.163       29.150        0.080      341.260       15.849      853.923
10/08/2013  17:41:00       45.381       99.815       -0.261       47.283       65.765       39.953     2235.666     4324.986     1596.213        1.009        0.408      109.647       36.150        0.109      341.124       15.619      853.912
10/08/2013  17:42:00      101.081       55.950       25.286       54.051       49.630       43.605     2921.523     2463.118     1901.424        1.064        0.364      115.533       24.711        0.046      341.025       15.450      853.904
10/08/2013  17:43:00      132.798       75.135        2.105       65.153       40.110       32.143     4244.949     1608.813     1033.172        1.508        0.344      152.580       13.944        0.008      341.047       15.487      853.900
10/08/2013  17:44:00       86.731       59.033       16.132       48.261       45.545       34.176     2329.158     2074.378     1167.991        0.842        0.279      104.915       22.453        0.046      340.923       15.279      853.904
10/08/2013  17:45:00       68.619       55.738        7.961       50.762       29.535       28.452     2576.766      872.317      809.503        0.607        0.213       88.404       24.378        0.076      341.070       15.529      853.911
10/08/2013  17:46:00       52.820       39.340       12.527       44.239       28.596       19.342     1957.121      817.714      374.131        0.382        0.157       65.860       13.817        0.044      341.055       15.504      853.902
10/08/2013  17:47:00       47.969       47.591        2.855       35.746       29.756       24.880     1277.791      885.423      619.012        0.368        0.139       67.572       13.449        0.040      340.977       15.371      853.897
10/08/2013  17:48:00       52.626       47.153       13.476       44.692       29.978       22.416     1997.412      898.665      502.470        0.429        0.170       70.660       17.916        0.064      341.061       15.515      853.891
10/08/2013  17:49:00       70.459       79.789        2.815       39.663       40.213       31.076     1573.185     1617.102      965.747        0.775        0.208      106.446       29.290        0.076      341.039       15.474      853.876
10/08/2013  17:50:00       97.651       74.552       20.019       43.796       36.811       31.299     1918.129     1355.085      979.624        0.987        0.213      122.857       16.453        0.018      340.945       15.314      853.875
10/08/2013  17:51:00      128.854       78.703       22.151       69.951       48.673       38.074     4893.089     2369.017     1449.623        1.600        0.436      150.989       22.639        0.022      340.935       15.298      853.862
10/08/2013  17:52:00      114.830       94.644       31.664       47.898       37.010       39.506     2294.215     1369.706     1560.719        1.418        0.261      148.806       27.154        0.033      340.919       15.271      853.858
10/08/2013  17:53:00      128.938       92.324       34.190       40.411       33.577       30.835     1633.011     1127.431      950.777        1.501        0.186      158.584       22.887        0.021      340.931       15.292      853.852
10/08/2013  17:54:00      106.558       70.275       34.132       60.757       42.272       40.139     3691.449     1786.950     1611.120        1.227        0.354      127.645       31.792        0.062      340.934       15.297      853.845
10/08/2013  17:55:00       77.231       55.766        9.370       47.704       35.878       35.820     2275.635     1287.197     1283.065        0.700        0.242       95.260       28.465        0.089      340.863       15.178      853.825
10/08/2013  17:56:00       93.570       86.589       11.816       61.419       35.340       37.087     3772.238     1248.896     1375.416        1.139        0.320      127.487       28.272        0.049      340.894       15.230      853.821
10/08/2013  17:57:00       51.997       78.934       -7.565       40.385       34.578       27.818     1630.981     1195.667      773.835        0.630        0.180       94.521       21.132        0.050      340.900       15.239      853.811
10/08/2013  17:58:00       74.009       48.802       23.526       47.584       30.822       34.892     2264.207      949.988     1217.430        0.642        0.222       88.651       24.308        0.075      340.864       15.178      853.802
10/08/2013  17:59:00      127.145       55.054       17.241       58.343       39.577       36.311     3403.864     1566.319     1318.499        1.289        0.314      138.552       23.338        0.028      340.818       15.100      853.786
10/08/2013  18:00:00      113.216       96.704       19.505       59.657       44.260       50.138     3558.982     1958.966     2513.820        1.529        0.402      148.894       36.088        0.059      340.827       15.117      853.776
10/08/2013  18:01:00       88.796       64.958       21.870       61.794       34.122       30.390     3818.521     1164.314      923.551        0.924        0.295      110.019       10.220        0.009      340.798       15.066      853.760
10/08/2013  18:02:00       88.015       76.964        9.740       73.336       54.903       39.322     5378.133     3014.305     1546.225        1.185        0.497      116.919       30.578        0.068      340.790       15.053      853.760
10/08/2013  18:03:00      102.473       93.526       11.848       57.129       41.300       36.980     3263.733     1705.700     1367.514        1.286        0.317      138.737       22.781        0.027      340.758       14.999      853.753
10/08/2013  18:04:00       87.864       84.240       17.836       56.984       45.347       43.520     3247.188     2056.346     1894.004        1.116        0.360      121.723       15.219        0.016      340.758       15.000      853.752
10/08/2013  18:05:00       98.165       52.542       15.810       45.957       32.435       28.110     2112.031     1051.999      790.183        0.830        0.198      111.342       15.388        0.019      340.683       14.873      853.749
10/08/2013  18:06:00      136.373       97.005       15.260       77.741       64.149       48.922     6043.663     4115.118     2393.386        2.039        0.628      167.355       43.587        0.068      340.694       14.890      853.747
10/08/2013  18:07:00      175.399      134.797       18.808       78.768       61.142       56.714     6204.459     3738.324     3216.513        3.122        0.658      221.213       30.883        0.019      340.701       14.899      853.739
10/08/2013  18:08:00      129.341       96.411       18.036       83.039       49.437       50.900     6895.488     2443.988     2590.812        1.914        0.597      161.320       39.674        0.060      340.669       14.848      853.721
10/08/2013  18:09:00      102.573       91.773       11.997       68.145       49.555       55.770     4643.742     2455.653     3110.282        1.465        0.510      137.636       35.282        0.066      340.671       14.851      853.705
10/08/2013  18:10:00       94.692      133.246       -0.624       65.880       81.078       50.685     4340.230     6573.667     2568.961        2.010        0.674      163.466       50.078        0.094      340.660       14.832      853.689
10/08/2013  18:11:00      110.297       90.435        3.821       68.379       47.112       43.639     4675.658     2219.579     1904.393        1.458        0.440      142.632       32.783        0.053      340.642       14.802      853.675
10/08/2013  18:12:00      152.574      108.056       25.429       72.901       46.915       43.914     5314.495     2200.983     1928.432        2.252        0.472      186.962       29.002        0.024      340.641       14.801      853.677
10/08/2013  18:13:00      130.315       71.211       24.426       71.093       48.000       41.150     5054.257     2304.002     1693.353        1.585        0.453      148.503       18.337        0.015      340.590       14.716      853.670
10/08/2013  18:14:00       52.793       93.346       16.043       48.049       67.784       41.977     2308.754     4594.682     1762.081        1.021        0.433      107.241       39.680        0.137      340.567       14.678      853.671
10/08/2013  18:15:00      152.062      132.244        7.620      102.634       71.377       62.534    10533.706     5094.674     3910.495        3.010        0.977      201.522       48.492        0.058      340.559       14.661      853.666
10/08/2013  18:16:00       77.330      101.937       -4.421       64.280       55.732       44.524     4131.942     3106.098     1982.366        1.280        0.461      127.950       33.988        0.071      340.502       14.566      853.667
10/08/2013  18:17:00       93.912       91.984        3.189       91.060       65.218       55.801     8292.009     4253.338     3113.702        1.647        0.783      131.455       38.571        0.086      340.497       14.556      853.669
10/08/2013  18:18:00       66.478      183.470      -12.993       81.033       84.130       50.940     6566.382     7077.905     2594.911        2.724        0.812      195.143       55.639        0.081      340.500       14.560      853.663
10/08/2013  18:19:00       88.109       97.774       12.711       72.313       61.489       49.822     5229.113     3780.896     2482.279        1.449        0.575      131.617       32.005        0.059      340.448       14.474      853.661
10/08/2013  18:20:00       50.458       96.207      -14.421       73.466       80.890       37.260     5397.295     6543.133     1388.321        1.267        0.666      108.636       47.886        0.194      340.414       14.418      853.656
10/08/2013  18:21:00       25.244      151.889       -3.121       63.785       85.670       56.804     4068.485     7339.337     3226.739        1.917        0.732      153.972       55.349        0.129      340.440       14.461      853.653
10/08/2013  18:22:00       45.540      149.322        2.614       69.041      106.347       55.716     4766.705    11309.746     3104.259        2.178        0.959      156.112       56.980        0.133      340.418       14.423      853.653
10/08/2013  18:23:00       26.338      133.424       -2.457       48.873       78.581       43.176     2388.607     6175.041     1864.144        1.446        0.521      135.999       39.180        0.083      340.396       14.386      853.655
10/08/2013  18:24:00       78.954       92.804        1.854       56.673       52.081       33.836     3211.864     2712.426     1144.847        1.096        0.353      121.845       32.502        0.071      340.367       14.338      853.644
10/08/2013  18:25:00       93.218       68.422        1.670       65.235       32.761       33.077     4255.638     1073.251     1094.062        0.990        0.321      115.634       21.896        0.036      340.320       14.259      853.640
10/08/2013  18:26:00      107.631       83.553       20.744      102.058       70.216       50.470    10415.852     4930.342     2547.236        1.844        0.895      136.256       29.562        0.047      340.339       14.291      853.647
10/08/2013  18:27:00      134.584      131.263       18.880       72.276       57.663       57.867     5223.792     3325.013     3348.592        2.380        0.595      187.997       46.888        0.062      340.343       14.296      853.638
10/08/2013  18:28:00      104.119      112.258        5.454       64.917       63.240       59.196     4214.251     3999.246     3504.170        1.759        0.586      153.110       47.557        0.096      340.299       14.224      853.632
10/08/2013  18:29:00       64.282      100.698        2.796       71.533       52.763       38.040     5117.023     2783.921     1447.077        1.181        0.467      119.466       35.738        0.089      340.288       14.204      853.622
10/08/2013  18:30:00       74.511       83.119       -3.052       57.524       45.440       39.033     3309.030     2064.795     1523.600        0.968        0.345      111.627       34.694        0.097      340.270       14.174      853.598
10/08/2013  18:31:00       21.038       99.850      -13.168       36.175       55.919       19.390     1308.631     3126.955      375.962        0.770        0.241      102.043       21.458        0.044      340.249       14.139      853.588
10/08/2013  18:32:00       43.261       86.031       -9.077       40.315       55.548       27.304     1625.325     3085.591      745.529        0.740        0.273       96.295       14.624        0.023      340.284       14.198      853.570
10/08/2013  18:33:00       46.412      129.011      -18.512       44.379       71.851       31.093     1969.529     5162.551      966.754        1.362        0.405      137.106       35.737        0.068      340.266       14.165      853.546
10/08/2013  18:34:00       32.588       75.189        5.384       43.954       61.728       35.332     1931.945     3810.375     1248.360        0.687        0.350       81.947       33.540        0.168      340.215       14.082      853.535
10/08/2013  18:35:00       40.268       55.325        2.561       49.145       38.957       27.684     2415.266     1517.635      766.397        0.469        0.235       68.427       29.734        0.189      340.184       14.030      853.526
10/08/2013  18:36:00       32.770      111.453       -3.326       46.126       50.744       34.737     2127.635     2574.986     1206.682        0.971        0.295      116.171       34.715        0.089      340.164       13.996      853.515
10/08/2013  18:37:00       64.483       74.179        5.585       44.462       45.055       36.908     1976.837     2029.942     1362.209        0.753        0.268       98.289       30.271        0.095      340.150       13.971      853.503
10/08/2013  18:38:00       50.105      115.973       -7.552       45.679       51.107       32.171     2086.578     2611.959     1034.960        1.087        0.287      126.334       27.928        0.049      340.135       13.946      853.495
10/08/2013  18:39:00       74.218      109.987       -1.105       58.416       54.149       46.158     3412.487     2932.063     2130.582        1.304        0.424      132.685       38.035        0.082      340.161       13.989      853.490
10/08/2013  18:40:00       27.228      139.234      -19.116       26.838       49.810       34.916      720.298     2480.990     1219.096        1.246        0.221      141.871       32.776        0.053      340.125       13.930      853.478
10/08/2013  18:41:00       31.340       86.183       -3.171       31.287       61.836       31.872      978.858     3823.714     1015.839        0.712        0.291       91.704       32.330        0.124      340.104       13.894      853.487
10/08/2013  18:42:00       34.376       98.347       -0.486       45.475       55.729       37.362     2067.966     3105.709     1395.922        0.871        0.328      104.182       36.413        0.122      340.112       13.907      853.481
10/08/2013  18:43:00       32.440      110.297       -5.446       44.120       84.754       38.574     1946.604     7183.271     1487.924        1.193        0.531      114.969       36.452        0.101      340.100       13.887      853.479
10/08/2013  18:44:00       33.172      118.211      -10.556       41.610       64.950       37.550     1731.411     4218.484     1410.001        1.127        0.368      122.777       33.811        0.076      340.138       13.951      853.476
10/08/2013  18:45:00       63.249       70.083       17.721       58.806       45.119       44.260     3458.087     2035.718     1958.963        0.834        0.373       94.404       33.818        0.128      340.109       13.902      853.471
10/08/2013  18:46:00       35.109      118.425      -10.732       41.664       49.351       36.425     1735.928     2435.492     1326.756        1.043        0.275      123.520       29.007        0.055      340.069       13.836      853.462
10/08/2013  18:47:00       83.382      168.638      -15.353       66.752       83.316       43.411     4455.833     6941.620     1884.525        2.445        0.664      188.126       43.998        0.055      340.116       13.914      853.454
10/08/2013  18:48:00       78.362       93.240        1.190       56.014       50.695       41.545     3137.556     2569.999     1726.023        1.113        0.372      121.797       33.675        0.076      340.071       13.837      853.435
10/08/2013  18:49:00       59.646       66.759        6.809       58.381       58.592       38.443     3408.365     3433.020     1477.835        0.819        0.416       89.523       37.782        0.178      340.075       13.845      853.425
10/08/2013  18:50:00       53.675       94.207       -5.659       38.621       58.829       38.483     1491.613     3460.816     1480.952        0.911        0.322      108.425       30.987        0.082      340.047       13.798      853.417
10/08/2013  18:51:00       51.728      108.861        2.420       52.681       58.564       36.098     2775.243     3429.713     1303.076        1.102        0.375      120.526       36.625        0.092      340.038       13.783      853.417
10/08/2013  18:52:00       73.236       64.728       10.321       45.992       39.165       41.377     2115.251     1533.860     1712.071        0.751        0.268       97.741       25.273        0.067      339.994       13.710      853.408
10/08/2013  18:53:00       48.521       66.703        0.205       53.260       30.403       27.703     2836.586      924.317      767.453        0.567        0.226       82.483       23.133        0.079      339.973       13.675      853.412
10/08/2013  18:54:00       25.195       78.961       -7.448       30.752       50.092       31.387      945.677     2509.163      985.122        0.568        0.222       82.883       35.319        0.182      339.941       13.620      853.418
10/08/2013  18:55:00       30.614      111.429      -10.111       37.335       84.079       34.921     1393.887     7069.258     1219.481        1.157        0.484      115.558       42.364        0.134      339.939       13.614      853.424
10/08/2013  18:56:00        8.179      171.296      -23.341       40.487       37.795       26.592     1639.237     1428.495      707.159        1.686        0.189      171.491       20.484        0.014      340.005       13.726      853.438
10/08/2013  18:57:00        2.387      155.295      -24.296       50.781       32.544       18.202     2578.684     1059.116      331.295        1.434        0.198      155.313       11.547        0.006      340.020       13.753      853.439
10/08/2013  18:58:00      -30.387      106.096      -12.170       30.430       33.344       14.804      925.999     1111.812      219.145        0.729        0.113      110.361       16.868        0.023      340.022       13.754      853.440
10/08/2013  18:59:00      -67.838       97.617      -18.894       37.818       39.104       17.715     1430.232     1529.162      313.829        0.888        0.164      118.875       13.477        0.013      340.055       13.810      853.436
10/08/2013  19:00:00      -40.040      111.362       -5.416       33.362       92.477       34.082     1113.051     8552.013     1161.609        1.243        0.541      118.342       39.308        0.110      339.990       13.701      853.438
10/08/2013  19:01:00      -76.330      -10.010       -4.017       35.394       30.743       18.049     1252.750      945.145      325.758        0.423        0.126       76.984       13.993        0.033      339.995       13.712      853.432
10/08/2013  19:02:00     -132.490      -17.648      -14.198       31.047       45.170       22.412      963.898     2040.305      502.299        1.079        0.175      133.660       19.007        0.020      339.934       13.609      853.441
10/08/2013  19:03:00     -134.503       32.805      -17.511       52.787       41.052       23.639     2786.490     1685.265      558.810        1.225        0.252      138.446       17.532        0.016      339.941       13.619      853.449
10/08/2013  19:04:00     -100.255      -24.792       -0.669       50.673       50.963       34.419     2567.792     2597.236     1184.682        0.851        0.317      103.275       31.573        0.093      339.867       13.494      853.461
10/08/2013  19:05:00      -93.521       52.605       -7.271       59.693       52.224       34.820     3563.294     2727.313     1212.452        0.953        0.375      107.301       31.461        0.086      339.872       13.504      853.484
10/08/2013  19:06:00     -125.027       87.152      -21.021       62.940       48.811       27.603     3961.504     2382.474      761.946        1.539        0.355      152.405       26.640        0.031      339.877       13.512      853.483
10/08/2013  19:07:00     -145.714      135.337      -40.735       56.223       66.839       27.987     3161.036     4467.395      783.245        2.481        0.421      198.868       21.328        0.012      339.897       13.544      853.491
10/08/2013  19:08:00     -119.290      127.799      -28.047       47.099       41.417       27.706     2218.319     1715.372      767.630        1.802        0.235      174.822       26.622        0.023      339.888       13.529      853.498
10/08/2013  19:09:00     -112.946      139.523      -26.683       49.599       59.001       37.740     2460.110     3481.150     1424.316        2.015        0.368      179.509       35.042        0.038      339.888       13.529      853.513
10/08/2013  19:10:00     -140.547      152.465      -31.292       51.927       43.684       33.617     2696.366     1908.255     1130.087        2.486        0.287      207.362       28.168        0.018      339.803       13.384      853.518
10/08/2013  19:11:00     -140.065      163.272      -32.799       49.972       89.874       32.804     2497.169     8077.335     1076.072        2.950        0.583      215.119       30.822        0.021      339.760       13.311      853.518
10/08/2013  19:12:00     -110.832      204.305      -30.759       59.411       76.546       45.248     3529.684     5859.215     2047.393        3.320        0.572      232.432       31.508        0.018      339.718       13.240      853.510
10/08/2013  19:13:00      -70.733      128.263      -14.651       48.469       69.610       43.035     2349.256     4845.559     1852.010        1.536        0.452      146.473       43.529        0.088      339.708       13.225      853.506
10/08/2013  19:14:00      -67.238      114.635       -6.352       34.613       46.299       30.311     1198.088     2143.567      918.743        1.098        0.213      132.899       26.663        0.040      339.667       13.158      853.489
10/08/2013  19:15:00      -68.389       34.460       -5.096       33.266       44.405       24.323     1106.598     1971.786      591.620        0.478        0.184       76.580       26.554        0.120      339.766       13.325      853.479
10/08/2013  19:16:00      -83.101       68.376      -10.142       52.708       51.964       35.848     2778.152     2700.287     1285.099        0.922        0.338      107.615       28.210        0.069      339.677       13.176      853.470
10/08/2013  19:17:00     -163.861      129.565      -34.122       50.156       58.159       36.598     2515.586     3382.436     1339.380        2.602        0.362      208.896       33.480        0.026      339.650       13.126      853.463
10/08/2013  19:18:00     -136.524      104.509      -24.486       73.129       51.438       36.666     5347.835     2645.840     1344.371        1.975        0.467      171.933       41.967        0.060      339.643       13.116      853.461
10/08/2013  19:19:00     -146.005      136.015      -40.139       66.012       56.051       42.483     4357.585     3141.713     1804.837        2.536        0.465      199.543       35.460        0.032      339.652       13.129      853.447
10/08/2013  19:20:00     -110.416       82.964      -25.310       63.156       78.545       34.397     3988.738     6169.270     1183.170        1.553        0.567      138.111       41.965        0.092      339.685       13.189      853.441
10/08/2013  19:21:00      -95.834       15.351      -12.974       46.526       61.055       33.388     2164.658     3727.707     1114.789        0.830        0.350       97.055       29.266        0.091      339.692       13.200      853.430
10/08/2013  19:22:00      -99.656       70.192      -11.834       94.025       51.039       38.765     8840.780     2604.953     1502.693        1.397        0.647      121.895       49.612        0.166      339.619       13.075      853.437
10/08/2013  19:23:00     -122.030       64.467      -17.084       60.495       47.369       36.565     3659.622     2243.826     1337.008        1.329        0.362      138.012       42.446        0.095      339.634       13.101      853.439
10/08/2013  19:24:00     -107.519       22.805      -14.196       51.613       34.829       28.632     2663.923     1213.078      819.791        0.849        0.235      109.911       26.077        0.056      339.604       13.050      853.450
10/08/2013  19:25:00      -71.758        0.450       -1.306       38.229       42.294       21.454     1461.479     1788.766      460.285        0.443        0.186       71.760       15.727        0.048      339.602       13.047      853.440
10/08/2013  19:26:00      -88.397       24.461      -19.396       48.871       41.436       32.850     2388.352     1716.919     1079.111        0.699        0.259       91.719       26.032        0.081      339.551       12.964      853.450
10/08/2013  19:27:00      -87.754       31.168      -14.437       68.375       36.278       30.344     4675.133     1316.083      920.760        0.789        0.346       93.125       30.382        0.106      339.556       12.971      853.446
10/08/2013  19:28:00     -115.621       90.399      -15.307       59.442       91.335       44.909     3533.312     8342.065     2016.791        1.783        0.695      146.766       26.931        0.034      339.504       12.882      853.461
10/08/2013  19:29:00     -158.128       64.467      -13.154       92.901       43.271       37.876     8630.620     1872.403     1434.621        2.063        0.597      170.764       44.172        0.067      339.511       12.893      853.457
10/08/2013  19:30:00     -135.830       44.251      -18.225       51.072       60.837       31.242     2608.351     3701.105      976.089        1.401        0.364      142.857       13.703        0.009      339.520       12.909      853.470
10/08/2013  19:31:00     -164.608       91.322      -33.564       59.094       92.915       38.612     3492.065     8633.127     1490.861        2.509        0.681      188.243       32.535        0.030      339.513       12.895      853.461
10/08/2013  19:32:00     -100.715       41.331      -19.616       36.871       54.903       35.834     1359.450     3014.342     1284.043        0.895        0.283      108.866       20.864        0.037      339.471       12.825      853.460
10/08/2013  19:33:00      -57.017       73.476      -11.469       33.906       33.133       23.317     1149.643     1097.784      543.696        0.579        0.140       93.004       16.111        0.030      339.440       12.775      853.447
10/08/2013  19:34:00      -77.743       14.897      -10.314       58.602       55.272       29.443     3434.148     3055.040      866.870        0.686        0.368       79.158       18.100        0.052      339.422       12.744      853.431
10/08/2013  19:35:00     -103.503       31.084       -3.413      107.691       77.923       51.048    11597.276     6071.919     2605.910        1.598        1.014      108.070       52.951        0.240      339.442       12.775      853.414
10/08/2013  19:36:00      -99.080      134.860      -17.103       43.101       63.971       33.977     1857.693     4092.347     1154.432        1.770        0.355      167.344       28.456        0.029      339.400       12.705      853.398
10/08/2013  19:37:00     -113.637       90.474      -16.960       50.804       58.034       31.097     2581.035     3367.890      967.006        1.415        0.346      145.255       18.820        0.017      339.457       12.802      853.397
10/08/2013  19:38:00     -129.251       47.025      -19.207       25.345       53.405       23.288      642.362     2852.054      542.345        1.166        0.202      137.540       14.411        0.011      339.473       12.828      853.369
10/08/2013  19:39:00      -56.386        5.319       -0.136       38.466       47.103       23.957     1479.627     2218.704      573.929        0.374        0.214       56.637       23.478        0.172      339.439       12.773      853.358
10/08/2013  19:40:00      -79.908       71.820      -11.864       56.929      100.350       37.159     3240.920    10070.208     1380.821        1.319        0.735      107.441       26.271        0.060      339.417       12.736      853.349
10/08/2013  19:41:00      -68.026       11.751        1.117       45.004       47.082       33.074     2025.353     2216.699     1093.858        0.505        0.267       69.034       24.999        0.131      339.365       12.649      853.338
10/08/2013  19:42:00      -46.557        7.334        5.546       43.978       35.497       31.545     1934.048     1260.052      995.097        0.322        0.209       47.131       25.950        0.303      339.348       12.621      853.334
10/08/2013  19:43:00     -115.163      -44.967       -4.551       65.980       50.789       24.997     4353.324     2579.540      624.875        1.143        0.378      123.630        9.722        0.006      339.336       12.597      853.324
10/08/2013  19:44:00     -118.603      -40.079       -3.828       67.736       54.081       35.112     4588.100     2924.719     1232.879        1.221        0.437      125.192       34.031        0.074      339.230       12.420      853.325
10/08/2013  19:45:00      -64.938      -22.710       -4.968       52.561       54.974       31.613     2762.680     3022.138      999.385        0.577        0.339       68.795       30.264        0.194      339.286       12.514      853.321
10/08/2013  19:46:00     -113.130       -2.022       -2.724       48.473       62.179       44.715     2349.595     3866.196     1999.451        1.051        0.411      113.148       28.543        0.064      339.313       12.559      853.312
10/08/2013  19:47:00     -222.613      -36.173      -18.608      100.701       83.478       42.801    10140.631     6968.582     1831.967        3.507        0.947      225.533       37.389        0.027      339.345       12.611      853.303
10/08/2013  19:48:00      -86.910       -2.037       -0.666       84.030       71.282       41.191     7061.069     5081.066     1696.666        1.070        0.692       86.934       21.513        0.061      339.341       12.607      853.286
10/08/2013  19:49:00     -113.755       70.895      -22.816       82.978       65.110       33.598     6885.349     4239.370     1128.804        1.537        0.613      134.039       38.486        0.082      339.395       12.696      853.291
10/08/2013  19:50:00     -187.560      104.755      -31.932       62.129       90.828       46.072     3859.979     8249.664     2122.631        3.070        0.712      214.831       42.165        0.039      339.425       12.746      853.289
10/08/2013  19:51:00     -101.545       36.276       -8.654       49.902       60.441       31.539     2490.225     3653.109      994.740        0.942        0.357      107.830       25.956        0.058      339.398       12.704      853.267
10/08/2013  19:52:00     -187.963      129.689      -47.530       83.208       84.943       40.617     6923.595     7215.327     1649.735        3.510        0.789      228.362       30.222        0.018      339.391       12.688      853.249
10/08/2013  19:53:00     -104.415       28.069      -18.464       67.810       43.531       35.314     4598.151     1894.960     1247.067        0.988        0.387      108.122       30.842        0.081      339.387       12.686      853.246
10/08/2013  19:54:00      -19.353       82.637        1.108       56.011       57.987       33.535     3137.242     3362.452     1124.616        0.741        0.381       84.873       28.654        0.114      339.327       12.584      853.231
10/08/2013  19:55:00     -130.629      148.277      -20.312       77.060       67.688       51.695     5938.217     4581.692     2672.409        2.632        0.660      197.610       41.729        0.045      339.367       12.650      853.225
10/08/2013  19:56:00     -148.731      148.799      -42.028       82.608       59.731       52.123     6824.151     3567.753     2716.819        2.957        0.655      210.385       49.036        0.054      339.332       12.591      853.229
10/08/2013  19:57:00     -160.052      173.045      -36.372       67.410       66.082       39.480     4544.111     4366.871     1558.692        3.367        0.523      235.714       33.631        0.020      339.294       12.525      853.236
10/08/2013  19:58:00     -115.350      175.846      -23.634       52.563       96.851       41.134     2762.901     9380.163     1691.996        2.931        0.692      210.303       36.744        0.031      339.300       12.537      853.234
10/08/2013  19:59:00     -122.904      180.270      -31.556       61.382       84.234       39.024     3767.754     7095.409     1522.837        3.049        0.619      218.180       41.543        0.036      339.269       12.484      853.252
10/08/2013  20:00:00     -183.135      178.692      -36.584       84.952       66.696       45.721     7216.772     4448.339     2090.374        4.028        0.688      255.870       44.380        0.030      339.333       12.590      853.260
10/08/2013  20:01:00     -152.940      140.573      -38.545       96.685       77.847       44.928     9347.922     6060.167     2018.568        3.103        0.871      207.729       49.275        0.056      339.341       12.607      853.265
10/08/2013  20:02:00     -119.720      186.938      -20.611       70.012      107.641       50.774     4901.725    11586.585     2577.959        3.438        0.953      221.988       43.323        0.038      339.303       12.541      853.282
10/08/2013  20:03:00     -165.585      190.301      -45.950       74.531       91.469       43.817     5554.915     8366.488     1919.950        4.079        0.792      252.256       41.779        0.027      339.322       12.572      853.278
10/08/2013  20:04:00     -174.762      192.582      -39.760       70.523       92.736       50.969     4973.539     8599.961     2597.845        4.269        0.809      260.057       37.211        0.020      339.308       12.547      853.290
10/08/2013  20:05:00     -209.728      164.387      -45.975       99.228      104.905       52.562     9846.275    11004.957     2762.752        4.836        1.181      266.474       64.698        0.059      339.369       12.652      853.299
10/08/2013  20:06:00     -125.729      222.097      -29.922       58.747       92.597       51.212     3451.259     8574.282     2622.667        4.034        0.732      255.215       40.873        0.026      339.344       12.610      853.298
10/08/2013  20:07:00     -146.117      217.378      -30.394       75.905       85.783       50.253     5761.513     7358.661     2525.382        4.258        0.782      261.923       34.797        0.018      339.311       12.553      853.298
10/08/2013  20:08:00     -177.877      193.368      -37.216       88.533       92.808       55.884     7838.067     8613.271     3123.037        4.499        0.979      262.738       46.606        0.031      339.288       12.517      853.303
10/08/2013  20:09:00     -127.776      115.613      -26.155       71.285       67.047       48.160     5081.484     4495.332     2319.397        2.113        0.595      172.317       37.318        0.047      339.263       12.475      853.318
10/08/2013  20:10:00      -82.431       46.524      -14.711       51.200       53.405       35.596     2621.412     2852.126     1267.052        0.796        0.337       94.654       33.206        0.123      339.230       12.420      853.317
10/08/2013  20:11:00      -64.279       49.163       -7.200       52.657       37.090       28.114     2772.755     1375.692      790.418        0.577        0.247       80.925       23.164        0.082      339.243       12.443      853.323
10/08/2013  20:12:00      -69.665       78.482      -11.364       47.579       72.207       40.238     2263.734     5213.917     1619.133        1.012        0.455      104.941       32.350        0.095      339.165       12.310      853.312
10/08/2013  20:13:00     -102.944      111.976      -24.160       59.521       66.436       35.539     3542.722     4413.794     1262.988        1.647        0.461      152.106       24.397        0.026      339.183       12.341      853.318
10/08/2013  20:14:00     -101.269      123.452      -12.106       63.561       66.645       38.710     4039.947     4441.541     1498.491        1.781        0.499      159.673       28.270        0.031      339.156       12.295      853.317
10/08/2013  20:15:00     -119.526      178.425      -24.329       71.948      101.659       51.159     5176.465    10334.467     2617.236        3.242        0.906      214.760       43.533        0.041      339.159       12.296      853.316
10/08/2013  20:16:00     -143.467       85.921      -17.519       76.649       55.937       42.948     5875.122     3128.908     1844.573        1.956        0.542      167.228       29.791        0.032      339.159       12.299      853.297
10/08/2013  20:17:00      -96.625      128.424      -23.822       50.843       67.793       36.618     2585.007     4595.877     1340.898        1.746        0.426      160.714       30.933        0.037      339.101       12.202      853.294
10/08/2013  20:18:00     -135.641      180.067      -35.903       58.084       68.688       37.089     3373.794     4718.028     1375.590        3.079        0.473      225.439       33.994        0.023      339.109       12.215      853.294
10/08/2013  20:19:00     -119.409      123.893      -27.300       58.448       88.528       35.697     3416.129     7837.174     1274.263        2.144        0.626      172.069       35.055        0.042      339.143       12.274      853.298
10/08/2013  20:20:00      -93.915       62.004       -7.213       54.911       85.179       41.626     3015.216     7255.477     1732.714        1.236        0.600      112.537       27.794        0.061      339.143       12.275      853.296
10/08/2013  20:21:00      -93.852      114.010      -23.668       69.616       88.014       46.400     4846.358     7746.513     2152.962        1.855        0.737      147.671       46.416        0.099      339.083       12.171      853.290
10/08/2013  20:22:00     -136.892      205.798      -31.854       73.122       79.975       44.533     5346.887     6395.940     1983.215        3.791        0.686      247.168       41.330        0.028      339.029       12.079      853.290
10/08/2013  20:23:00     -151.052      183.649      -30.300       71.582       93.010       49.397     5123.922     8650.814     2440.110        3.683        0.811      237.789       41.503        0.030      339.032       12.084      853.282
10/08/2013  20:24:00     -116.090      144.559      -11.754       79.503       74.546       47.630     6320.678     5557.036     2268.603        2.433        0.707      185.403       45.287        0.060      339.026       12.075      853.284
10/08/2013  20:25:00     -156.408      180.295      -30.241       87.406       91.336       45.259     7639.798     8342.260     2048.350        3.795        0.902      238.684       53.950        0.051      339.055       12.123      853.304
10/08/2013  20:26:00     -162.549      109.660      -26.880       96.069       85.814       53.418     9229.172     7364.104     2853.439        2.930        0.972      196.081       61.939        0.100      339.057       12.126      853.304
10/08/2013  20:27:00     -141.136      185.349      -37.797       68.554       91.116       41.930     4699.654     8302.049     1758.092        3.523        0.738      232.967       38.245        0.027      339.037       12.094      853.309
10/08/2013  20:28:00     -167.712      179.694      -35.740       85.818       96.410       51.800     7364.759     9294.876     2683.268        4.051        0.967      245.799       56.995        0.054      339.038       12.095      853.293
10/08/2013  20:29:00     -144.879      172.267      -35.778       60.962       69.044       42.811     3716.327     4767.038     1832.760        3.113        0.516      225.090       41.204        0.034      339.046       12.110      853.305
10/08/2013  20:30:00     -108.683      160.495      -24.742       48.029       54.276       43.152     2306.796     2945.931     1862.084        2.265        0.356      193.832       30.725        0.025      339.060       12.133      853.283
10/08/2013  20:31:00     -176.272      125.195      -32.916       74.907       68.806       39.185     5611.060     4734.237     1535.460        2.985        0.594      216.207       42.037        0.038      339.060       12.133      853.279
10/08/2013  20:32:00     -134.954      138.283      -19.048       70.862       65.649       45.083     5021.434     4309.838     2032.451        2.453        0.568      193.222       41.181        0.045      339.026       12.076      853.265
10/08/2013  20:33:00     -140.541      125.925      -27.641       82.598       58.141       47.757     6822.508     3380.372     2280.771        2.443        0.624      188.703       37.190        0.039      339.034       12.089      853.262
10/08/2013  20:34:00      -40.868       38.785        0.346       44.822       43.690       31.999     2009.003     1908.810     1023.911        0.406        0.247       56.343       27.670        0.241      339.035       12.093      853.255
10/08/2013  20:35:00      -46.770       53.590       -3.586       33.593       48.207       26.154     1128.470     2323.926      684.045        0.460        0.207       71.129       19.516        0.075      339.072       12.154      853.255
10/08/2013  20:36:00     -131.163      114.278      -26.937       78.246       61.900       32.259     6122.425     3831.642     1040.647        2.099        0.550      173.963       33.362        0.037      339.014       12.055      853.270
10/08/2013  20:37:00     -174.629      121.567      -30.104       70.503      103.068       43.594     4970.676    10623.085     1900.399        3.183        0.875      212.776       41.442        0.038      339.025       12.073      853.271
10/08/2013  20:38:00     -142.103       93.396      -25.730       64.598       55.095       36.550     4172.907     3035.494     1335.896        1.906        0.427      170.048       27.180        0.026      338.990       12.016      853.288
10/08/2013  20:39:00      -89.583       61.108      -15.383       51.436       56.972       23.302     2645.652     3245.787      542.961        0.921        0.322      108.440       23.742        0.048      338.988       12.014      853.301
10/08/2013  20:40:00     -123.856       48.967      -20.327       37.765       41.354       29.124     1426.176     1710.152      848.190        1.107        0.199      133.185       14.170        0.011      339.035       12.092      853.287
10/08/2013  20:41:00      -73.649       62.899      -14.615       61.349       92.775       33.981     3763.755     8607.261     1154.742        1.156        0.676       96.853       22.343        0.053      338.993       12.022      853.280
10/08/2013  20:42:00      -84.340      135.811      -16.820       42.085       47.717       28.421     1771.141     2276.904      807.758        1.535        0.243      159.869       19.134        0.014      339.009       12.048      853.263
10/08/2013  20:43:00     -125.845       71.938      -22.860       57.259       50.354       27.882     3278.619     2535.479      777.398        1.406        0.330      144.956       28.581        0.039      339.056       12.127      853.243
10/08/2013  20:44:00      -75.333       64.714       -8.621       46.622       54.204       28.668     2173.584     2938.055      821.847        0.793        0.297       99.313       27.865        0.079      339.058       12.133      853.226
10/08/2013  20:45:00      -77.538      117.852      -18.370       52.066       73.267       34.335     2710.825     5368.051     1178.866        1.475        0.463      141.072       34.418        0.060      339.068       12.147      853.203
10/08/2013  20:46:00      -99.276      111.039      -20.193       34.735       75.776       26.074     1206.521     5742.001      679.835        1.511        0.381      148.947       22.111        0.022      339.126       12.243      853.192
10/08/2013  20:47:00     -112.325      144.730      -24.084       49.447       83.565       35.878     2444.980     6983.178     1287.246        2.243        0.536      183.204       30.258        0.027      339.121       12.236      853.194
10/08/2013  20:48:00     -101.828      143.542      -21.785       54.152       82.621       45.674     2932.393     6826.204     2086.122        2.164        0.592      175.992       29.870        0.029      339.134       12.259      853.192
10/08/2013  20:49:00     -128.176      116.715      -23.245       52.093       70.317       34.250     2713.680     4944.440     1173.031        1.971        0.442      173.354       28.107        0.026      339.192       12.356      853.192
10/08/2013  20:50:00     -151.686       93.418      -19.738       51.832       81.100       36.529     2686.594     6577.242     1334.388        2.136        0.530      178.145       31.579        0.031      339.155       12.293      853.200
10/08/2013  20:51:00      -18.397       40.199       -6.572       37.603       48.524       29.020     1413.995     2354.581      842.162        0.330        0.231       44.209       25.703        0.338      339.161       12.307      853.190
10/08/2013  20:52:00      -99.378       60.199      -29.387       47.593       65.975       28.698     2265.061     4352.752      823.598        1.090        0.372      116.189       29.447        0.064      339.213       12.392      853.197
10/08/2013  20:53:00      -66.038       51.639       -5.414       50.824       67.366       31.095     2583.103     4538.122      966.911        0.757        0.404       83.831       23.225        0.077      339.207       12.382      853.202
10/08/2013  20:54:00      -61.819       -9.576       -7.861       43.693       43.122       27.645     1909.117     1859.530      764.240        0.425        0.227       62.557       24.032        0.148      339.237       12.434      853.203
10/08/2013  20:55:00      -53.839      -14.828        1.110       33.352       23.909       19.852     1112.328      571.633      394.094        0.260        0.104       55.844       13.040        0.055      339.187       12.349      853.199
10/08/2013  20:56:00      -98.330      -25.610      -11.311       49.116       25.515       19.491     2412.414      651.022      379.894        0.695        0.172      101.610       16.462        0.026      339.208       12.383      853.198
10/08/2013  20:57:00     -109.557      -17.621       -6.511       62.805       49.689       33.487     3944.461     2469.015     1121.401        0.994        0.377      110.965       33.261        0.090      339.181       12.338      853.212
10/08/2013  20:58:00      -62.086       10.622       -5.843       46.362       62.133       25.097     2149.428     3860.524      629.861        0.532        0.332       62.988       15.731        0.062      339.221       12.405      853.206
10/08/2013  20:59:00      -28.031       44.192       -8.801       12.965       19.895       16.458      168.083      395.796      270.865        0.183        0.042       52.332        8.644        0.027      339.259       12.470      853.200
10/08/2013  21:00:00      -79.016       69.255      -18.189       52.476       48.591       26.891     2753.779     2361.067      723.111        0.860        0.292      105.070       12.863        0.015      339.283       12.509      853.189
10/08/2013  21:01:00      -54.902       47.736       -5.362       30.132       57.127       18.432      907.911     3263.457      339.755        0.492        0.226       72.752       16.232        0.050      339.263       12.475      853.192
10/08/2013  21:02:00      -64.256       36.006       -5.612       51.408       48.022       25.579     2642.783     2306.139      654.310        0.553        0.280       73.657       15.936        0.047      339.233       12.427      853.191
10/08/2013  21:03:00      -69.049       81.399       -9.307       50.429       43.860       32.418     2543.062     1923.735     1050.906        0.850        0.276      106.741       26.366        0.061      339.222       12.406      853.177
10/08/2013  21:04:00      -58.834       90.776       -9.051       36.426       36.422       21.847     1326.850     1326.563      477.286        0.746        0.157      108.174       12.777        0.014      339.269       12.485      853.173
10/08/2013  21:05:00      -57.619      109.875      -16.572       47.454       38.935       22.252     2251.893     1515.965      495.142        0.996        0.213      124.066       25.452        0.042      339.275       12.498      853.168
10/08/2013  21:06:00      -54.098       75.852       -3.982       31.243       43.034       26.486      976.152     1851.901      701.518        0.611        0.176       93.167       13.359        0.021      339.341       12.607      853.163
10/08/2013  21:07:00      -41.406       90.519       -9.789       35.434       39.861       22.111     1255.554     1588.888      488.876        0.667        0.167       99.539       18.077        0.033      339.327       12.584      853.172
10/08/2013  21:08:00      -63.517      135.364      -17.914       36.811       44.069       31.856     1355.042     1942.036     1014.773        1.349        0.216      149.526       23.730        0.025      339.325       12.582      853.173
10/08/2013  21:09:00      -12.426       93.161      -19.470       22.654       21.742       14.093      513.193      472.718      198.601        0.520        0.059       93.986        8.946        0.009      339.272       12.491      853.175
10/08/2013  21:10:00       60.623       61.030       -1.722       38.497       24.575       18.956     1482.040      603.955      359.328        0.492        0.122       86.022       21.504        0.062      339.081       12.171      853.168
10/08/2013  21:11:00       94.677       50.942        6.554       20.088       26.656       22.456      403.535      710.562      504.292        0.661        0.081      107.512       11.213        0.011      338.941       11.934      853.156
10/08/2013  21:12:00       60.870       54.339        0.842       23.668       21.403       22.665      560.161      458.108      513.699        0.409        0.077       81.596       15.641        0.037      338.929       11.914      853.135
10/08/2013  21:13:00       71.813       62.683       14.813       42.955       47.656       40.317     1845.104     2271.079     1625.478        0.752        0.287       95.322       26.200        0.076      339.009       12.049      853.127
10/08/2013  21:14:00       99.850       52.828        3.686       30.126       26.881       25.576      907.557      722.612      654.125        0.753        0.114      112.964       15.180        0.018      339.061       12.136      853.120
10/08/2013  21:15:00       97.339       51.474       13.753       32.991       25.488       22.702     1088.390      649.651      515.359        0.728        0.113      110.111       14.564        0.017      338.920       11.899      853.120
10/08/2013  21:16:00       99.652       61.361       18.093       37.147       28.785       22.345     1379.870      828.577      499.314        0.836        0.135      117.029       14.723        0.016      338.894       11.855      853.115
10/08/2013  21:17:00      109.622       78.704       41.123       67.054       29.700       33.375     4496.243      882.078     1113.874        1.320        0.325      134.949       33.803        0.063      338.934       11.923      853.108
10/08/2013  21:18:00       95.289       71.339       30.712       43.327       27.531       37.024     1877.225      757.962     1370.771        0.956        0.200      119.035       28.361        0.057      338.854       11.788      853.102
10/08/2013  21:19:00      185.287       92.036       11.701       52.478       45.679       36.587     2753.927     2086.559     1338.577        2.456        0.309      206.887       22.590        0.012      338.884       11.835      853.092
10/08/2013  21:20:00       91.703       49.825       11.444       74.542       52.673       42.721     5556.536     2774.423     1825.080        1.059        0.508      104.364       22.317        0.046      338.908       11.879      853.085
10/08/2013  21:21:00       75.661       53.284        9.350       48.772       41.127       31.652     2378.681     1691.422     1001.859        0.686        0.254       92.541       22.984        0.062      338.845       11.774      853.078
10/08/2013  21:22:00      125.062       64.234       16.164       85.719       53.669       45.631     7347.734     2880.332     2082.187        1.617        0.616      140.593       36.787        0.068      338.990       12.017      853.052
10/08/2013  21:23:00       27.237        9.093       23.205       60.616       46.683       33.489     3674.339     2179.310     1121.494        0.417        0.349       28.715       15.434        0.289      339.021       12.069      853.053
10/08/2013  21:24:00       46.248       68.240       -7.361       46.555       45.206       27.337     2167.408     2043.544      747.328        0.590        0.248       82.435        9.166        0.012      339.310       12.557      853.070
10/08/2013  21:25:00       17.684       67.371       -8.686       33.911       37.513       26.205     1149.984     1407.260      686.727        0.408        0.162       69.653       15.410        0.049      339.337       12.604      853.063
10/08/2013  21:26:00      -32.023       57.684      -19.369       62.660       30.627       22.369     3926.301      938.042      500.352        0.505        0.268       65.977       20.024        0.092      339.340       12.606      853.056
10/08/2013  21:27:00      -53.664       68.230       -8.924       44.692       31.858       23.514     1997.375     1014.909      552.902        0.559        0.178       86.805       23.027        0.070      339.294       12.529      853.053
10/08/2013  21:28:00        4.767       65.362       -4.002       20.062       38.015       18.397      402.468     1445.114      338.465        0.325        0.109       65.536       12.933        0.039      339.207       12.382      853.051
10/08/2013  21:29:00       21.457       47.373       -1.602       25.077       40.185       16.902      628.873     1614.824      285.680        0.262        0.126       52.006       20.287        0.152      339.109       12.216      853.060
10/08/2013  21:30:00       52.128       28.764        2.178       21.753       48.397       18.384      473.177     2342.264      337.981        0.335        0.158       59.538       16.498        0.077      339.045       12.110      853.053
10/08/2013  21:31:00       46.934      -23.698        3.078       18.685       26.334       18.515      349.133      693.493      342.818        0.208        0.069       52.578       18.908        0.129      339.073       12.156      853.028
10/08/2013  21:32:00       16.124       28.965       53.849       33.930       30.427       22.836     1151.247      925.832      521.473        0.330        0.130       33.150       24.427        0.543      339.062       12.138      853.013
10/08/2013  21:33:00       58.374       55.185       38.305       25.743       25.964       25.261      662.708      674.145      638.101        0.495        0.099       80.330       25.645        0.102      339.053       12.123      853.001
10/08/2013  21:34:00       50.559       33.401       16.793       15.396       15.774       18.068      237.026      248.825      326.461        0.238        0.041       60.596       11.905        0.039      339.060       12.133      852.996
10/08/2013  21:35:00       27.884       20.531       26.402       14.601       15.443       10.848      213.189      238.471      117.681        0.123        0.028       34.627        6.373        0.034      339.017       12.063      852.982
10/08/2013  21:36:00       49.152       26.815        6.967       15.809       12.777       14.131      249.918      163.252      199.693        0.190        0.031       55.991        8.380        0.022      339.020       12.067      852.976
10/08/2013  21:37:00       50.532       24.247       26.973       30.493       23.235       20.047      929.820      539.857      401.899        0.287        0.094       56.048       13.435        0.057      338.980       12.001      852.980
10/08/2013  21:38:00       87.309       44.026       15.570       18.030       20.508       13.283      325.089      420.594      176.426        0.536        0.046       97.781       11.068        0.013      339.014       12.058      852.970
10/08/2013  21:39:00       63.295       10.605       32.362       29.492       24.082       21.916      869.771      579.951      480.295        0.355        0.097       64.177       17.128        0.071      338.999       12.032      852.961
10/08/2013  21:40:00       86.096       50.739       22.477       21.545       19.640       20.931      464.205      385.721      438.093        0.589        0.064       99.935       15.070        0.023      338.985       12.010      852.952
10/08/2013  21:41:00       78.270       52.460       31.640       31.790       18.464       19.096     1010.594      340.937      364.651        0.580        0.086       94.224       13.741        0.021      338.977       11.996      852.937
10/08/2013  21:42:00       73.751       54.836       36.921       16.927       18.892       16.451      286.530      356.911      270.635        0.536        0.046       91.904        9.307        0.010      338.980       12.000      852.929
10/08/2013  21:43:00       51.373       46.217       35.192       31.231       25.486       24.920      975.380      649.518      621.000        0.413        0.112       69.103       20.282        0.086      338.955       11.958      852.918
10/08/2013  21:44:00       71.052       38.729       36.907       37.661       38.962       33.034     1418.378     1518.013     1091.255        0.597        0.201       80.921       29.208        0.130      338.947       11.945      852.917
10/08/2013  21:45:00       73.946       66.877       41.900       29.182       27.452       26.766      851.583      753.632      716.418        0.701        0.116       99.702       15.691        0.025      338.971       11.986      852.909
10/08/2013  21:46:00       72.379       63.153       37.304       20.000       16.576       21.585      399.983      274.777      465.933        0.588        0.057       96.057       12.232        0.016      338.942       11.937      852.907
10/08/2013  21:47:00       80.571       67.347       37.486       29.613       16.536       21.469      876.912      273.440      460.910        0.702        0.081      105.011       19.599        0.035      338.913       11.887      852.894
10/08/2013  21:48:00       90.370       38.081        9.242       25.182       20.750       17.975      634.136      430.546      323.086        0.554        0.069       98.066       14.401        0.022      338.874       11.823      852.883
10/08/2013  21:49:00       58.637       19.883        5.601       24.859       20.161       18.589      617.984      406.466      345.536        0.262        0.068       61.916        4.852        0.006      338.825       11.739      852.870
10/08/2013  21:50:00       95.046       66.046       10.319       25.423       16.221       16.253      646.349      263.113      264.165        0.734        0.059      115.741        9.869        0.007      338.844       11.772      852.859
10/08/2013  21:51:00       43.823       60.523       -3.757       26.028       27.294       20.976      677.432      744.957      440.001        0.373        0.093       74.723       15.109        0.041      338.830       11.747      852.841
10/08/2013  21:52:00       59.837       31.587        6.301       20.565       19.843       18.275      422.924      393.731      333.975        0.288        0.058       67.663       10.171        0.023      338.813       11.719      852.830
10/08/2013  21:53:00       44.664       68.333       -8.338       37.400       36.300       26.875     1398.766     1317.664      722.259        0.509        0.172       81.635       23.067        0.080      338.820       11.731      852.832
10/08/2013  21:54:00       19.424       44.784       12.136       29.378       41.022       26.492      863.049     1682.813      701.847        0.289        0.162       48.815       24.707        0.256      338.816       11.724      852.815
10/08/2013  21:55:00       12.109       56.080       -4.095       15.338       24.148       15.771      235.252      583.108      248.726        0.219        0.053       57.372       14.332        0.062      338.762       11.634      852.797
10/08/2013  21:56:00       22.104       61.310       -9.716       18.348       20.572       14.017      336.640      423.209      196.490        0.265        0.048       65.173       13.924        0.046      338.786       11.675      852.792
10/08/2013  21:57:00       22.468       82.137       -9.912       25.607       21.156       13.690      655.740      447.570      187.405        0.432        0.065       85.155        8.852        0.011      338.794       11.689      852.785
10/08/2013  21:58:00       29.403       59.852        2.336       29.525       42.319       29.133      871.710     1790.910      848.715        0.398        0.176       66.684       29.419        0.195      338.800       11.697      852.784
10/08/2013  21:59:00       29.214       87.218      -14.700       23.859       25.973       18.869      569.262      674.594      356.028        0.514        0.080       91.981       14.563        0.025      338.799       11.696      852.784
10/08/2013  22:00:00       36.501       62.335       -1.311       34.801       40.200       25.766     1211.121     1616.048      663.873        0.435        0.175       72.236       25.331        0.123      338.800       11.698      852.778
10/08/2013  22:01:00       24.553       57.757       -3.828       24.034       28.464       17.638      577.655      810.178      311.108        0.283        0.085       62.759       14.028        0.050      338.797       11.694      852.771
10/08/2013  22:02:00       24.691       27.884       -0.668       17.519       17.989       12.407      306.903      323.620      153.937        0.109        0.039       37.244        7.094        0.036      338.786       11.675      852.766
10/08/2013  22:03:00       45.062       37.506       -3.098       22.429       22.963       15.773      503.039      527.297      248.791        0.236        0.064       58.628        9.001        0.024      338.765       11.639      852.760
10/08/2013  22:04:00       71.003       39.033        5.306       16.257       14.451       11.138      264.299      208.834      124.064        0.360        0.030       81.025        7.131        0.008      338.758       11.627      852.740
10/08/2013  22:05:00       30.584       19.255       10.702       22.173       20.941       13.023      491.635      438.510      169.599        0.126        0.055       36.140       11.460        0.101      338.768       11.643      852.736
10/08/2013  22:06:00       13.588       16.343       -0.444       16.182       15.134       10.176      261.853      229.040      103.551        0.052        0.030       21.254        9.634        0.205      338.776       11.660      852.732
10/08/2013  22:07:00        3.713       24.006       -8.228        6.032        8.432        5.823       36.389       71.093       33.902        0.040        0.007       24.291        3.825        0.025      338.786       11.676      852.741
10/08/2013  22:08:00       -5.947       15.199       -4.407        8.648       14.018        5.882       74.795      196.497       34.593        0.030        0.015       16.321        4.099        0.063      338.747       11.609      852.733
10/08/2013  22:09:00      -22.432       -7.906       -3.951       18.416        5.674        7.149      339.132       32.195       51.113        0.050        0.021       23.784       10.384        0.191      338.760       11.630      852.726
10/08/2013  22:10:00      -54.894      -12.834      -12.959        6.653       10.337        7.003       44.261      106.851       49.049        0.177        0.010       56.374        2.079        0.001      338.784       11.672      852.716
10/08/2013  22:11:00      -40.794      -19.773       -5.803       15.933       12.353        7.144      253.848      152.587       51.035        0.127        0.023       45.333        6.236        0.019      338.866       11.808      852.702
10/08/2013  22:12:00      -35.060      -21.036       -3.240       23.766       18.347       13.758      564.805      336.612      189.285        0.139        0.055       40.887        8.711        0.045      338.917       11.895      852.690
10/08/2013  22:13:00      -71.784      -81.006        6.335       63.541       43.760       27.976     4037.495     1914.921      782.635        0.924        0.337      108.236       24.068        0.049      338.711       11.549      852.685
10/08/2013  22:14:00      -70.357      -84.457       -1.864       65.225       39.483       33.911     4254.266     1558.926     1149.929        0.952        0.348      109.923       27.310        0.062      338.514       11.215      852.670
10/08/2013  22:15:00      -54.881      -68.698       10.610       57.747       32.541       28.585     3334.740     1058.913      817.110        0.653        0.261       87.928       20.037        0.052      338.505       11.202      852.652
10/08/2013  22:16:00      -19.155      -14.508       17.769       41.173       24.327       21.747     1695.203      591.810      472.933        0.183        0.138       24.029       17.973        0.559      338.480       11.159      852.627
10/08/2013  22:17:00      -74.006      -42.749      -13.310       40.435       34.207       17.194     1635.023     1170.148      295.619        0.529        0.155       85.466       17.761        0.043      338.539       11.258      852.603
10/08/2013  22:18:00      -58.270      -61.181        4.659       39.847       39.766       25.148     1587.767     1581.305      632.434        0.548        0.190       84.490       28.050        0.110      338.606       11.373      852.580
10/08/2013  22:19:00      -62.974      -53.260        5.121       52.213       31.884       25.887     2726.215     1016.565      670.112        0.562        0.221       82.477       29.964        0.132      338.620       11.395      852.566
10/08/2013  22:20:00      -64.807      -73.825       -0.205       35.662       21.543       12.352     1271.807      464.097      152.573        0.577        0.094       98.235        7.986        0.007      338.618       11.393      852.558
10/08/2013  22:21:00      -42.542      -41.893       11.159       29.559       24.965       20.109      873.734      623.243      404.352        0.279        0.095       59.707       18.052        0.091      338.640       11.429      852.560
10/08/2013  22:22:00      -12.545      -17.585       12.232       28.371       15.934       16.541      804.891      253.893      273.614        0.097        0.067       21.601       12.962        0.360      338.620       11.396      852.557
10/08/2013  22:23:00      -22.000      -29.867        6.883       24.822       21.848       17.632      616.135      477.329      310.885        0.141        0.070       37.095       16.265        0.192      338.626       11.404      852.535
10/08/2013  22:24:00      -77.473      -57.930       -3.490       30.343       18.396       11.389      920.686      338.420      129.712        0.538        0.069       96.736        7.847        0.007      338.574       11.318      852.522
10/08/2013  22:25:00     -109.221      -41.750       -4.379       20.778       25.305       13.480      431.721      640.323      181.723        0.747        0.063      116.928        9.087        0.006      338.557       11.289      852.516
10/08/2013  22:26:00      -99.900      -18.141       -3.899       19.372       17.410       14.101      375.292      303.099      198.851        0.560        0.044      101.534        2.950        0.001      338.522       11.230      852.499
10/08/2013  22:27:00      -62.015      -63.038        2.464       24.924       22.471       18.030      621.189      504.927      325.065        0.464        0.073       88.429       13.670        0.024      338.595       11.352      852.473
10/08/2013  22:28:00      -74.287      -73.462       -3.998       30.660       16.788       13.163      940.008      281.841      173.268        0.616        0.070      104.476       12.290        0.014      338.602       11.365      852.448
10/08/2013  22:29:00      -92.856      -70.060       -4.269       26.732       34.934       16.911      714.574     1220.418      285.989        0.788        0.111      116.322       14.528        0.016      338.575       11.320      852.433
10/08/2013  22:30:00      -72.278      -69.300       -1.809       42.120       26.134       15.800     1774.101      682.981      249.632        0.637        0.135      100.133       17.800        0.032      338.580       11.327      852.420
10/08/2013  22:31:00      -62.242      -48.558        0.482       26.240       24.914       14.117      688.525      620.714      199.282        0.387        0.075       78.942       14.093        0.032      338.565       11.302      852.412
10/08/2013  22:32:00      -45.319      -52.136        4.562       35.693       28.073       16.408     1273.963      788.113      269.207        0.356        0.117       69.079       15.750        0.052      338.596       11.355      852.399
10/08/2013  22:33:00      -44.574      -57.680       -3.264       25.327       22.871       18.389      641.436      523.100      338.142        0.341        0.075       72.897       17.866        0.060      338.571       11.314      852.388
10/08/2013  22:34:00      -25.740      -53.369        8.529       46.895       28.425       25.157     2199.133      807.984      632.855        0.361        0.182       59.252       28.908        0.238      338.619       11.393      852.376
10/08/2013  22:35:00      -46.702      -39.744        6.942       35.238       29.246       16.736     1241.706      855.343      280.098        0.309        0.119       61.324       13.335        0.047      338.592       11.348      852.377
10/08/2013  22:36:00      -30.106      -41.824        9.892       35.012       24.742       18.720     1225.850      612.181      350.435        0.247        0.109       51.532       18.224        0.125      338.617       11.390      852.373
10/08/2013  22:37:00      -38.664      -51.841        1.121       34.218       34.119       21.594     1170.887     1164.072      466.282        0.349        0.140       64.671       15.449        0.057      338.630       11.412      852.377
10/08/2013  22:38:00      -69.421      -70.641        5.036       40.913       41.902       24.969     1673.911     1755.787      623.462        0.694        0.203       99.043       27.086        0.075      338.540       11.262      852.377
10/08/2013  22:39:00      -89.855      -90.971       -4.293       45.544       34.634       23.514     2074.219     1199.546      552.902        1.010        0.191      127.866       11.638        0.008      338.510       11.213      852.382
10/08/2013  22:40:00      -79.176      -68.277       -1.998       30.304       41.698       16.736      918.343     1738.692      280.098        0.694        0.147      104.550       12.578        0.014      338.515       11.218      852.373
10/08/2013  22:41:00      -71.412      -42.160        1.898       46.467       30.177       20.123     2159.201      910.653      404.926        0.518        0.174       82.928       20.600        0.062      338.520       11.226      852.354
10/08/2013  22:42:00       -8.222      -10.644       15.061       25.670       25.405       18.163      658.932      645.390      329.891        0.102        0.082       13.450       19.174        2.032      338.555       11.286      852.345
10/08/2013  22:43:00      -27.966      -14.167        8.091       28.507       21.609       14.321      812.638      466.942      205.100        0.127        0.074       31.349        6.609        0.044      338.533       11.250      852.324
10/08/2013  22:44:00      -36.496      -18.914        6.063       26.866       19.737       12.652      721.793      389.565      160.076        0.150        0.064       41.106        9.166        0.050      338.553       11.283      852.308
10/08/2013  22:45:00      -23.224      -14.041        4.441       20.687       16.983       11.714      427.956      288.407      137.228        0.080        0.043       27.138        5.829        0.046      338.561       11.296      852.287
10/08/2013  22:46:00      -47.743       -9.135        0.256       27.044       19.998       12.000      731.378      399.909      143.993        0.182        0.064       48.609        9.159        0.036      338.564       11.300      852.269
10/08/2013  22:47:00      -28.925       -9.752        1.729       22.638       15.456       10.772      512.457      238.876      116.043        0.090        0.043       30.525       12.764        0.175      338.533       11.251      852.258
10/08/2013  22:48:00      -58.398        2.501       -6.304       17.185       15.478        9.885      295.309      239.560       97.703        0.204        0.032       58.451        6.853        0.014      338.533       11.247      852.257
10/08/2013  22:49:00      -74.211        1.339      -12.042       12.256       13.060        9.358      150.206      170.574       87.572        0.303        0.020       74.223        5.661        0.006      338.538       11.255      852.252
10/08/2013  22:50:00      -66.631        8.940       -7.544       11.088        8.022        8.841      122.954       64.356       78.161        0.242        0.013       67.228        6.142        0.008      338.591       11.346      852.252
10/08/2013  22:51:00      -60.348       18.827      -11.996       12.365       13.810        8.359      152.900      190.703       69.876        0.228        0.021       63.217        6.047        0.009      338.561       11.297      852.248
10/08/2013  22:52:00      -52.613       58.563      -11.193       14.934       14.169        8.876      223.037      200.772       78.788        0.341        0.025       78.725        5.490        0.005      338.589       11.343      852.246
10/08/2013  22:53:00      -22.542       76.059       -3.252       24.662       34.519       19.693      608.201     1191.564      387.817        0.425        0.109       79.329       19.953        0.063      338.689       11.511      852.245
10/08/2013  22:54:00      -26.978      122.371      -13.345       21.281       33.446       14.882      452.879     1118.634      221.488        0.884        0.090      125.310       10.499        0.007      338.683       11.500      852.251
10/08/2013  22:55:00      -20.963      117.552      -17.215       15.435       26.096       11.436      238.240      680.982      130.778        0.780        0.053      119.406       13.118        0.012      338.640       11.429      852.246
10/08/2013  22:56:00      -24.526       64.331       -2.665       21.965       45.617       15.689      482.468     2080.901      246.142        0.378        0.140       68.847       21.755        0.100      338.703       11.536      852.234
10/08/2013  22:57:00       -0.875       47.606       -1.500       21.959       34.621       17.496      482.209     1198.608      306.126        0.213        0.099       47.614       22.379        0.221      338.674       11.486      852.218
10/08/2013  22:58:00      -17.320       47.255       -3.467       33.948       30.561       15.204     1152.479      933.973      231.161        0.243        0.116       50.329       11.486        0.052      338.683       11.500      852.204
10/08/2013  22:59:00      -11.852      130.475      -17.224       29.624       47.159       18.881      877.557     2223.993      356.497        1.046        0.173      131.012       21.057        0.026      338.710       11.545      852.195
10/08/2013  23:00:00       24.625      125.775      -12.649       29.925       36.496       31.337      895.498     1331.948      982.010        0.990        0.160      128.163       26.406        0.042      338.642       11.431      852.188
10/08/2013  23:01:00       24.061       77.608       -4.626       25.575       57.461       29.291      654.084     3301.743      857.986        0.572        0.241       81.252       31.911        0.154      338.664       11.469      852.179
10/08/2013  23:02:00       56.610       42.685        1.851       31.915       23.552       17.699     1018.541      554.696      313.239        0.346        0.094       70.899        6.700        0.009      338.674       11.487      852.171
10/08/2013  23:03:00        6.878       39.861       -3.298       16.726       25.460       13.797      279.743      648.212      190.351        0.138        0.056       40.450       13.909        0.118      338.627       11.407      852.151
10/08/2013  23:04:00       15.955       60.131       -4.636       11.346       18.351       14.878      128.735      336.765      221.341        0.229        0.034       62.212       12.163        0.038      338.646       11.439      852.127
10/08/2013  23:05:00       17.274       48.347       -7.831       13.253       22.158       11.066      175.642      490.956      122.460        0.174        0.039       51.340       11.630        0.051      338.629       11.411      852.115
10/08/2013  23:06:00      -11.730       90.696      -14.179       14.731       15.110        7.750      217.003      228.307       60.063        0.453        0.025       91.451        4.297        0.002      338.685       11.505      852.114
10/08/2013  23:07:00        0.796       71.440      -10.446       12.283       15.805        8.889      150.862      249.788       79.022        0.285        0.024       71.444        6.469        0.008      338.673       11.483      852.116
10/08/2013  23:08:00       -0.957       77.281      -10.563        6.883       11.029        6.761       47.372      121.645       45.712        0.315        0.011       77.287        2.996        0.002      338.679       11.492      852.122
10/08/2013  23:09:00       12.739      126.517      -22.090       12.732       24.099        8.520      162.098      580.758       72.595        0.874        0.041      127.157       10.869        0.007      338.639       11.426      852.131
10/08/2013  23:10:00       41.601       84.510       -7.809       27.661       52.858       23.432      765.121     2793.971      549.076        0.652        0.205       94.194       29.183        0.096      338.534       11.253      852.117
10/08/2013  23:11:00       63.060       46.671       -4.533       17.080       19.127       16.242      291.739      365.839      263.807        0.355        0.046       78.453       12.738        0.026      338.497       11.190      852.098
10/08/2013  23:12:00       53.746       43.664       -5.197       26.591       18.773       11.825      707.094      352.408      139.830        0.301        0.060       69.247       10.254        0.022      338.512       11.214      852.071
10/08/2013  23:13:00       48.351       42.345        0.985       27.269       18.690       12.726      743.596      349.311      161.949        0.269        0.063       64.273       11.828        0.034      338.560       11.294      852.053
10/08/2013  23:14:00       29.793       35.218        2.277       28.100       26.672       13.302      789.615      711.406      176.937        0.191        0.084       46.129       14.961        0.105      338.482       11.163      852.033
10/08/2013  23:15:00       43.396      114.960      -15.273       21.775       32.925       19.245      474.143     1084.087      370.383        0.863        0.096      122.878       18.578        0.023      338.669       11.477      852.007
10/08/2013  23:16:00       26.920      107.895       -8.378       34.996       53.415       33.535     1224.703     2853.121     1124.600        0.882        0.260      111.203       30.494        0.075      338.626       11.403      851.988
10/08/2013  23:17:00       23.049      115.936       -9.424       35.369       49.622       34.199     1250.994     2462.349     1169.581        0.947        0.244      118.205       37.835        0.102      338.676       11.488      851.976
10/08/2013  23:18:00       -5.739       97.450      -15.585       35.572       30.869       15.795     1265.373      952.877      249.488        0.612        0.123       97.619        6.523        0.004      338.684       11.503      851.970
10/08/2013  23:19:00      -88.618       59.696      -13.014       38.265       42.725       18.615     1464.215     1825.414      346.516        0.761        0.182      106.849       12.213        0.013      338.697       11.524      851.973
10/08/2013  23:20:00      -92.461       47.278      -23.420       23.223       34.537       16.653      539.326     1192.827      277.328        0.667        0.100      103.847       15.610        0.023      338.619       11.393      851.972
10/08/2013  23:21:00      -75.170       81.670      -21.664       27.220       23.547       16.248      740.902      554.475      264.005        0.717        0.078      110.998       14.743        0.018      338.687       11.507      851.963
10/08/2013  23:22:00     -120.449       85.046      -22.000       42.040       49.235       25.780     1767.367     2424.101      664.603        1.354        0.243      147.448       21.411        0.021      338.654       11.452      851.958
10/08/2013  23:23:00      -85.507       66.521      -13.567       39.707       53.184       21.571     1576.671     2828.526      465.328        0.839        0.244      108.335       18.781        0.030      338.687       11.508      851.951
10/08/2013  23:24:00      -89.921       31.980      -10.891       32.822       28.842       22.473     1077.286      831.885      505.050        0.582        0.121       95.439       19.318        0.041      338.701       11.530      851.929
10/08/2013  23:25:00     -135.706      108.085      -35.833       33.349       51.866       29.397     1112.160     2690.069      864.180        1.802        0.233      173.489       21.681        0.016      338.722       11.565      851.914
10/08/2013  23:26:00     -169.601       60.544      -28.411       78.738       63.109       30.970     6199.665     3982.797      959.123        2.219        0.557      180.083       22.105        0.015      338.762       11.632      851.896
10/08/2013  23:27:00     -128.369       50.707      -19.370       48.600       34.204       32.020     2361.933     1169.946     1025.250        1.199        0.228      138.021       27.154        0.039      338.709       11.544      851.898
10/08/2013  23:28:00     -143.877      124.514      -29.191       62.167      118.728       36.560     3864.751    14096.373     1336.625        2.817        0.965      190.274       24.069        0.016      338.709       11.542      851.892
10/08/2013  23:29:00     -147.036      124.569      -28.173       69.802       83.318       46.804     4872.357     6941.906     2190.654        2.597        0.700      192.710       36.781        0.036      338.729       11.576      851.876
10/08/2013  23:30:00     -124.272       49.932      -15.224       60.887       40.791       29.707     3707.205     1663.894      882.522        1.221        0.313      133.928       17.921        0.018      338.705       11.538      851.859
10/08/2013  23:31:00     -118.549       18.621      -15.829       53.871       52.447       25.563     2902.100     2750.713      653.442        1.048        0.315      120.003       24.148        0.040      338.708       11.543      851.838
10/08/2013  23:32:00      -80.237       56.407      -21.872       44.001       41.530       27.361     1936.079     1724.760      748.600        0.725        0.220       98.081       23.559        0.058      338.728       11.577      851.826
10/08/2013  23:33:00     -111.618       92.267      -19.344       55.663       63.621       35.485     3098.421     4047.686     1259.206        1.487        0.420      144.817       29.379        0.041      338.722       11.567      851.819
10/08/2013  23:34:00      -48.609       70.487       -4.158       55.420       51.179       26.796     3071.354     2619.308      718.010        0.688        0.320       85.623       25.562        0.089      338.710       11.545      851.802
10/08/2013  23:35:00     -122.161      107.047      -19.506       42.053       63.721       24.715     1768.427     4060.424      610.852        1.660        0.322      162.426       27.731        0.029      338.715       11.556      851.786
10/08/2013  23:36:00      -39.176       89.912       -4.565       43.248       58.977       32.379     1870.361     3478.278     1048.385        0.802        0.320       98.076       33.442        0.116      338.783       11.669      851.784
10/08/2013  23:37:00      -90.757      208.888      -28.615      100.203       59.214       39.558    10040.545     3506.297     1564.845        3.390        0.756      227.752       44.771        0.039      338.702       11.531      851.792
10/08/2013  23:38:00      -16.832      185.545      -23.729       28.601       56.732       23.765      818.028     3218.530      564.790        1.994        0.230      186.307       17.905        0.009      338.641       11.429      851.774
10/08/2013  23:39:00       21.030       54.053       -8.904       36.258       43.016       35.055     1314.678     1850.352     1228.874        0.392        0.220       57.999       28.314        0.238      338.569       11.308      851.762
10/08/2013  23:40:00       35.236       97.090      -12.041       36.272       52.831       24.682     1315.640     2791.132      609.219        0.776        0.236      103.286       23.029        0.050      338.562       11.297      851.757
10/08/2013  23:41:00       38.450       56.604       -1.821       40.129       27.898       20.985     1610.306      778.286      440.358        0.376        0.141       68.428       14.286        0.044      338.513       11.216      851.757
10/08/2013  23:42:00       38.600       73.378       -2.920       33.338       45.389       29.356     1111.395     2060.186      861.750        0.546        0.202       82.911       26.088        0.099      338.494       11.183      851.748
10/08/2013  23:43:00       41.876       90.519       -9.633       49.804       54.959       28.000     2480.465     3020.538      784.010        0.816        0.314       99.736       29.219        0.086      338.502       11.196      851.744
10/08/2013  23:44:00       62.951       46.719       -4.692       13.526       14.688       14.654      182.960      215.728      214.733        0.339        0.031       78.394        4.958        0.004      338.443       11.098      851.722
10/08/2013  23:45:00       81.055       45.147        1.387       27.787       32.333       31.966      772.124     1045.411     1021.829        0.572        0.142       92.780       16.392        0.031      338.466       11.136      851.713
10/08/2013  23:46:00       13.782       52.958       25.926       50.478       74.462       47.249     2548.041     5544.599     2232.465        0.699        0.516       54.722       46.397        0.719      338.522       11.231      851.698
10/08/2013  23:47:00        7.077       68.013        0.756       29.048       56.586       29.849      843.793     3202.030      890.935        0.481        0.247       68.381       25.453        0.139      338.521       11.230      851.675
10/08/2013  23:48:00       -1.450      101.197       -4.857       62.314       43.008       31.903     3883.067     1849.728     1017.789        0.851        0.338      101.207       29.215        0.083      338.624       11.400      851.648
10/08/2013  23:49:00     -127.370      125.620      -19.847       70.426       68.862       38.791     4959.882     4741.999     1504.706        2.180        0.560      178.895       34.089        0.036      338.641       11.429      851.633
10/08/2013  23:50:00      -44.550       51.186      -12.067       42.513       51.192       29.168     1807.367     2620.607      850.758        0.501        0.264       67.858       31.024        0.209      338.646       11.439      851.615
10/08/2013  23:51:00      -36.679       90.872       -2.542       42.900       76.005       26.677     1840.417     5776.742      711.653        0.897        0.416       97.995       18.056        0.034      338.646       11.438      851.601
10/08/2013  23:52:00      -52.262      123.472       -6.641       53.287       55.882       34.978     2839.477     3122.837     1223.463        1.260        0.359      134.077       30.463        0.052      338.643       11.434      851.580
10/08/2013  23:53:00     -102.998      122.072      -24.081       68.456       75.923       33.783     4686.235     5764.358     1141.279        1.884        0.580      159.719       35.580        0.050      338.674       11.484      851.555
10/08/2013  23:54:00      -93.897      160.914      -30.348       82.029       67.604       37.923     6728.765     4570.301     1438.152        2.418        0.637      186.306       51.985        0.078      338.656       11.455      851.528
10/08/2013  23:55:00      -36.854      125.048       -9.770       59.504       58.691       38.779     3540.748     3444.679     1503.801        1.279        0.424      130.366       32.407        0.062      338.650       11.445      851.509
10/08/2013  23:56:00      -25.701      132.940       -3.602       61.867       69.842       33.594     3827.544     4877.885     1128.589        1.409        0.492      135.402       33.521        0.061      338.603       11.367      851.499
10/08/2013  23:57:00      -67.969      142.623       -5.658       61.124       97.820       38.307     3736.101     9568.744     1467.438        1.988        0.739      157.991       38.398        0.059      338.601       11.361      851.500
10/08/2013  23:58:00      -75.132      247.970      -25.528       69.019      125.375       45.816     4763.600    15718.775     2099.095        4.518        1.129      259.102       49.817        0.037      338.568       11.305      851.492
10/08/2013  23:59:00      -99.793      204.751      -17.466       65.149       99.597       43.638     4244.429     9919.659     1904.305        3.412        0.803      227.775       46.718        0.042      338.529       11.242      851.482
